<?xml version="1.0" encoding="UTF-8" standalone="no" ?>
<gpx xmlns="http://www.topografix.com/GPX/1/1" xmlns:xsi="http://www.w3.org/2001/XMLSchema-instance" xsi:schemaLocation="http://www.topografix.com/GPX/1/1 http://www.topografix.com/GPX/1/1/gpx.xsd" version="1.1" creator="VisuGPX - https://www.visugpx.com">
  <metadata>
    <name>Circuit de Morieux</name>
    <desc><![CDATA[Circuit de Morieux, départ du viaduc des Ponts Neufs]]></desc>
  </metadata>
  <trk>
    <name><![CDATA[2016-03-23-Morieux]]></name>
    <trkseg>
      <trkpt lat="48.51031" lon="-2.60816">
        <ele>56</ele>
        <time>2016-03-23T12:50:31Z</time>
      </trkpt>
      <trkpt lat="48.5103" lon="-2.60811">
        <ele>56</ele>
        <time>2016-03-23T12:50:32Z</time>
      </trkpt>
      <trkpt lat="48.51029" lon="-2.60795">
        <ele>56.3</ele>
        <time>2016-03-23T12:50:35Z</time>
      </trkpt>
      <trkpt lat="48.51029" lon="-2.60778">
        <ele>56.7</ele>
        <time>2016-03-23T12:50:38Z</time>
      </trkpt>
      <trkpt lat="48.5103" lon="-2.60762">
        <ele>57.1</ele>
        <time>2016-03-23T12:50:41Z</time>
      </trkpt>
      <trkpt lat="48.51032" lon="-2.60746">
        <ele>57.5</ele>
        <time>2016-03-23T12:50:44Z</time>
      </trkpt>
      <trkpt lat="48.51035" lon="-2.6073">
        <ele>57.9</ele>
        <time>2016-03-23T12:50:47Z</time>
      </trkpt>
      <trkpt lat="48.51038" lon="-2.60714">
        <ele>58.3</ele>
        <time>2016-03-23T12:50:50Z</time>
      </trkpt>
      <trkpt lat="48.51042" lon="-2.60699">
        <ele>58.6</ele>
        <time>2016-03-23T12:50:53Z</time>
      </trkpt>
      <trkpt lat="48.51049" lon="-2.60687">
        <ele>58.9</ele>
        <time>2016-03-23T12:50:56Z</time>
      </trkpt>
      <trkpt lat="48.51056" lon="-2.60675">
        <ele>59.4</ele>
        <time>2016-03-23T12:50:59Z</time>
      </trkpt>
      <trkpt lat="48.51064" lon="-2.60663">
        <ele>59.9</ele>
        <time>2016-03-23T12:51:02Z</time>
      </trkpt>
      <trkpt lat="48.51071" lon="-2.60652">
        <ele>60.4</ele>
        <time>2016-03-23T12:51:05Z</time>
      </trkpt>
      <trkpt lat="48.51077" lon="-2.60642">
        <ele>61</ele>
        <time>2016-03-23T12:51:08Z</time>
      </trkpt>
      <trkpt lat="48.5108" lon="-2.60627">
        <ele>61.5</ele>
        <time>2016-03-23T12:51:11Z</time>
      </trkpt>
      <trkpt lat="48.51087" lon="-2.60612">
        <ele>62.1</ele>
        <time>2016-03-23T12:51:14Z</time>
      </trkpt>
      <trkpt lat="48.51096" lon="-2.606">
        <ele>62.5</ele>
        <time>2016-03-23T12:51:17Z</time>
      </trkpt>
      <trkpt lat="48.51104" lon="-2.60586">
        <ele>63</ele>
        <time>2016-03-23T12:51:20Z</time>
      </trkpt>
      <trkpt lat="48.51113" lon="-2.60573">
        <ele>63.4</ele>
        <time>2016-03-23T12:51:23Z</time>
      </trkpt>
      <trkpt lat="48.51122" lon="-2.6056">
        <ele>63.8</ele>
        <time>2016-03-23T12:51:26Z</time>
      </trkpt>
      <trkpt lat="48.51131" lon="-2.60546">
        <ele>64.2</ele>
        <time>2016-03-23T12:51:29Z</time>
      </trkpt>
      <trkpt lat="48.5114" lon="-2.60533">
        <ele>64.6</ele>
        <time>2016-03-23T12:51:32Z</time>
      </trkpt>
      <trkpt lat="48.5115" lon="-2.60519">
        <ele>65.1</ele>
        <time>2016-03-23T12:51:35Z</time>
      </trkpt>
      <trkpt lat="48.51159" lon="-2.60506">
        <ele>65.5</ele>
        <time>2016-03-23T12:51:38Z</time>
      </trkpt>
      <trkpt lat="48.51168" lon="-2.60493">
        <ele>66</ele>
        <time>2016-03-23T12:51:41Z</time>
      </trkpt>
      <trkpt lat="48.51176" lon="-2.60481">
        <ele>66.4</ele>
        <time>2016-03-23T12:51:44Z</time>
      </trkpt>
      <trkpt lat="48.51185" lon="-2.60469">
        <ele>67</ele>
        <time>2016-03-23T12:51:48Z</time>
      </trkpt>
      <trkpt lat="48.51194" lon="-2.60466">
        <ele>67.4</ele>
        <time>2016-03-23T12:51:51Z</time>
      </trkpt>
      <trkpt lat="48.51203" lon="-2.60478">
        <ele>67.9</ele>
        <time>2016-03-23T12:51:55Z</time>
      </trkpt>
      <trkpt lat="48.51209" lon="-2.60489">
        <ele>68.4</ele>
        <time>2016-03-23T12:51:59Z</time>
      </trkpt>
      <trkpt lat="48.51216" lon="-2.60502">
        <ele>69</ele>
        <time>2016-03-23T12:52:04Z</time>
      </trkpt>
      <trkpt lat="48.51223" lon="-2.60513">
        <ele>69.3</ele>
        <time>2016-03-23T12:52:07Z</time>
      </trkpt>
      <trkpt lat="48.51229" lon="-2.60524">
        <ele>69.8</ele>
        <time>2016-03-23T12:52:10Z</time>
      </trkpt>
      <trkpt lat="48.51237" lon="-2.60537">
        <ele>70.6</ele>
        <time>2016-03-23T12:52:15Z</time>
      </trkpt>
      <trkpt lat="48.51245" lon="-2.60549">
        <ele>71.3</ele>
        <time>2016-03-23T12:52:19Z</time>
      </trkpt>
      <trkpt lat="48.51252" lon="-2.6056">
        <ele>71.7</ele>
        <time>2016-03-23T12:52:22Z</time>
      </trkpt>
      <trkpt lat="48.51259" lon="-2.60571">
        <ele>72.1</ele>
        <time>2016-03-23T12:52:25Z</time>
      </trkpt>
      <trkpt lat="48.51266" lon="-2.60582">
        <ele>72.4</ele>
        <time>2016-03-23T12:52:28Z</time>
      </trkpt>
      <trkpt lat="48.51273" lon="-2.60593">
        <ele>72.6</ele>
        <time>2016-03-23T12:52:31Z</time>
      </trkpt>
      <trkpt lat="48.51281" lon="-2.60604">
        <ele>72.8</ele>
        <time>2016-03-23T12:52:34Z</time>
      </trkpt>
      <trkpt lat="48.51288" lon="-2.60613">
        <ele>73.4</ele>
        <time>2016-03-23T12:52:51Z</time>
      </trkpt>
      <trkpt lat="48.51296" lon="-2.60623">
        <ele>73.4</ele>
        <time>2016-03-23T12:52:55Z</time>
      </trkpt>
      <trkpt lat="48.51303" lon="-2.60632">
        <ele>73.4</ele>
        <time>2016-03-23T12:52:58Z</time>
      </trkpt>
      <trkpt lat="48.51311" lon="-2.60641">
        <ele>73.4</ele>
        <time>2016-03-23T12:53:01Z</time>
      </trkpt>
      <trkpt lat="48.51319" lon="-2.6065">
        <ele>73.4</ele>
        <time>2016-03-23T12:53:04Z</time>
      </trkpt>
      <trkpt lat="48.51327" lon="-2.6066">
        <ele>73.4</ele>
        <time>2016-03-23T12:53:07Z</time>
      </trkpt>
      <trkpt lat="48.51335" lon="-2.60669">
        <ele>73.4</ele>
        <time>2016-03-23T12:53:10Z</time>
      </trkpt>
      <trkpt lat="48.51343" lon="-2.60679">
        <ele>73.4</ele>
        <time>2016-03-23T12:53:13Z</time>
      </trkpt>
      <trkpt lat="48.5135" lon="-2.60689">
        <ele>73.2</ele>
        <time>2016-03-23T12:53:16Z</time>
      </trkpt>
      <trkpt lat="48.51358" lon="-2.60697">
        <ele>73.1</ele>
        <time>2016-03-23T12:53:19Z</time>
      </trkpt>
      <trkpt lat="48.51366" lon="-2.60706">
        <ele>73</ele>
        <time>2016-03-23T12:53:22Z</time>
      </trkpt>
      <trkpt lat="48.51374" lon="-2.60715">
        <ele>72.9</ele>
        <time>2016-03-23T12:53:25Z</time>
      </trkpt>
      <trkpt lat="48.51381" lon="-2.60725">
        <ele>72.7</ele>
        <time>2016-03-23T12:53:28Z</time>
      </trkpt>
      <trkpt lat="48.51389" lon="-2.60735">
        <ele>72.4</ele>
        <time>2016-03-23T12:53:31Z</time>
      </trkpt>
      <trkpt lat="48.51396" lon="-2.60744">
        <ele>72.1</ele>
        <time>2016-03-23T12:53:34Z</time>
      </trkpt>
      <trkpt lat="48.51403" lon="-2.60754">
        <ele>71.9</ele>
        <time>2016-03-23T12:53:37Z</time>
      </trkpt>
      <trkpt lat="48.51411" lon="-2.60762">
        <ele>71.7</ele>
        <time>2016-03-23T12:53:40Z</time>
      </trkpt>
      <trkpt lat="48.51418" lon="-2.60772">
        <ele>71.6</ele>
        <time>2016-03-23T12:53:43Z</time>
      </trkpt>
      <trkpt lat="48.51425" lon="-2.60781">
        <ele>71.5</ele>
        <time>2016-03-23T12:53:46Z</time>
      </trkpt>
      <trkpt lat="48.51432" lon="-2.6079">
        <ele>71.4</ele>
        <time>2016-03-23T12:53:49Z</time>
      </trkpt>
      <trkpt lat="48.51442" lon="-2.60801">
        <ele>71.3</ele>
        <time>2016-03-23T12:53:53Z</time>
      </trkpt>
      <trkpt lat="48.51449" lon="-2.60809">
        <ele>71.1</ele>
        <time>2016-03-23T12:53:56Z</time>
      </trkpt>
      <trkpt lat="48.51457" lon="-2.60817">
        <ele>70.9</ele>
        <time>2016-03-23T12:53:59Z</time>
      </trkpt>
      <trkpt lat="48.51465" lon="-2.60825">
        <ele>70.8</ele>
        <time>2016-03-23T12:54:02Z</time>
      </trkpt>
      <trkpt lat="48.51474" lon="-2.60833">
        <ele>70.7</ele>
        <time>2016-03-23T12:54:05Z</time>
      </trkpt>
      <trkpt lat="48.51482" lon="-2.60842">
        <ele>70.5</ele>
        <time>2016-03-23T12:54:08Z</time>
      </trkpt>
      <trkpt lat="48.5149" lon="-2.60852">
        <ele>70.2</ele>
        <time>2016-03-23T12:54:11Z</time>
      </trkpt>
      <trkpt lat="48.51498" lon="-2.60864">
        <ele>70</ele>
        <time>2016-03-23T12:54:14Z</time>
      </trkpt>
      <trkpt lat="48.51507" lon="-2.60875">
        <ele>69.9</ele>
        <time>2016-03-23T12:54:17Z</time>
      </trkpt>
      <trkpt lat="48.51514" lon="-2.60885">
        <ele>69.8</ele>
        <time>2016-03-23T12:54:20Z</time>
      </trkpt>
      <trkpt lat="48.51521" lon="-2.60895">
        <ele>69.6</ele>
        <time>2016-03-23T12:54:23Z</time>
      </trkpt>
      <trkpt lat="48.51528" lon="-2.60907">
        <ele>69.6</ele>
        <time>2016-03-23T12:54:26Z</time>
      </trkpt>
      <trkpt lat="48.51536" lon="-2.60919">
        <ele>69.5</ele>
        <time>2016-03-23T12:54:29Z</time>
      </trkpt>
      <trkpt lat="48.51544" lon="-2.60932">
        <ele>69.4</ele>
        <time>2016-03-23T12:54:32Z</time>
      </trkpt>
      <trkpt lat="48.51553" lon="-2.60947">
        <ele>69.4</ele>
        <time>2016-03-23T12:54:35Z</time>
      </trkpt>
      <trkpt lat="48.51559" lon="-2.60957">
        <ele>69.4</ele>
        <time>2016-03-23T12:54:37Z</time>
      </trkpt>
      <trkpt lat="48.51567" lon="-2.60973">
        <ele>69.5</ele>
        <time>2016-03-23T12:54:40Z</time>
      </trkpt>
      <trkpt lat="48.51573" lon="-2.60984">
        <ele>69.5</ele>
        <time>2016-03-23T12:54:42Z</time>
      </trkpt>
      <trkpt lat="48.51578" lon="-2.60995">
        <ele>69.4</ele>
        <time>2016-03-23T12:54:44Z</time>
      </trkpt>
      <trkpt lat="48.51582" lon="-2.61008">
        <ele>69.3</ele>
        <time>2016-03-23T12:54:46Z</time>
      </trkpt>
      <trkpt lat="48.5158" lon="-2.61027">
        <ele>69</ele>
        <time>2016-03-23T12:54:49Z</time>
      </trkpt>
      <trkpt lat="48.51576" lon="-2.61041">
        <ele>68.8</ele>
        <time>2016-03-23T12:54:51Z</time>
      </trkpt>
      <trkpt lat="48.51574" lon="-2.61056">
        <ele>68.6</ele>
        <time>2016-03-23T12:54:53Z</time>
      </trkpt>
      <trkpt lat="48.51575" lon="-2.6107">
        <ele>68.4</ele>
        <time>2016-03-23T12:54:55Z</time>
      </trkpt>
      <trkpt lat="48.51583" lon="-2.61086">
        <ele>68.1</ele>
        <time>2016-03-23T12:54:58Z</time>
      </trkpt>
      <trkpt lat="48.51592" lon="-2.61097">
        <ele>68</ele>
        <time>2016-03-23T12:55:01Z</time>
      </trkpt>
      <trkpt lat="48.516" lon="-2.61109">
        <ele>67.9</ele>
        <time>2016-03-23T12:55:04Z</time>
      </trkpt>
      <trkpt lat="48.51608" lon="-2.61122">
        <ele>67.8</ele>
        <time>2016-03-23T12:55:07Z</time>
      </trkpt>
      <trkpt lat="48.51618" lon="-2.61128">
        <ele>67.9</ele>
        <time>2016-03-23T12:55:11Z</time>
      </trkpt>
      <trkpt lat="48.51626" lon="-2.6112">
        <ele>68</ele>
        <time>2016-03-23T12:55:14Z</time>
      </trkpt>
      <trkpt lat="48.51634" lon="-2.61108">
        <ele>68.1</ele>
        <time>2016-03-23T12:55:17Z</time>
      </trkpt>
      <trkpt lat="48.51642" lon="-2.61097">
        <ele>68.2</ele>
        <time>2016-03-23T12:55:20Z</time>
      </trkpt>
      <trkpt lat="48.51652" lon="-2.61085">
        <ele>68.4</ele>
        <time>2016-03-23T12:55:23Z</time>
      </trkpt>
      <trkpt lat="48.5166" lon="-2.61074">
        <ele>68.6</ele>
        <time>2016-03-23T12:55:26Z</time>
      </trkpt>
      <trkpt lat="48.51669" lon="-2.61063">
        <ele>68.8</ele>
        <time>2016-03-23T12:55:29Z</time>
      </trkpt>
      <trkpt lat="48.51678" lon="-2.61051">
        <ele>69.1</ele>
        <time>2016-03-23T12:55:32Z</time>
      </trkpt>
      <trkpt lat="48.51687" lon="-2.6104">
        <ele>69.4</ele>
        <time>2016-03-23T12:55:35Z</time>
      </trkpt>
      <trkpt lat="48.51696" lon="-2.61029">
        <ele>69.7</ele>
        <time>2016-03-23T12:55:38Z</time>
      </trkpt>
      <trkpt lat="48.51705" lon="-2.61019">
        <ele>70</ele>
        <time>2016-03-23T12:55:41Z</time>
      </trkpt>
      <trkpt lat="48.51714" lon="-2.61009">
        <ele>70.4</ele>
        <time>2016-03-23T12:55:44Z</time>
      </trkpt>
      <trkpt lat="48.51722" lon="-2.60999">
        <ele>70.9</ele>
        <time>2016-03-23T12:55:47Z</time>
      </trkpt>
      <trkpt lat="48.51731" lon="-2.60989">
        <ele>71.4</ele>
        <time>2016-03-23T12:55:50Z</time>
      </trkpt>
      <trkpt lat="48.51739" lon="-2.60979">
        <ele>72</ele>
        <time>2016-03-23T12:55:53Z</time>
      </trkpt>
      <trkpt lat="48.51748" lon="-2.6097">
        <ele>72.6</ele>
        <time>2016-03-23T12:55:56Z</time>
      </trkpt>
      <trkpt lat="48.51757" lon="-2.60961">
        <ele>73.2</ele>
        <time>2016-03-23T12:55:59Z</time>
      </trkpt>
      <trkpt lat="48.51766" lon="-2.60954">
        <ele>73.8</ele>
        <time>2016-03-23T12:56:02Z</time>
      </trkpt>
      <trkpt lat="48.51776" lon="-2.60946">
        <ele>74.4</ele>
        <time>2016-03-23T12:56:05Z</time>
      </trkpt>
      <trkpt lat="48.51786" lon="-2.60938">
        <ele>75</ele>
        <time>2016-03-23T12:56:08Z</time>
      </trkpt>
      <trkpt lat="48.51796" lon="-2.60931">
        <ele>75.6</ele>
        <time>2016-03-23T12:56:11Z</time>
      </trkpt>
      <trkpt lat="48.51806" lon="-2.60921">
        <ele>76.2</ele>
        <time>2016-03-23T12:56:14Z</time>
      </trkpt>
      <trkpt lat="48.51816" lon="-2.6091">
        <ele>76.7</ele>
        <time>2016-03-23T12:56:17Z</time>
      </trkpt>
      <trkpt lat="48.51826" lon="-2.60899">
        <ele>77.1</ele>
        <time>2016-03-23T12:56:20Z</time>
      </trkpt>
      <trkpt lat="48.51835" lon="-2.60887">
        <ele>77.5</ele>
        <time>2016-03-23T12:56:23Z</time>
      </trkpt>
      <trkpt lat="48.51845" lon="-2.60875">
        <ele>77.9</ele>
        <time>2016-03-23T12:56:26Z</time>
      </trkpt>
      <trkpt lat="48.51854" lon="-2.60863">
        <ele>79</ele>
        <time>2016-03-23T12:56:29Z</time>
      </trkpt>
      <trkpt lat="48.51864" lon="-2.60852">
        <ele>79.5</ele>
        <time>2016-03-23T12:56:32Z</time>
      </trkpt>
      <trkpt lat="48.51873" lon="-2.6084">
        <ele>80.2</ele>
        <time>2016-03-23T12:56:35Z</time>
      </trkpt>
      <trkpt lat="48.51883" lon="-2.60829">
        <ele>80.5</ele>
        <time>2016-03-23T12:56:38Z</time>
      </trkpt>
      <trkpt lat="48.51893" lon="-2.60822">
        <ele>80.8</ele>
        <time>2016-03-23T12:56:41Z</time>
      </trkpt>
      <trkpt lat="48.51905" lon="-2.60822">
        <ele>81.1</ele>
        <time>2016-03-23T12:56:44Z</time>
      </trkpt>
      <trkpt lat="48.51917" lon="-2.60827">
        <ele>81.3</ele>
        <time>2016-03-23T12:56:47Z</time>
      </trkpt>
      <trkpt lat="48.51928" lon="-2.6083">
        <ele>81.5</ele>
        <time>2016-03-23T12:56:50Z</time>
      </trkpt>
      <trkpt lat="48.51937" lon="-2.60834">
        <ele>81.6</ele>
        <time>2016-03-23T12:56:53Z</time>
      </trkpt>
      <trkpt lat="48.51948" lon="-2.60839">
        <ele>81.7</ele>
        <time>2016-03-23T12:56:56Z</time>
      </trkpt>
      <trkpt lat="48.51959" lon="-2.60846">
        <ele>81.9</ele>
        <time>2016-03-23T12:56:59Z</time>
      </trkpt>
      <trkpt lat="48.51971" lon="-2.60848">
        <ele>81.9</ele>
        <time>2016-03-23T12:57:02Z</time>
      </trkpt>
      <trkpt lat="48.5198" lon="-2.60852">
        <ele>82</ele>
        <time>2016-03-23T12:57:04Z</time>
      </trkpt>
      <trkpt lat="48.51989" lon="-2.60858">
        <ele>82</ele>
        <time>2016-03-23T12:57:06Z</time>
      </trkpt>
      <trkpt lat="48.51998" lon="-2.60865">
        <ele>81.9</ele>
        <time>2016-03-23T12:57:08Z</time>
      </trkpt>
      <trkpt lat="48.52009" lon="-2.60871">
        <ele>81.7</ele>
        <time>2016-03-23T12:57:10Z</time>
      </trkpt>
      <trkpt lat="48.52019" lon="-2.60874">
        <ele>81.5</ele>
        <time>2016-03-23T12:57:12Z</time>
      </trkpt>
      <trkpt lat="48.52029" lon="-2.60878">
        <ele>81.3</ele>
        <time>2016-03-23T12:57:14Z</time>
      </trkpt>
      <trkpt lat="48.5204" lon="-2.60883">
        <ele>81.1</ele>
        <time>2016-03-23T12:57:16Z</time>
      </trkpt>
      <trkpt lat="48.5205" lon="-2.60889">
        <ele>80.9</ele>
        <time>2016-03-23T12:57:18Z</time>
      </trkpt>
      <trkpt lat="48.52061" lon="-2.60893">
        <ele>80.7</ele>
        <time>2016-03-23T12:57:20Z</time>
      </trkpt>
      <trkpt lat="48.52072" lon="-2.60898">
        <ele>80.5</ele>
        <time>2016-03-23T12:57:22Z</time>
      </trkpt>
      <trkpt lat="48.52083" lon="-2.60902">
        <ele>80.3</ele>
        <time>2016-03-23T12:57:24Z</time>
      </trkpt>
      <trkpt lat="48.52093" lon="-2.60907">
        <ele>80</ele>
        <time>2016-03-23T12:57:26Z</time>
      </trkpt>
      <trkpt lat="48.52103" lon="-2.60911">
        <ele>79.7</ele>
        <time>2016-03-23T12:57:28Z</time>
      </trkpt>
      <trkpt lat="48.52114" lon="-2.60915">
        <ele>79.3</ele>
        <time>2016-03-23T12:57:30Z</time>
      </trkpt>
      <trkpt lat="48.52124" lon="-2.6092">
        <ele>79.1</ele>
        <time>2016-03-23T12:57:32Z</time>
      </trkpt>
      <trkpt lat="48.52134" lon="-2.60924">
        <ele>78.8</ele>
        <time>2016-03-23T12:57:34Z</time>
      </trkpt>
      <trkpt lat="48.52144" lon="-2.60925">
        <ele>78.5</ele>
        <time>2016-03-23T12:57:36Z</time>
      </trkpt>
      <trkpt lat="48.52154" lon="-2.6092">
        <ele>78.2</ele>
        <time>2016-03-23T12:57:38Z</time>
      </trkpt>
      <trkpt lat="48.52163" lon="-2.60916">
        <ele>77.9</ele>
        <time>2016-03-23T12:57:40Z</time>
      </trkpt>
      <trkpt lat="48.52176" lon="-2.60913">
        <ele>77.5</ele>
        <time>2016-03-23T12:57:43Z</time>
      </trkpt>
      <trkpt lat="48.5219" lon="-2.6091">
        <ele>77.2</ele>
        <time>2016-03-23T12:57:46Z</time>
      </trkpt>
      <trkpt lat="48.52202" lon="-2.60909">
        <ele>77</ele>
        <time>2016-03-23T12:57:49Z</time>
      </trkpt>
      <trkpt lat="48.52214" lon="-2.60907">
        <ele>77.1</ele>
        <time>2016-03-23T12:57:52Z</time>
      </trkpt>
      <trkpt lat="48.52226" lon="-2.60906">
        <ele>77.2</ele>
        <time>2016-03-23T12:57:55Z</time>
      </trkpt>
      <trkpt lat="48.52238" lon="-2.60904">
        <ele>77.3</ele>
        <time>2016-03-23T12:57:58Z</time>
      </trkpt>
      <trkpt lat="48.52249" lon="-2.60899">
        <ele>77.5</ele>
        <time>2016-03-23T12:58:01Z</time>
      </trkpt>
      <trkpt lat="48.52261" lon="-2.60896">
        <ele>77.6</ele>
        <time>2016-03-23T12:58:04Z</time>
      </trkpt>
      <trkpt lat="48.52274" lon="-2.60898">
        <ele>77.7</ele>
        <time>2016-03-23T12:58:07Z</time>
      </trkpt>
      <trkpt lat="48.52282" lon="-2.60904">
        <ele>77.8</ele>
        <time>2016-03-23T12:58:09Z</time>
      </trkpt>
      <trkpt lat="48.52292" lon="-2.60908">
        <ele>77.9</ele>
        <time>2016-03-23T12:58:11Z</time>
      </trkpt>
      <trkpt lat="48.52302" lon="-2.60908">
        <ele>77.9</ele>
        <time>2016-03-23T12:58:13Z</time>
      </trkpt>
      <trkpt lat="48.52313" lon="-2.60909">
        <ele>77.7</ele>
        <time>2016-03-23T12:58:15Z</time>
      </trkpt>
      <trkpt lat="48.52326" lon="-2.60909">
        <ele>77.5</ele>
        <time>2016-03-23T12:58:17Z</time>
      </trkpt>
      <trkpt lat="48.52338" lon="-2.6091">
        <ele>77.2</ele>
        <time>2016-03-23T12:58:19Z</time>
      </trkpt>
      <trkpt lat="48.52351" lon="-2.6091">
        <ele>76.9</ele>
        <time>2016-03-23T12:58:21Z</time>
      </trkpt>
      <trkpt lat="48.52366" lon="-2.60911">
        <ele>76.5</ele>
        <time>2016-03-23T12:58:23Z</time>
      </trkpt>
      <trkpt lat="48.5238" lon="-2.60911">
        <ele>76.1</ele>
        <time>2016-03-23T12:58:25Z</time>
      </trkpt>
      <trkpt lat="48.52394" lon="-2.60912">
        <ele>75.5</ele>
        <time>2016-03-23T12:58:27Z</time>
      </trkpt>
      <trkpt lat="48.52409" lon="-2.60912">
        <ele>75</ele>
        <time>2016-03-23T12:58:29Z</time>
      </trkpt>
      <trkpt lat="48.52424" lon="-2.60913">
        <ele>74.5</ele>
        <time>2016-03-23T12:58:31Z</time>
      </trkpt>
      <trkpt lat="48.52438" lon="-2.60915">
        <ele>74</ele>
        <time>2016-03-23T12:58:33Z</time>
      </trkpt>
      <trkpt lat="48.52451" lon="-2.60916">
        <ele>73.6</ele>
        <time>2016-03-23T12:58:35Z</time>
      </trkpt>
      <trkpt lat="48.52463" lon="-2.60916">
        <ele>73.2</ele>
        <time>2016-03-23T12:58:37Z</time>
      </trkpt>
      <trkpt lat="48.52474" lon="-2.60916">
        <ele>72.8</ele>
        <time>2016-03-23T12:58:39Z</time>
      </trkpt>
      <trkpt lat="48.52483" lon="-2.60921">
        <ele>72.5</ele>
        <time>2016-03-23T12:58:41Z</time>
      </trkpt>
      <trkpt lat="48.5249" lon="-2.60932">
        <ele>72.3</ele>
        <time>2016-03-23T12:58:43Z</time>
      </trkpt>
      <trkpt lat="48.52496" lon="-2.60943">
        <ele>72.1</ele>
        <time>2016-03-23T12:58:45Z</time>
      </trkpt>
      <trkpt lat="48.52501" lon="-2.60956">
        <ele>71.9</ele>
        <time>2016-03-23T12:58:47Z</time>
      </trkpt>
      <trkpt lat="48.52505" lon="-2.60969">
        <ele>71.7</ele>
        <time>2016-03-23T12:58:49Z</time>
      </trkpt>
      <trkpt lat="48.52512" lon="-2.60984">
        <ele>71.8</ele>
        <time>2016-03-23T12:58:52Z</time>
      </trkpt>
      <trkpt lat="48.52517" lon="-2.60999">
        <ele>72.1</ele>
        <time>2016-03-23T12:58:55Z</time>
      </trkpt>
      <trkpt lat="48.52523" lon="-2.61013">
        <ele>72.5</ele>
        <time>2016-03-23T12:58:58Z</time>
      </trkpt>
      <trkpt lat="48.52529" lon="-2.61026">
        <ele>73.1</ele>
        <time>2016-03-23T12:59:01Z</time>
      </trkpt>
      <trkpt lat="48.52535" lon="-2.61039">
        <ele>73.8</ele>
        <time>2016-03-23T12:59:04Z</time>
      </trkpt>
      <trkpt lat="48.52543" lon="-2.61047">
        <ele>74.4</ele>
        <time>2016-03-23T12:59:07Z</time>
      </trkpt>
      <trkpt lat="48.52552" lon="-2.61053">
        <ele>75.3</ele>
        <time>2016-03-23T12:59:10Z</time>
      </trkpt>
      <trkpt lat="48.52563" lon="-2.61058">
        <ele>76.3</ele>
        <time>2016-03-23T12:59:14Z</time>
      </trkpt>
      <trkpt lat="48.52573" lon="-2.61066">
        <ele>77.4</ele>
        <time>2016-03-23T12:59:18Z</time>
      </trkpt>
      <trkpt lat="48.52581" lon="-2.61078">
        <ele>78.5</ele>
        <time>2016-03-23T12:59:22Z</time>
      </trkpt>
      <trkpt lat="48.52588" lon="-2.61092">
        <ele>79.6</ele>
        <time>2016-03-23T12:59:26Z</time>
      </trkpt>
      <trkpt lat="48.52594" lon="-2.61102">
        <ele>80.6</ele>
        <time>2016-03-23T12:59:29Z</time>
      </trkpt>
      <trkpt lat="48.526" lon="-2.61112">
        <ele>81.5</ele>
        <time>2016-03-23T12:59:32Z</time>
      </trkpt>
      <trkpt lat="48.52608" lon="-2.61123">
        <ele>83.7</ele>
        <time>2016-03-23T12:59:40Z</time>
      </trkpt>
      <trkpt lat="48.52616" lon="-2.61132">
        <ele>84.7</ele>
        <time>2016-03-23T12:59:45Z</time>
      </trkpt>
      <trkpt lat="48.52624" lon="-2.6114">
        <ele>85.5</ele>
        <time>2016-03-23T12:59:49Z</time>
      </trkpt>
      <trkpt lat="48.52632" lon="-2.61148">
        <ele>86.2</ele>
        <time>2016-03-23T12:59:53Z</time>
      </trkpt>
      <trkpt lat="48.52641" lon="-2.61157">
        <ele>87</ele>
        <time>2016-03-23T12:59:57Z</time>
      </trkpt>
      <trkpt lat="48.52649" lon="-2.61166">
        <ele>87.6</ele>
        <time>2016-03-23T13:00:01Z</time>
      </trkpt>
      <trkpt lat="48.52657" lon="-2.61177">
        <ele>88.3</ele>
        <time>2016-03-23T13:00:05Z</time>
      </trkpt>
      <trkpt lat="48.52664" lon="-2.61192">
        <ele>89</ele>
        <time>2016-03-23T13:00:09Z</time>
      </trkpt>
      <trkpt lat="48.52669" lon="-2.61203">
        <ele>89.5</ele>
        <time>2016-03-23T13:00:12Z</time>
      </trkpt>
      <trkpt lat="48.52675" lon="-2.61215">
        <ele>90.1</ele>
        <time>2016-03-23T13:00:16Z</time>
      </trkpt>
      <trkpt lat="48.52684" lon="-2.61225">
        <ele>90.7</ele>
        <time>2016-03-23T13:00:20Z</time>
      </trkpt>
      <trkpt lat="48.52692" lon="-2.61236">
        <ele>91.1</ele>
        <time>2016-03-23T13:00:24Z</time>
      </trkpt>
      <trkpt lat="48.52701" lon="-2.61247">
        <ele>91.7</ele>
        <time>2016-03-23T13:00:28Z</time>
      </trkpt>
      <trkpt lat="48.52709" lon="-2.61253">
        <ele>92.1</ele>
        <time>2016-03-23T13:00:31Z</time>
      </trkpt>
      <trkpt lat="48.5272" lon="-2.61259">
        <ele>92.8</ele>
        <time>2016-03-23T13:00:35Z</time>
      </trkpt>
      <trkpt lat="48.52731" lon="-2.61263">
        <ele>93.4</ele>
        <time>2016-03-23T13:00:39Z</time>
      </trkpt>
      <trkpt lat="48.5274" lon="-2.61265">
        <ele>93.8</ele>
        <time>2016-03-23T13:00:42Z</time>
      </trkpt>
      <trkpt lat="48.52752" lon="-2.61266">
        <ele>94.4</ele>
        <time>2016-03-23T13:00:46Z</time>
      </trkpt>
      <trkpt lat="48.52761" lon="-2.61267">
        <ele>94.8</ele>
        <time>2016-03-23T13:00:49Z</time>
      </trkpt>
      <trkpt lat="48.52771" lon="-2.61267">
        <ele>95.1</ele>
        <time>2016-03-23T13:00:52Z</time>
      </trkpt>
      <trkpt lat="48.52782" lon="-2.61269">
        <ele>95.3</ele>
        <time>2016-03-23T13:00:55Z</time>
      </trkpt>
      <trkpt lat="48.52792" lon="-2.6127">
        <ele>95.6</ele>
        <time>2016-03-23T13:00:58Z</time>
      </trkpt>
      <trkpt lat="48.52803" lon="-2.61273">
        <ele>95.7</ele>
        <time>2016-03-23T13:01:01Z</time>
      </trkpt>
      <trkpt lat="48.52813" lon="-2.61278">
        <ele>95.9</ele>
        <time>2016-03-23T13:01:04Z</time>
      </trkpt>
      <trkpt lat="48.52822" lon="-2.61286">
        <ele>96</ele>
        <time>2016-03-23T13:01:07Z</time>
      </trkpt>
      <trkpt lat="48.52831" lon="-2.61293">
        <ele>96.2</ele>
        <time>2016-03-23T13:01:10Z</time>
      </trkpt>
      <trkpt lat="48.5284" lon="-2.61301">
        <ele>96.3</ele>
        <time>2016-03-23T13:01:13Z</time>
      </trkpt>
      <trkpt lat="48.5285" lon="-2.61308">
        <ele>96.4</ele>
        <time>2016-03-23T13:01:16Z</time>
      </trkpt>
      <trkpt lat="48.52861" lon="-2.61313">
        <ele>96.6</ele>
        <time>2016-03-23T13:01:19Z</time>
      </trkpt>
      <trkpt lat="48.52872" lon="-2.61316">
        <ele>96.7</ele>
        <time>2016-03-23T13:01:22Z</time>
      </trkpt>
      <trkpt lat="48.52883" lon="-2.61319">
        <ele>96.8</ele>
        <time>2016-03-23T13:01:25Z</time>
      </trkpt>
      <trkpt lat="48.52893" lon="-2.61321">
        <ele>97</ele>
        <time>2016-03-23T13:01:28Z</time>
      </trkpt>
      <trkpt lat="48.52905" lon="-2.61325">
        <ele>97.1</ele>
        <time>2016-03-23T13:01:31Z</time>
      </trkpt>
      <trkpt lat="48.52916" lon="-2.61328">
        <ele>97.2</ele>
        <time>2016-03-23T13:01:34Z</time>
      </trkpt>
      <trkpt lat="48.52925" lon="-2.6133">
        <ele>97.1</ele>
        <time>2016-03-23T13:01:37Z</time>
      </trkpt>
      <trkpt lat="48.52932" lon="-2.61338">
        <ele>97.1</ele>
        <time>2016-03-23T13:01:40Z</time>
      </trkpt>
      <trkpt lat="48.5294" lon="-2.6135">
        <ele>97.1</ele>
        <time>2016-03-23T13:01:44Z</time>
      </trkpt>
      <trkpt lat="48.52948" lon="-2.61359">
        <ele>97</ele>
        <time>2016-03-23T13:01:49Z</time>
      </trkpt>
      <trkpt lat="48.52941" lon="-2.61348">
        <ele>96.8</ele>
        <time>2016-03-23T13:01:56Z</time>
      </trkpt>
      <trkpt lat="48.52935" lon="-2.61361">
        <ele>96.7</ele>
        <time>2016-03-23T13:02:01Z</time>
      </trkpt>
      <trkpt lat="48.52937" lon="-2.61377">
        <ele>96.6</ele>
        <time>2016-03-23T13:02:04Z</time>
      </trkpt>
      <trkpt lat="48.52943" lon="-2.61394">
        <ele>96.5</ele>
        <time>2016-03-23T13:02:07Z</time>
      </trkpt>
      <trkpt lat="48.5295" lon="-2.61411">
        <ele>96.5</ele>
        <time>2016-03-23T13:02:10Z</time>
      </trkpt>
      <trkpt lat="48.52956" lon="-2.61424">
        <ele>96.2</ele>
        <time>2016-03-23T13:02:12Z</time>
      </trkpt>
      <trkpt lat="48.52961" lon="-2.61436">
        <ele>95.9</ele>
        <time>2016-03-23T13:02:14Z</time>
      </trkpt>
      <trkpt lat="48.52967" lon="-2.61452">
        <ele>95.5</ele>
        <time>2016-03-23T13:02:17Z</time>
      </trkpt>
      <trkpt lat="48.52967" lon="-2.61466">
        <ele>95</ele>
        <time>2016-03-23T13:02:21Z</time>
      </trkpt>
      <trkpt lat="48.52959" lon="-2.6147">
        <ele>94.5</ele>
        <time>2016-03-23T13:02:27Z</time>
      </trkpt>
      <trkpt lat="48.5295" lon="-2.61472">
        <ele>94.2</ele>
        <time>2016-03-23T13:02:31Z</time>
      </trkpt>
      <trkpt lat="48.52939" lon="-2.61473">
        <ele>94</ele>
        <time>2016-03-23T13:02:35Z</time>
      </trkpt>
      <trkpt lat="48.52928" lon="-2.61472">
        <ele>93.8</ele>
        <time>2016-03-23T13:02:39Z</time>
      </trkpt>
      <trkpt lat="48.52917" lon="-2.61471">
        <ele>93.7</ele>
        <time>2016-03-23T13:02:43Z</time>
      </trkpt>
      <trkpt lat="48.52908" lon="-2.61472">
        <ele>93.6</ele>
        <time>2016-03-23T13:02:48Z</time>
      </trkpt>
      <trkpt lat="48.52898" lon="-2.61473">
        <ele>93.5</ele>
        <time>2016-03-23T13:02:53Z</time>
      </trkpt>
      <trkpt lat="48.52889" lon="-2.6147">
        <ele>93.4</ele>
        <time>2016-03-23T13:02:58Z</time>
      </trkpt>
      <trkpt lat="48.52878" lon="-2.6147">
        <ele>93.4</ele>
        <time>2016-03-23T13:03:03Z</time>
      </trkpt>
      <trkpt lat="48.52868" lon="-2.61472">
        <ele>93.3</ele>
        <time>2016-03-23T13:03:07Z</time>
      </trkpt>
      <trkpt lat="48.52857" lon="-2.61473">
        <ele>93.3</ele>
        <time>2016-03-23T13:03:11Z</time>
      </trkpt>
      <trkpt lat="48.52845" lon="-2.61476">
        <ele>93.3</ele>
        <time>2016-03-23T13:03:15Z</time>
      </trkpt>
      <trkpt lat="48.52836" lon="-2.61476">
        <ele>93.3</ele>
        <time>2016-03-23T13:03:18Z</time>
      </trkpt>
      <trkpt lat="48.52824" lon="-2.61476">
        <ele>93.3</ele>
        <time>2016-03-23T13:03:22Z</time>
      </trkpt>
      <trkpt lat="48.52812" lon="-2.61476">
        <ele>93.3</ele>
        <time>2016-03-23T13:03:26Z</time>
      </trkpt>
      <trkpt lat="48.52803" lon="-2.61476">
        <ele>93.3</ele>
        <time>2016-03-23T13:03:29Z</time>
      </trkpt>
      <trkpt lat="48.52792" lon="-2.61478">
        <ele>93.2</ele>
        <time>2016-03-23T13:03:33Z</time>
      </trkpt>
      <trkpt lat="48.52782" lon="-2.6148">
        <ele>93.2</ele>
        <time>2016-03-23T13:03:36Z</time>
      </trkpt>
      <trkpt lat="48.5277" lon="-2.61483">
        <ele>93.2</ele>
        <time>2016-03-23T13:03:39Z</time>
      </trkpt>
      <trkpt lat="48.52758" lon="-2.61486">
        <ele>93.2</ele>
        <time>2016-03-23T13:03:42Z</time>
      </trkpt>
      <trkpt lat="48.52747" lon="-2.61487">
        <ele>93.2</ele>
        <time>2016-03-23T13:03:45Z</time>
      </trkpt>
      <trkpt lat="48.52735" lon="-2.61487">
        <ele>93.2</ele>
        <time>2016-03-23T13:03:48Z</time>
      </trkpt>
      <trkpt lat="48.52722" lon="-2.61485">
        <ele>93.2</ele>
        <time>2016-03-23T13:03:51Z</time>
      </trkpt>
      <trkpt lat="48.5271" lon="-2.61484">
        <ele>93.2</ele>
        <time>2016-03-23T13:03:54Z</time>
      </trkpt>
      <trkpt lat="48.52698" lon="-2.61483">
        <ele>93.2</ele>
        <time>2016-03-23T13:03:57Z</time>
      </trkpt>
      <trkpt lat="48.52687" lon="-2.61481">
        <ele>93.2</ele>
        <time>2016-03-23T13:04:00Z</time>
      </trkpt>
      <trkpt lat="48.52675" lon="-2.61481">
        <ele>93.2</ele>
        <time>2016-03-23T13:04:03Z</time>
      </trkpt>
      <trkpt lat="48.52663" lon="-2.61481">
        <ele>93.2</ele>
        <time>2016-03-23T13:04:06Z</time>
      </trkpt>
      <trkpt lat="48.52652" lon="-2.61482">
        <ele>93.2</ele>
        <time>2016-03-23T13:04:09Z</time>
      </trkpt>
      <trkpt lat="48.5264" lon="-2.61477">
        <ele>93.2</ele>
        <time>2016-03-23T13:04:12Z</time>
      </trkpt>
      <trkpt lat="48.52628" lon="-2.61469">
        <ele>93.2</ele>
        <time>2016-03-23T13:04:15Z</time>
      </trkpt>
      <trkpt lat="48.52619" lon="-2.61463">
        <ele>93.1</ele>
        <time>2016-03-23T13:04:17Z</time>
      </trkpt>
      <trkpt lat="48.52609" lon="-2.61461">
        <ele>92.9</ele>
        <time>2016-03-23T13:04:19Z</time>
      </trkpt>
      <trkpt lat="48.526" lon="-2.61469">
        <ele>92.8</ele>
        <time>2016-03-23T13:04:21Z</time>
      </trkpt>
      <trkpt lat="48.52592" lon="-2.61484">
        <ele>92.6</ele>
        <time>2016-03-23T13:04:24Z</time>
      </trkpt>
      <trkpt lat="48.52581" lon="-2.61494">
        <ele>92.4</ele>
        <time>2016-03-23T13:04:27Z</time>
      </trkpt>
      <trkpt lat="48.52568" lon="-2.61497">
        <ele>92.4</ele>
        <time>2016-03-23T13:04:30Z</time>
      </trkpt>
      <trkpt lat="48.52556" lon="-2.61502">
        <ele>92.5</ele>
        <time>2016-03-23T13:04:33Z</time>
      </trkpt>
      <trkpt lat="48.52543" lon="-2.61509">
        <ele>92.6</ele>
        <time>2016-03-23T13:04:36Z</time>
      </trkpt>
      <trkpt lat="48.52535" lon="-2.61515">
        <ele>92.7</ele>
        <time>2016-03-23T13:04:38Z</time>
      </trkpt>
      <trkpt lat="48.52527" lon="-2.61521">
        <ele>92.7</ele>
        <time>2016-03-23T13:04:40Z</time>
      </trkpt>
      <trkpt lat="48.52518" lon="-2.61526">
        <ele>92.8</ele>
        <time>2016-03-23T13:04:42Z</time>
      </trkpt>
      <trkpt lat="48.52505" lon="-2.61532">
        <ele>92.8</ele>
        <time>2016-03-23T13:04:45Z</time>
      </trkpt>
      <trkpt lat="48.52497" lon="-2.61536">
        <ele>92.9</ele>
        <time>2016-03-23T13:04:47Z</time>
      </trkpt>
      <trkpt lat="48.52484" lon="-2.61542">
        <ele>92.9</ele>
        <time>2016-03-23T13:04:50Z</time>
      </trkpt>
      <trkpt lat="48.52475" lon="-2.61547">
        <ele>93</ele>
        <time>2016-03-23T13:04:52Z</time>
      </trkpt>
      <trkpt lat="48.52466" lon="-2.61552">
        <ele>93.1</ele>
        <time>2016-03-23T13:04:54Z</time>
      </trkpt>
      <trkpt lat="48.52456" lon="-2.61558">
        <ele>93.1</ele>
        <time>2016-03-23T13:04:56Z</time>
      </trkpt>
      <trkpt lat="48.52446" lon="-2.61565">
        <ele>93.2</ele>
        <time>2016-03-23T13:04:58Z</time>
      </trkpt>
      <trkpt lat="48.52436" lon="-2.61571">
        <ele>93.1</ele>
        <time>2016-03-23T13:05:00Z</time>
      </trkpt>
      <trkpt lat="48.52426" lon="-2.61578">
        <ele>93</ele>
        <time>2016-03-23T13:05:02Z</time>
      </trkpt>
      <trkpt lat="48.52416" lon="-2.61585">
        <ele>93</ele>
        <time>2016-03-23T13:05:04Z</time>
      </trkpt>
      <trkpt lat="48.52406" lon="-2.61593">
        <ele>92.9</ele>
        <time>2016-03-23T13:05:06Z</time>
      </trkpt>
      <trkpt lat="48.52395" lon="-2.61602">
        <ele>92.8</ele>
        <time>2016-03-23T13:05:08Z</time>
      </trkpt>
      <trkpt lat="48.52386" lon="-2.61615">
        <ele>92.6</ele>
        <time>2016-03-23T13:05:10Z</time>
      </trkpt>
      <trkpt lat="48.52382" lon="-2.61631">
        <ele>92.4</ele>
        <time>2016-03-23T13:05:12Z</time>
      </trkpt>
      <trkpt lat="48.52377" lon="-2.61645">
        <ele>92.2</ele>
        <time>2016-03-23T13:05:14Z</time>
      </trkpt>
      <trkpt lat="48.52369" lon="-2.61655">
        <ele>92.1</ele>
        <time>2016-03-23T13:05:16Z</time>
      </trkpt>
      <trkpt lat="48.52359" lon="-2.61662">
        <ele>92</ele>
        <time>2016-03-23T13:05:18Z</time>
      </trkpt>
      <trkpt lat="48.5235" lon="-2.6167">
        <ele>91.8</ele>
        <time>2016-03-23T13:05:20Z</time>
      </trkpt>
      <trkpt lat="48.52341" lon="-2.61677">
        <ele>91.6</ele>
        <time>2016-03-23T13:05:22Z</time>
      </trkpt>
      <trkpt lat="48.52331" lon="-2.61685">
        <ele>91.4</ele>
        <time>2016-03-23T13:05:24Z</time>
      </trkpt>
      <trkpt lat="48.52322" lon="-2.61692">
        <ele>91.1</ele>
        <time>2016-03-23T13:05:26Z</time>
      </trkpt>
      <trkpt lat="48.52314" lon="-2.61699">
        <ele>90.8</ele>
        <time>2016-03-23T13:05:28Z</time>
      </trkpt>
      <trkpt lat="48.52304" lon="-2.61706">
        <ele>90.4</ele>
        <time>2016-03-23T13:05:30Z</time>
      </trkpt>
      <trkpt lat="48.52294" lon="-2.61712">
        <ele>89.9</ele>
        <time>2016-03-23T13:05:32Z</time>
      </trkpt>
      <trkpt lat="48.52284" lon="-2.61715">
        <ele>89.4</ele>
        <time>2016-03-23T13:05:34Z</time>
      </trkpt>
      <trkpt lat="48.52275" lon="-2.61722">
        <ele>88.8</ele>
        <time>2016-03-23T13:05:36Z</time>
      </trkpt>
      <trkpt lat="48.52272" lon="-2.61739">
        <ele>87.9</ele>
        <time>2016-03-23T13:05:39Z</time>
      </trkpt>
      <trkpt lat="48.52275" lon="-2.61753">
        <ele>87.1</ele>
        <time>2016-03-23T13:05:41Z</time>
      </trkpt>
      <trkpt lat="48.52278" lon="-2.61769">
        <ele>86.3</ele>
        <time>2016-03-23T13:05:43Z</time>
      </trkpt>
      <trkpt lat="48.52281" lon="-2.61787">
        <ele>85.5</ele>
        <time>2016-03-23T13:05:45Z</time>
      </trkpt>
      <trkpt lat="48.52284" lon="-2.61807">
        <ele>84.7</ele>
        <time>2016-03-23T13:05:47Z</time>
      </trkpt>
      <trkpt lat="48.52286" lon="-2.61827">
        <ele>83.8</ele>
        <time>2016-03-23T13:05:49Z</time>
      </trkpt>
      <trkpt lat="48.52286" lon="-2.61843">
        <ele>82.8</ele>
        <time>2016-03-23T13:05:51Z</time>
      </trkpt>
      <trkpt lat="48.52277" lon="-2.61851">
        <ele>81.7</ele>
        <time>2016-03-23T13:05:53Z</time>
      </trkpt>
      <trkpt lat="48.52264" lon="-2.61852">
        <ele>80.3</ele>
        <time>2016-03-23T13:05:55Z</time>
      </trkpt>
      <trkpt lat="48.5225" lon="-2.61852">
        <ele>79</ele>
        <time>2016-03-23T13:05:57Z</time>
      </trkpt>
      <trkpt lat="48.52233" lon="-2.61853">
        <ele>77.8</ele>
        <time>2016-03-23T13:05:59Z</time>
      </trkpt>
      <trkpt lat="48.52224" lon="-2.61856">
        <ele>77</ele>
        <time>2016-03-23T13:06:00Z</time>
      </trkpt>
      <trkpt lat="48.52215" lon="-2.6186">
        <ele>76.3</ele>
        <time>2016-03-23T13:06:01Z</time>
      </trkpt>
      <trkpt lat="48.52206" lon="-2.61865">
        <ele>75.5</ele>
        <time>2016-03-23T13:06:02Z</time>
      </trkpt>
      <trkpt lat="48.52196" lon="-2.6187">
        <ele>74.7</ele>
        <time>2016-03-23T13:06:03Z</time>
      </trkpt>
      <trkpt lat="48.52188" lon="-2.61874">
        <ele>73.7</ele>
        <time>2016-03-23T13:06:04Z</time>
      </trkpt>
      <trkpt lat="48.52173" lon="-2.61882">
        <ele>72</ele>
        <time>2016-03-23T13:06:06Z</time>
      </trkpt>
      <trkpt lat="48.52166" lon="-2.61894">
        <ele>70.2</ele>
        <time>2016-03-23T13:06:08Z</time>
      </trkpt>
      <trkpt lat="48.52166" lon="-2.61911">
        <ele>68.5</ele>
        <time>2016-03-23T13:06:10Z</time>
      </trkpt>
      <trkpt lat="48.52167" lon="-2.61928">
        <ele>66.8</ele>
        <time>2016-03-23T13:06:12Z</time>
      </trkpt>
      <trkpt lat="48.52159" lon="-2.6194">
        <ele>64.7</ele>
        <time>2016-03-23T13:06:15Z</time>
      </trkpt>
      <trkpt lat="48.52155" lon="-2.61954">
        <ele>62.4</ele>
        <time>2016-03-23T13:06:19Z</time>
      </trkpt>
      <trkpt lat="48.52156" lon="-2.6197">
        <ele>60.9</ele>
        <time>2016-03-23T13:06:22Z</time>
      </trkpt>
      <trkpt lat="48.52159" lon="-2.61984">
        <ele>59.6</ele>
        <time>2016-03-23T13:06:25Z</time>
      </trkpt>
      <trkpt lat="48.52154" lon="-2.61997">
        <ele>57.3</ele>
        <time>2016-03-23T13:06:32Z</time>
      </trkpt>
      <trkpt lat="48.52146" lon="-2.62004">
        <ele>56.6</ele>
        <time>2016-03-23T13:06:35Z</time>
      </trkpt>
      <trkpt lat="48.52136" lon="-2.62012">
        <ele>56</ele>
        <time>2016-03-23T13:06:38Z</time>
      </trkpt>
      <trkpt lat="48.52128" lon="-2.62019">
        <ele>55.6</ele>
        <time>2016-03-23T13:06:40Z</time>
      </trkpt>
      <trkpt lat="48.52118" lon="-2.62025">
        <ele>55.1</ele>
        <time>2016-03-23T13:06:42Z</time>
      </trkpt>
      <trkpt lat="48.52108" lon="-2.62034">
        <ele>54.7</ele>
        <time>2016-03-23T13:06:44Z</time>
      </trkpt>
      <trkpt lat="48.52096" lon="-2.62044">
        <ele>53.9</ele>
        <time>2016-03-23T13:06:46Z</time>
      </trkpt>
      <trkpt lat="48.52082" lon="-2.62053">
        <ele>53</ele>
        <time>2016-03-23T13:06:48Z</time>
      </trkpt>
      <trkpt lat="48.52069" lon="-2.62063">
        <ele>52.1</ele>
        <time>2016-03-23T13:06:50Z</time>
      </trkpt>
      <trkpt lat="48.5206" lon="-2.62069">
        <ele>51.2</ele>
        <time>2016-03-23T13:06:52Z</time>
      </trkpt>
      <trkpt lat="48.52054" lon="-2.62081">
        <ele>49.8</ele>
        <time>2016-03-23T13:06:55Z</time>
      </trkpt>
      <trkpt lat="48.52054" lon="-2.62096">
        <ele>48.4</ele>
        <time>2016-03-23T13:06:58Z</time>
      </trkpt>
      <trkpt lat="48.52062" lon="-2.62109">
        <ele>46.3</ele>
        <time>2016-03-23T13:07:03Z</time>
      </trkpt>
      <trkpt lat="48.52071" lon="-2.62116">
        <ele>44.9</ele>
        <time>2016-03-23T13:07:07Z</time>
      </trkpt>
      <trkpt lat="48.5208" lon="-2.62121">
        <ele>43.3</ele>
        <time>2016-03-23T13:07:14Z</time>
      </trkpt>
      <trkpt lat="48.52091" lon="-2.62124">
        <ele>42.5</ele>
        <time>2016-03-23T13:07:18Z</time>
      </trkpt>
      <trkpt lat="48.52101" lon="-2.62126">
        <ele>41.8</ele>
        <time>2016-03-23T13:07:22Z</time>
      </trkpt>
      <trkpt lat="48.52111" lon="-2.62125">
        <ele>40.5</ele>
        <time>2016-03-23T13:07:30Z</time>
      </trkpt>
      <trkpt lat="48.52121" lon="-2.62126">
        <ele>39.6</ele>
        <time>2016-03-23T13:07:36Z</time>
      </trkpt>
      <trkpt lat="48.52132" lon="-2.6213">
        <ele>38.9</ele>
        <time>2016-03-23T13:07:40Z</time>
      </trkpt>
      <trkpt lat="48.52143" lon="-2.62136">
        <ele>37.3</ele>
        <time>2016-03-23T13:07:45Z</time>
      </trkpt>
      <trkpt lat="48.52152" lon="-2.62142">
        <ele>35.9</ele>
        <time>2016-03-23T13:07:50Z</time>
      </trkpt>
      <trkpt lat="48.52161" lon="-2.62145">
        <ele>34.9</ele>
        <time>2016-03-23T13:07:55Z</time>
      </trkpt>
      <trkpt lat="48.5217" lon="-2.62144">
        <ele>33.2</ele>
        <time>2016-03-23T13:08:31Z</time>
      </trkpt>
      <trkpt lat="48.52181" lon="-2.62141">
        <ele>33.6</ele>
        <time>2016-03-23T13:08:38Z</time>
      </trkpt>
      <trkpt lat="48.5219" lon="-2.62141">
        <ele>34.1</ele>
        <time>2016-03-23T13:08:43Z</time>
      </trkpt>
      <trkpt lat="48.522" lon="-2.62141">
        <ele>35</ele>
        <time>2016-03-23T13:08:49Z</time>
      </trkpt>
      <trkpt lat="48.5221" lon="-2.62138">
        <ele>36</ele>
        <time>2016-03-23T13:08:55Z</time>
      </trkpt>
      <trkpt lat="48.5222" lon="-2.62133">
        <ele>37.1</ele>
        <time>2016-03-23T13:09:01Z</time>
      </trkpt>
      <trkpt lat="48.5223" lon="-2.6213">
        <ele>38.4</ele>
        <time>2016-03-23T13:09:07Z</time>
      </trkpt>
      <trkpt lat="48.52241" lon="-2.62128">
        <ele>39.5</ele>
        <time>2016-03-23T13:09:13Z</time>
      </trkpt>
      <trkpt lat="48.52251" lon="-2.62127">
        <ele>40.7</ele>
        <time>2016-03-23T13:09:19Z</time>
      </trkpt>
      <trkpt lat="48.52261" lon="-2.62128">
        <ele>41.9</ele>
        <time>2016-03-23T13:09:25Z</time>
      </trkpt>
      <trkpt lat="48.52271" lon="-2.62129">
        <ele>43.2</ele>
        <time>2016-03-23T13:09:31Z</time>
      </trkpt>
      <trkpt lat="48.5228" lon="-2.62128">
        <ele>44.8</ele>
        <time>2016-03-23T13:09:39Z</time>
      </trkpt>
      <trkpt lat="48.52289" lon="-2.62125">
        <ele>45.7</ele>
        <time>2016-03-23T13:09:45Z</time>
      </trkpt>
      <trkpt lat="48.523" lon="-2.62123">
        <ele>46.9</ele>
        <time>2016-03-23T13:09:51Z</time>
      </trkpt>
      <trkpt lat="48.5231" lon="-2.62122">
        <ele>46.8</ele>
        <time>2016-03-23T13:09:58Z</time>
      </trkpt>
      <trkpt lat="48.52321" lon="-2.62122">
        <ele>47.5</ele>
        <time>2016-03-23T13:10:04Z</time>
      </trkpt>
      <trkpt lat="48.5233" lon="-2.62122">
        <ele>48.2</ele>
        <time>2016-03-23T13:10:09Z</time>
      </trkpt>
      <trkpt lat="48.5234" lon="-2.62122">
        <ele>48.8</ele>
        <time>2016-03-23T13:10:14Z</time>
      </trkpt>
      <trkpt lat="48.52351" lon="-2.62123">
        <ele>49.4</ele>
        <time>2016-03-23T13:10:19Z</time>
      </trkpt>
      <trkpt lat="48.52362" lon="-2.62125">
        <ele>50.1</ele>
        <time>2016-03-23T13:10:24Z</time>
      </trkpt>
      <trkpt lat="48.52373" lon="-2.62127">
        <ele>50.8</ele>
        <time>2016-03-23T13:10:29Z</time>
      </trkpt>
      <trkpt lat="48.52383" lon="-2.62128">
        <ele>51.5</ele>
        <time>2016-03-23T13:10:34Z</time>
      </trkpt>
      <trkpt lat="48.52392" lon="-2.62128">
        <ele>52.3</ele>
        <time>2016-03-23T13:10:39Z</time>
      </trkpt>
      <trkpt lat="48.52402" lon="-2.62129">
        <ele>53.2</ele>
        <time>2016-03-23T13:10:45Z</time>
      </trkpt>
      <trkpt lat="48.52412" lon="-2.62129">
        <ele>54</ele>
        <time>2016-03-23T13:10:51Z</time>
      </trkpt>
      <trkpt lat="48.52423" lon="-2.62128">
        <ele>54.7</ele>
        <time>2016-03-23T13:10:56Z</time>
      </trkpt>
      <trkpt lat="48.52433" lon="-2.62126">
        <ele>55.3</ele>
        <time>2016-03-23T13:11:01Z</time>
      </trkpt>
      <trkpt lat="48.52443" lon="-2.62125">
        <ele>55.7</ele>
        <time>2016-03-23T13:11:06Z</time>
      </trkpt>
      <trkpt lat="48.52453" lon="-2.62122">
        <ele>56.4</ele>
        <time>2016-03-23T13:11:11Z</time>
      </trkpt>
      <trkpt lat="48.52464" lon="-2.62118">
        <ele>57.2</ele>
        <time>2016-03-23T13:11:16Z</time>
      </trkpt>
      <trkpt lat="48.52474" lon="-2.62115">
        <ele>58.1</ele>
        <time>2016-03-23T13:11:21Z</time>
      </trkpt>
      <trkpt lat="48.52485" lon="-2.62111">
        <ele>58.8</ele>
        <time>2016-03-23T13:11:26Z</time>
      </trkpt>
      <trkpt lat="48.52495" lon="-2.62107">
        <ele>59.4</ele>
        <time>2016-03-23T13:11:30Z</time>
      </trkpt>
      <trkpt lat="48.52504" lon="-2.62104">
        <ele>59.9</ele>
        <time>2016-03-23T13:11:34Z</time>
      </trkpt>
      <trkpt lat="48.52513" lon="-2.62101">
        <ele>60.4</ele>
        <time>2016-03-23T13:11:38Z</time>
      </trkpt>
      <trkpt lat="48.52521" lon="-2.62099">
        <ele>61.1</ele>
        <time>2016-03-23T13:11:42Z</time>
      </trkpt>
      <trkpt lat="48.52533" lon="-2.62096">
        <ele>61.9</ele>
        <time>2016-03-23T13:11:47Z</time>
      </trkpt>
      <trkpt lat="48.52542" lon="-2.62094">
        <ele>62.6</ele>
        <time>2016-03-23T13:11:51Z</time>
      </trkpt>
      <trkpt lat="48.52551" lon="-2.62089">
        <ele>63.5</ele>
        <time>2016-03-23T13:11:56Z</time>
      </trkpt>
      <trkpt lat="48.5256" lon="-2.6208">
        <ele>64.2</ele>
        <time>2016-03-23T13:12:01Z</time>
      </trkpt>
      <trkpt lat="48.52569" lon="-2.62072">
        <ele>64.9</ele>
        <time>2016-03-23T13:12:06Z</time>
      </trkpt>
      <trkpt lat="48.52579" lon="-2.62065">
        <ele>65.6</ele>
        <time>2016-03-23T13:12:11Z</time>
      </trkpt>
      <trkpt lat="48.52588" lon="-2.62059">
        <ele>66.2</ele>
        <time>2016-03-23T13:12:15Z</time>
      </trkpt>
      <trkpt lat="48.52598" lon="-2.62054">
        <ele>66.7</ele>
        <time>2016-03-23T13:12:19Z</time>
      </trkpt>
      <trkpt lat="48.52608" lon="-2.6205">
        <ele>67.1</ele>
        <time>2016-03-23T13:12:23Z</time>
      </trkpt>
      <trkpt lat="48.52617" lon="-2.62045">
        <ele>67.6</ele>
        <time>2016-03-23T13:12:27Z</time>
      </trkpt>
      <trkpt lat="48.52625" lon="-2.62038">
        <ele>68.2</ele>
        <time>2016-03-23T13:12:32Z</time>
      </trkpt>
      <trkpt lat="48.52634" lon="-2.62029">
        <ele>69</ele>
        <time>2016-03-23T13:12:38Z</time>
      </trkpt>
      <trkpt lat="48.52642" lon="-2.62021">
        <ele>69.4</ele>
        <time>2016-03-23T13:12:42Z</time>
      </trkpt>
      <trkpt lat="48.52649" lon="-2.62012">
        <ele>69.8</ele>
        <time>2016-03-23T13:12:46Z</time>
      </trkpt>
      <trkpt lat="48.52655" lon="-2.62003">
        <ele>70.3</ele>
        <time>2016-03-23T13:12:50Z</time>
      </trkpt>
      <trkpt lat="48.52664" lon="-2.61992">
        <ele>71</ele>
        <time>2016-03-23T13:12:55Z</time>
      </trkpt>
      <trkpt lat="48.52673" lon="-2.61985">
        <ele>71.7</ele>
        <time>2016-03-23T13:13:00Z</time>
      </trkpt>
      <trkpt lat="48.52683" lon="-2.61981">
        <ele>72.4</ele>
        <time>2016-03-23T13:13:06Z</time>
      </trkpt>
      <trkpt lat="48.52691" lon="-2.61974">
        <ele>73</ele>
        <time>2016-03-23T13:13:11Z</time>
      </trkpt>
      <trkpt lat="48.527" lon="-2.61968">
        <ele>73.7</ele>
        <time>2016-03-23T13:13:16Z</time>
      </trkpt>
      <trkpt lat="48.52708" lon="-2.61963">
        <ele>74.2</ele>
        <time>2016-03-23T13:13:21Z</time>
      </trkpt>
      <trkpt lat="48.52718" lon="-2.61957">
        <ele>74.6</ele>
        <time>2016-03-23T13:13:25Z</time>
      </trkpt>
      <trkpt lat="48.52728" lon="-2.61952">
        <ele>75</ele>
        <time>2016-03-23T13:13:29Z</time>
      </trkpt>
      <trkpt lat="48.52738" lon="-2.61947">
        <ele>75.4</ele>
        <time>2016-03-23T13:13:33Z</time>
      </trkpt>
      <trkpt lat="48.52747" lon="-2.61943">
        <ele>75.8</ele>
        <time>2016-03-23T13:13:37Z</time>
      </trkpt>
      <trkpt lat="48.52756" lon="-2.6194">
        <ele>76.7</ele>
        <time>2016-03-23T13:13:46Z</time>
      </trkpt>
      <trkpt lat="48.52765" lon="-2.61932">
        <ele>77.6</ele>
        <time>2016-03-23T13:13:58Z</time>
      </trkpt>
      <trkpt lat="48.52774" lon="-2.61926">
        <ele>78.3</ele>
        <time>2016-03-23T13:14:05Z</time>
      </trkpt>
      <trkpt lat="48.5278" lon="-2.61939">
        <ele>79.4</ele>
        <time>2016-03-23T13:14:17Z</time>
      </trkpt>
      <trkpt lat="48.52783" lon="-2.61955">
        <ele>79.6</ele>
        <time>2016-03-23T13:14:21Z</time>
      </trkpt>
      <trkpt lat="48.52786" lon="-2.61972">
        <ele>80</ele>
        <time>2016-03-23T13:14:25Z</time>
      </trkpt>
      <trkpt lat="48.52789" lon="-2.61987">
        <ele>80.4</ele>
        <time>2016-03-23T13:14:29Z</time>
      </trkpt>
      <trkpt lat="48.52791" lon="-2.62003">
        <ele>81</ele>
        <time>2016-03-23T13:14:33Z</time>
      </trkpt>
      <trkpt lat="48.52794" lon="-2.62019">
        <ele>81.7</ele>
        <time>2016-03-23T13:14:37Z</time>
      </trkpt>
      <trkpt lat="48.52797" lon="-2.62035">
        <ele>82.3</ele>
        <time>2016-03-23T13:14:41Z</time>
      </trkpt>
      <trkpt lat="48.52799" lon="-2.62051">
        <ele>83.1</ele>
        <time>2016-03-23T13:14:45Z</time>
      </trkpt>
      <trkpt lat="48.52801" lon="-2.62069">
        <ele>83.8</ele>
        <time>2016-03-23T13:14:49Z</time>
      </trkpt>
      <trkpt lat="48.52802" lon="-2.62082">
        <ele>84.3</ele>
        <time>2016-03-23T13:14:52Z</time>
      </trkpt>
      <trkpt lat="48.52804" lon="-2.621">
        <ele>85</ele>
        <time>2016-03-23T13:14:56Z</time>
      </trkpt>
      <trkpt lat="48.52806" lon="-2.62115">
        <ele>85.5</ele>
        <time>2016-03-23T13:14:59Z</time>
      </trkpt>
      <trkpt lat="48.52807" lon="-2.62132">
        <ele>86</ele>
        <time>2016-03-23T13:15:02Z</time>
      </trkpt>
      <trkpt lat="48.52809" lon="-2.62148">
        <ele>86.4</ele>
        <time>2016-03-23T13:15:05Z</time>
      </trkpt>
      <trkpt lat="48.52811" lon="-2.62166">
        <ele>86.8</ele>
        <time>2016-03-23T13:15:08Z</time>
      </trkpt>
      <trkpt lat="48.52813" lon="-2.62184">
        <ele>87.2</ele>
        <time>2016-03-23T13:15:11Z</time>
      </trkpt>
      <trkpt lat="48.52814" lon="-2.62202">
        <ele>87.4</ele>
        <time>2016-03-23T13:15:14Z</time>
      </trkpt>
      <trkpt lat="48.52817" lon="-2.62221">
        <ele>87.7</ele>
        <time>2016-03-23T13:15:17Z</time>
      </trkpt>
      <trkpt lat="48.52822" lon="-2.62241">
        <ele>87.8</ele>
        <time>2016-03-23T13:15:20Z</time>
      </trkpt>
      <trkpt lat="48.52825" lon="-2.62253">
        <ele>87.9</ele>
        <time>2016-03-23T13:15:22Z</time>
      </trkpt>
      <trkpt lat="48.52828" lon="-2.62266">
        <ele>88</ele>
        <time>2016-03-23T13:15:24Z</time>
      </trkpt>
      <trkpt lat="48.52831" lon="-2.6228">
        <ele>88.1</ele>
        <time>2016-03-23T13:15:26Z</time>
      </trkpt>
      <trkpt lat="48.52835" lon="-2.62293">
        <ele>88.2</ele>
        <time>2016-03-23T13:15:28Z</time>
      </trkpt>
      <trkpt lat="48.52839" lon="-2.62307">
        <ele>88.1</ele>
        <time>2016-03-23T13:15:30Z</time>
      </trkpt>
      <trkpt lat="48.52844" lon="-2.6232">
        <ele>88</ele>
        <time>2016-03-23T13:15:32Z</time>
      </trkpt>
      <trkpt lat="48.5285" lon="-2.62334">
        <ele>87.9</ele>
        <time>2016-03-23T13:15:34Z</time>
      </trkpt>
      <trkpt lat="48.52857" lon="-2.62349">
        <ele>87.6</ele>
        <time>2016-03-23T13:15:36Z</time>
      </trkpt>
      <trkpt lat="48.52865" lon="-2.62366">
        <ele>87.3</ele>
        <time>2016-03-23T13:15:38Z</time>
      </trkpt>
      <trkpt lat="48.52873" lon="-2.62384">
        <ele>86.7</ele>
        <time>2016-03-23T13:15:40Z</time>
      </trkpt>
      <trkpt lat="48.52881" lon="-2.62408">
        <ele>86.1</ele>
        <time>2016-03-23T13:15:42Z</time>
      </trkpt>
      <trkpt lat="48.52885" lon="-2.62421">
        <ele>85.6</ele>
        <time>2016-03-23T13:15:43Z</time>
      </trkpt>
      <trkpt lat="48.52889" lon="-2.62435">
        <ele>85.1</ele>
        <time>2016-03-23T13:15:44Z</time>
      </trkpt>
      <trkpt lat="48.52892" lon="-2.6245">
        <ele>84.5</ele>
        <time>2016-03-23T13:15:45Z</time>
      </trkpt>
      <trkpt lat="48.52896" lon="-2.62466">
        <ele>83.9</ele>
        <time>2016-03-23T13:15:46Z</time>
      </trkpt>
      <trkpt lat="48.52899" lon="-2.62482">
        <ele>83.2</ele>
        <time>2016-03-23T13:15:47Z</time>
      </trkpt>
      <trkpt lat="48.52902" lon="-2.625">
        <ele>82.5</ele>
        <time>2016-03-23T13:15:48Z</time>
      </trkpt>
      <trkpt lat="48.52905" lon="-2.62517">
        <ele>81.6</ele>
        <time>2016-03-23T13:15:49Z</time>
      </trkpt>
      <trkpt lat="48.52908" lon="-2.62535">
        <ele>80.8</ele>
        <time>2016-03-23T13:15:50Z</time>
      </trkpt>
      <trkpt lat="48.52912" lon="-2.62553">
        <ele>79.9</ele>
        <time>2016-03-23T13:15:51Z</time>
      </trkpt>
      <trkpt lat="48.52914" lon="-2.62572">
        <ele>79.1</ele>
        <time>2016-03-23T13:15:52Z</time>
      </trkpt>
      <trkpt lat="48.52916" lon="-2.6259">
        <ele>78.3</ele>
        <time>2016-03-23T13:15:53Z</time>
      </trkpt>
      <trkpt lat="48.52918" lon="-2.62609">
        <ele>77.4</ele>
        <time>2016-03-23T13:15:54Z</time>
      </trkpt>
      <trkpt lat="48.52919" lon="-2.62627">
        <ele>76.6</ele>
        <time>2016-03-23T13:15:55Z</time>
      </trkpt>
      <trkpt lat="48.5292" lon="-2.62644">
        <ele>75.8</ele>
        <time>2016-03-23T13:15:56Z</time>
      </trkpt>
      <trkpt lat="48.52922" lon="-2.62662">
        <ele>75</ele>
        <time>2016-03-23T13:15:57Z</time>
      </trkpt>
      <trkpt lat="48.52923" lon="-2.62678">
        <ele>74.2</ele>
        <time>2016-03-23T13:15:58Z</time>
      </trkpt>
      <trkpt lat="48.52925" lon="-2.62694">
        <ele>73.4</ele>
        <time>2016-03-23T13:15:59Z</time>
      </trkpt>
      <trkpt lat="48.52927" lon="-2.62709">
        <ele>72.6</ele>
        <time>2016-03-23T13:16:00Z</time>
      </trkpt>
      <trkpt lat="48.52929" lon="-2.62724">
        <ele>71.8</ele>
        <time>2016-03-23T13:16:01Z</time>
      </trkpt>
      <trkpt lat="48.52932" lon="-2.62739">
        <ele>71.1</ele>
        <time>2016-03-23T13:16:02Z</time>
      </trkpt>
      <trkpt lat="48.52935" lon="-2.62754">
        <ele>70.3</ele>
        <time>2016-03-23T13:16:03Z</time>
      </trkpt>
      <trkpt lat="48.52939" lon="-2.62768">
        <ele>69.5</ele>
        <time>2016-03-23T13:16:04Z</time>
      </trkpt>
      <trkpt lat="48.52942" lon="-2.62782">
        <ele>68.8</ele>
        <time>2016-03-23T13:16:05Z</time>
      </trkpt>
      <trkpt lat="48.52947" lon="-2.62795">
        <ele>68</ele>
        <time>2016-03-23T13:16:06Z</time>
      </trkpt>
      <trkpt lat="48.52951" lon="-2.62808">
        <ele>67.3</ele>
        <time>2016-03-23T13:16:07Z</time>
      </trkpt>
      <trkpt lat="48.52956" lon="-2.62821">
        <ele>66.6</ele>
        <time>2016-03-23T13:16:08Z</time>
      </trkpt>
      <trkpt lat="48.52961" lon="-2.62834">
        <ele>65.9</ele>
        <time>2016-03-23T13:16:09Z</time>
      </trkpt>
      <trkpt lat="48.52966" lon="-2.62846">
        <ele>65.1</ele>
        <time>2016-03-23T13:16:10Z</time>
      </trkpt>
      <trkpt lat="48.52971" lon="-2.62858">
        <ele>64.4</ele>
        <time>2016-03-23T13:16:11Z</time>
      </trkpt>
      <trkpt lat="48.52977" lon="-2.62869">
        <ele>63.7</ele>
        <time>2016-03-23T13:16:12Z</time>
      </trkpt>
      <trkpt lat="48.52982" lon="-2.62881">
        <ele>63</ele>
        <time>2016-03-23T13:16:13Z</time>
      </trkpt>
      <trkpt lat="48.52987" lon="-2.62893">
        <ele>62.3</ele>
        <time>2016-03-23T13:16:14Z</time>
      </trkpt>
      <trkpt lat="48.52991" lon="-2.62906">
        <ele>61.5</ele>
        <time>2016-03-23T13:16:15Z</time>
      </trkpt>
      <trkpt lat="48.52996" lon="-2.62919">
        <ele>60.7</ele>
        <time>2016-03-23T13:16:16Z</time>
      </trkpt>
      <trkpt lat="48.52999" lon="-2.62933">
        <ele>59.9</ele>
        <time>2016-03-23T13:16:17Z</time>
      </trkpt>
      <trkpt lat="48.53001" lon="-2.62948">
        <ele>59.1</ele>
        <time>2016-03-23T13:16:18Z</time>
      </trkpt>
      <trkpt lat="48.53003" lon="-2.62964">
        <ele>58.3</ele>
        <time>2016-03-23T13:16:19Z</time>
      </trkpt>
      <trkpt lat="48.53003" lon="-2.6298">
        <ele>57.4</ele>
        <time>2016-03-23T13:16:20Z</time>
      </trkpt>
      <trkpt lat="48.53002" lon="-2.62998">
        <ele>56.5</ele>
        <time>2016-03-23T13:16:21Z</time>
      </trkpt>
      <trkpt lat="48.53002" lon="-2.63016">
        <ele>55.5</ele>
        <time>2016-03-23T13:16:22Z</time>
      </trkpt>
      <trkpt lat="48.53001" lon="-2.63035">
        <ele>54.4</ele>
        <time>2016-03-23T13:16:23Z</time>
      </trkpt>
      <trkpt lat="48.52999" lon="-2.63056">
        <ele>53.2</ele>
        <time>2016-03-23T13:16:24Z</time>
      </trkpt>
      <trkpt lat="48.52997" lon="-2.63077">
        <ele>51.9</ele>
        <time>2016-03-23T13:16:25Z</time>
      </trkpt>
      <trkpt lat="48.52994" lon="-2.63099">
        <ele>50.6</ele>
        <time>2016-03-23T13:16:26Z</time>
      </trkpt>
      <trkpt lat="48.5299" lon="-2.63122">
        <ele>49</ele>
        <time>2016-03-23T13:16:27Z</time>
      </trkpt>
      <trkpt lat="48.52987" lon="-2.63143">
        <ele>47.4</ele>
        <time>2016-03-23T13:16:28Z</time>
      </trkpt>
      <trkpt lat="48.52984" lon="-2.63162">
        <ele>45.8</ele>
        <time>2016-03-23T13:16:29Z</time>
      </trkpt>
      <trkpt lat="48.52981" lon="-2.63179">
        <ele>44.1</ele>
        <time>2016-03-23T13:16:30Z</time>
      </trkpt>
      <trkpt lat="48.52978" lon="-2.63194">
        <ele>42.4</ele>
        <time>2016-03-23T13:16:31Z</time>
      </trkpt>
      <trkpt lat="48.52974" lon="-2.63218">
        <ele>39</ele>
        <time>2016-03-23T13:16:33Z</time>
      </trkpt>
      <trkpt lat="48.52973" lon="-2.63233">
        <ele>35.8</ele>
        <time>2016-03-23T13:16:35Z</time>
      </trkpt>
      <trkpt lat="48.52978" lon="-2.63248">
        <ele>31.5</ele>
        <time>2016-03-23T13:16:38Z</time>
      </trkpt>
      <trkpt lat="48.52979" lon="-2.63265">
        <ele>27.8</ele>
        <time>2016-03-23T13:16:41Z</time>
      </trkpt>
      <trkpt lat="48.52978" lon="-2.6328">
        <ele>24.9</ele>
        <time>2016-03-23T13:16:44Z</time>
      </trkpt>
      <trkpt lat="48.5298" lon="-2.63294">
        <ele>22.6</ele>
        <time>2016-03-23T13:16:47Z</time>
      </trkpt>
      <trkpt lat="48.52982" lon="-2.63308">
        <ele>20.9</ele>
        <time>2016-03-23T13:16:50Z</time>
      </trkpt>
      <trkpt lat="48.52977" lon="-2.63322">
        <ele>19.4</ele>
        <time>2016-03-23T13:16:55Z</time>
      </trkpt>
      <trkpt lat="48.52971" lon="-2.63333">
        <ele>18.7</ele>
        <time>2016-03-23T13:17:00Z</time>
      </trkpt>
      <trkpt lat="48.5298" lon="-2.63325">
        <ele>18</ele>
        <time>2016-03-23T13:18:23Z</time>
      </trkpt>
      <trkpt lat="48.5299" lon="-2.63322">
        <ele>17.9</ele>
        <time>2016-03-23T13:18:27Z</time>
      </trkpt>
      <trkpt lat="48.53" lon="-2.63318">
        <ele>17.6</ele>
        <time>2016-03-23T13:18:31Z</time>
      </trkpt>
      <trkpt lat="48.53009" lon="-2.63315">
        <ele>17.3</ele>
        <time>2016-03-23T13:18:36Z</time>
      </trkpt>
      <trkpt lat="48.53018" lon="-2.6331">
        <ele>17.2</ele>
        <time>2016-03-23T13:18:40Z</time>
      </trkpt>
      <trkpt lat="48.53028" lon="-2.63304">
        <ele>17.4</ele>
        <time>2016-03-23T13:18:44Z</time>
      </trkpt>
      <trkpt lat="48.53037" lon="-2.63297">
        <ele>18.6</ele>
        <time>2016-03-23T13:18:49Z</time>
      </trkpt>
      <trkpt lat="48.53046" lon="-2.63293">
        <ele>20.5</ele>
        <time>2016-03-23T13:18:55Z</time>
      </trkpt>
      <trkpt lat="48.53055" lon="-2.63301">
        <ele>25</ele>
        <time>2016-03-23T13:19:12Z</time>
      </trkpt>
      <trkpt lat="48.53065" lon="-2.63306">
        <ele>25.6</ele>
        <time>2016-03-23T13:19:17Z</time>
      </trkpt>
      <trkpt lat="48.53075" lon="-2.63307">
        <ele>25.9</ele>
        <time>2016-03-23T13:19:20Z</time>
      </trkpt>
      <trkpt lat="48.53083" lon="-2.633">
        <ele>26.1</ele>
        <time>2016-03-23T13:19:23Z</time>
      </trkpt>
      <trkpt lat="48.53092" lon="-2.63293">
        <ele>26.3</ele>
        <time>2016-03-23T13:19:26Z</time>
      </trkpt>
      <trkpt lat="48.53103" lon="-2.63285">
        <ele>26.4</ele>
        <time>2016-03-23T13:19:29Z</time>
      </trkpt>
      <trkpt lat="48.53112" lon="-2.63279">
        <ele>26.3</ele>
        <time>2016-03-23T13:19:31Z</time>
      </trkpt>
      <trkpt lat="48.53121" lon="-2.63273">
        <ele>26.3</ele>
        <time>2016-03-23T13:19:33Z</time>
      </trkpt>
      <trkpt lat="48.5313" lon="-2.63268">
        <ele>26.2</ele>
        <time>2016-03-23T13:19:35Z</time>
      </trkpt>
      <trkpt lat="48.53142" lon="-2.63262">
        <ele>26</ele>
        <time>2016-03-23T13:19:38Z</time>
      </trkpt>
      <trkpt lat="48.5315" lon="-2.63257">
        <ele>25.8</ele>
        <time>2016-03-23T13:19:41Z</time>
      </trkpt>
      <trkpt lat="48.53159" lon="-2.63252">
        <ele>25.6</ele>
        <time>2016-03-23T13:19:45Z</time>
      </trkpt>
      <trkpt lat="48.53169" lon="-2.63245">
        <ele>25.6</ele>
        <time>2016-03-23T13:19:49Z</time>
      </trkpt>
      <trkpt lat="48.53179" lon="-2.63237">
        <ele>25.8</ele>
        <time>2016-03-23T13:19:53Z</time>
      </trkpt>
      <trkpt lat="48.53189" lon="-2.63228">
        <ele>26.2</ele>
        <time>2016-03-23T13:19:57Z</time>
      </trkpt>
      <trkpt lat="48.53198" lon="-2.63223">
        <ele>26.7</ele>
        <time>2016-03-23T13:20:00Z</time>
      </trkpt>
      <trkpt lat="48.53208" lon="-2.63222">
        <ele>27.1</ele>
        <time>2016-03-23T13:20:03Z</time>
      </trkpt>
      <trkpt lat="48.53218" lon="-2.63218">
        <ele>27.6</ele>
        <time>2016-03-23T13:20:06Z</time>
      </trkpt>
      <trkpt lat="48.53227" lon="-2.63217">
        <ele>28.1</ele>
        <time>2016-03-23T13:20:09Z</time>
      </trkpt>
      <trkpt lat="48.53237" lon="-2.63212">
        <ele>28.5</ele>
        <time>2016-03-23T13:20:12Z</time>
      </trkpt>
      <trkpt lat="48.53246" lon="-2.63207">
        <ele>29</ele>
        <time>2016-03-23T13:20:15Z</time>
      </trkpt>
      <trkpt lat="48.53255" lon="-2.63197">
        <ele>29.4</ele>
        <time>2016-03-23T13:20:18Z</time>
      </trkpt>
      <trkpt lat="48.53261" lon="-2.63187">
        <ele>29.7</ele>
        <time>2016-03-23T13:20:21Z</time>
      </trkpt>
      <trkpt lat="48.53264" lon="-2.63175">
        <ele>30</ele>
        <time>2016-03-23T13:20:24Z</time>
      </trkpt>
      <trkpt lat="48.53267" lon="-2.63161">
        <ele>30.2</ele>
        <time>2016-03-23T13:20:27Z</time>
      </trkpt>
      <trkpt lat="48.53269" lon="-2.63148">
        <ele>30.4</ele>
        <time>2016-03-23T13:20:30Z</time>
      </trkpt>
      <trkpt lat="48.53278" lon="-2.63136">
        <ele>30.9</ele>
        <time>2016-03-23T13:20:34Z</time>
      </trkpt>
      <trkpt lat="48.53289" lon="-2.63137">
        <ele>31.2</ele>
        <time>2016-03-23T13:20:37Z</time>
      </trkpt>
      <trkpt lat="48.53302" lon="-2.63137">
        <ele>31.4</ele>
        <time>2016-03-23T13:20:40Z</time>
      </trkpt>
      <trkpt lat="48.53311" lon="-2.63137">
        <ele>31.5</ele>
        <time>2016-03-23T13:20:43Z</time>
      </trkpt>
      <trkpt lat="48.53323" lon="-2.63135">
        <ele>31.7</ele>
        <time>2016-03-23T13:20:47Z</time>
      </trkpt>
      <trkpt lat="48.53333" lon="-2.63136">
        <ele>31.8</ele>
        <time>2016-03-23T13:20:50Z</time>
      </trkpt>
      <trkpt lat="48.53344" lon="-2.63135">
        <ele>32</ele>
        <time>2016-03-23T13:20:54Z</time>
      </trkpt>
      <trkpt lat="48.53354" lon="-2.63136">
        <ele>32.2</ele>
        <time>2016-03-23T13:20:57Z</time>
      </trkpt>
      <trkpt lat="48.53363" lon="-2.63135">
        <ele>32.4</ele>
        <time>2016-03-23T13:21:00Z</time>
      </trkpt>
      <trkpt lat="48.53372" lon="-2.63131">
        <ele>32.6</ele>
        <time>2016-03-23T13:21:03Z</time>
      </trkpt>
      <trkpt lat="48.53382" lon="-2.63126">
        <ele>33</ele>
        <time>2016-03-23T13:21:06Z</time>
      </trkpt>
      <trkpt lat="48.53394" lon="-2.63123">
        <ele>33.2</ele>
        <time>2016-03-23T13:21:09Z</time>
      </trkpt>
      <trkpt lat="48.53404" lon="-2.63121">
        <ele>33.4</ele>
        <time>2016-03-23T13:21:11Z</time>
      </trkpt>
      <trkpt lat="48.53417" lon="-2.63119">
        <ele>33.6</ele>
        <time>2016-03-23T13:21:14Z</time>
      </trkpt>
      <trkpt lat="48.53426" lon="-2.63121">
        <ele>33.4</ele>
        <time>2016-03-23T13:21:19Z</time>
      </trkpt>
      <trkpt lat="48.53435" lon="-2.63128">
        <ele>33.3</ele>
        <time>2016-03-23T13:21:24Z</time>
      </trkpt>
      <trkpt lat="48.53444" lon="-2.63133">
        <ele>33</ele>
        <time>2016-03-23T13:21:27Z</time>
      </trkpt>
      <trkpt lat="48.53446" lon="-2.63146">
        <ele>30.7</ele>
        <time>2016-03-23T13:21:37Z</time>
      </trkpt>
      <trkpt lat="48.53457" lon="-2.6315">
        <ele>28.7</ele>
        <time>2016-03-23T13:21:45Z</time>
      </trkpt>
      <trkpt lat="48.53468" lon="-2.63151">
        <ele>27.1</ele>
        <time>2016-03-23T13:21:49Z</time>
      </trkpt>
      <trkpt lat="48.53477" lon="-2.63157">
        <ele>23.7</ele>
        <time>2016-03-23T13:21:57Z</time>
      </trkpt>
      <trkpt lat="48.53489" lon="-2.63164">
        <ele>22.3</ele>
        <time>2016-03-23T13:22:00Z</time>
      </trkpt>
      <trkpt lat="48.53499" lon="-2.63165">
        <ele>20.5</ele>
        <time>2016-03-23T13:22:04Z</time>
      </trkpt>
      <trkpt lat="48.53508" lon="-2.63158">
        <ele>17.9</ele>
        <time>2016-03-23T13:22:11Z</time>
      </trkpt>
      <trkpt lat="48.53517" lon="-2.63159">
        <ele>16.9</ele>
        <time>2016-03-23T13:22:15Z</time>
      </trkpt>
      <trkpt lat="48.53526" lon="-2.63157">
        <ele>16.5</ele>
        <time>2016-03-23T13:22:18Z</time>
      </trkpt>
      <trkpt lat="48.53536" lon="-2.63162">
        <ele>16.4</ele>
        <time>2016-03-23T13:22:21Z</time>
      </trkpt>
      <trkpt lat="48.53548" lon="-2.63171">
        <ele>16.3</ele>
        <time>2016-03-23T13:22:24Z</time>
      </trkpt>
      <trkpt lat="48.53559" lon="-2.63177">
        <ele>16.3</ele>
        <time>2016-03-23T13:22:27Z</time>
      </trkpt>
      <trkpt lat="48.5357" lon="-2.6318">
        <ele>16.2</ele>
        <time>2016-03-23T13:22:30Z</time>
      </trkpt>
      <trkpt lat="48.53581" lon="-2.63178">
        <ele>16.2</ele>
        <time>2016-03-23T13:22:33Z</time>
      </trkpt>
      <trkpt lat="48.53591" lon="-2.63168">
        <ele>16.1</ele>
        <time>2016-03-23T13:22:36Z</time>
      </trkpt>
      <trkpt lat="48.53599" lon="-2.63154">
        <ele>15.8</ele>
        <time>2016-03-23T13:22:39Z</time>
      </trkpt>
      <trkpt lat="48.53601" lon="-2.63141">
        <ele>15.5</ele>
        <time>2016-03-23T13:22:43Z</time>
      </trkpt>
      <trkpt lat="48.536" lon="-2.63126">
        <ele>15.3</ele>
        <time>2016-03-23T13:22:49Z</time>
      </trkpt>
      <trkpt lat="48.53602" lon="-2.63111">
        <ele>15.2</ele>
        <time>2016-03-23T13:22:53Z</time>
      </trkpt>
      <trkpt lat="48.53604" lon="-2.63095">
        <ele>15.4</ele>
        <time>2016-03-23T13:22:57Z</time>
      </trkpt>
      <trkpt lat="48.53606" lon="-2.63079">
        <ele>15.8</ele>
        <time>2016-03-23T13:23:01Z</time>
      </trkpt>
      <trkpt lat="48.53607" lon="-2.63064">
        <ele>16.4</ele>
        <time>2016-03-23T13:23:05Z</time>
      </trkpt>
      <trkpt lat="48.53608" lon="-2.63048">
        <ele>17</ele>
        <time>2016-03-23T13:23:09Z</time>
      </trkpt>
      <trkpt lat="48.53608" lon="-2.63032">
        <ele>17.8</ele>
        <time>2016-03-23T13:23:13Z</time>
      </trkpt>
      <trkpt lat="48.53605" lon="-2.63015">
        <ele>18.7</ele>
        <time>2016-03-23T13:23:17Z</time>
      </trkpt>
      <trkpt lat="48.53603" lon="-2.62999">
        <ele>19.5</ele>
        <time>2016-03-23T13:23:21Z</time>
      </trkpt>
      <trkpt lat="48.53601" lon="-2.62982">
        <ele>20.4</ele>
        <time>2016-03-23T13:23:25Z</time>
      </trkpt>
      <trkpt lat="48.53599" lon="-2.62964">
        <ele>21.3</ele>
        <time>2016-03-23T13:23:29Z</time>
      </trkpt>
      <trkpt lat="48.53598" lon="-2.62946">
        <ele>22.1</ele>
        <time>2016-03-23T13:23:33Z</time>
      </trkpt>
      <trkpt lat="48.53598" lon="-2.62928">
        <ele>22.9</ele>
        <time>2016-03-23T13:23:37Z</time>
      </trkpt>
      <trkpt lat="48.53599" lon="-2.62913">
        <ele>23.6</ele>
        <time>2016-03-23T13:23:40Z</time>
      </trkpt>
      <trkpt lat="48.536" lon="-2.62899">
        <ele>24.2</ele>
        <time>2016-03-23T13:23:43Z</time>
      </trkpt>
      <trkpt lat="48.53602" lon="-2.62885">
        <ele>24.8</ele>
        <time>2016-03-23T13:23:46Z</time>
      </trkpt>
      <trkpt lat="48.53602" lon="-2.62867">
        <ele>25.6</ele>
        <time>2016-03-23T13:23:50Z</time>
      </trkpt>
      <trkpt lat="48.53605" lon="-2.62852">
        <ele>26.5</ele>
        <time>2016-03-23T13:23:54Z</time>
      </trkpt>
      <trkpt lat="48.53611" lon="-2.62835">
        <ele>27.3</ele>
        <time>2016-03-23T13:23:58Z</time>
      </trkpt>
      <trkpt lat="48.53616" lon="-2.62822">
        <ele>27.9</ele>
        <time>2016-03-23T13:24:01Z</time>
      </trkpt>
      <trkpt lat="48.53622" lon="-2.62809">
        <ele>28.3</ele>
        <time>2016-03-23T13:24:04Z</time>
      </trkpt>
      <trkpt lat="48.53629" lon="-2.62795">
        <ele>28.8</ele>
        <time>2016-03-23T13:24:07Z</time>
      </trkpt>
      <trkpt lat="48.53632" lon="-2.62778">
        <ele>29.2</ele>
        <time>2016-03-23T13:24:10Z</time>
      </trkpt>
      <trkpt lat="48.53631" lon="-2.62762">
        <ele>29.6</ele>
        <time>2016-03-23T13:24:13Z</time>
      </trkpt>
      <trkpt lat="48.53629" lon="-2.62746">
        <ele>30.2</ele>
        <time>2016-03-23T13:24:17Z</time>
      </trkpt>
      <trkpt lat="48.53622" lon="-2.62737">
        <ele>30.8</ele>
        <time>2016-03-23T13:24:20Z</time>
      </trkpt>
      <trkpt lat="48.53612" lon="-2.62727">
        <ele>31.6</ele>
        <time>2016-03-23T13:24:24Z</time>
      </trkpt>
      <trkpt lat="48.53603" lon="-2.62718">
        <ele>32.8</ele>
        <time>2016-03-23T13:24:29Z</time>
      </trkpt>
      <trkpt lat="48.53593" lon="-2.62708">
        <ele>33.7</ele>
        <time>2016-03-23T13:24:33Z</time>
      </trkpt>
      <trkpt lat="48.53584" lon="-2.62701">
        <ele>34.5</ele>
        <time>2016-03-23T13:24:36Z</time>
      </trkpt>
      <trkpt lat="48.53575" lon="-2.62693">
        <ele>35.3</ele>
        <time>2016-03-23T13:24:39Z</time>
      </trkpt>
      <trkpt lat="48.53567" lon="-2.62685">
        <ele>36</ele>
        <time>2016-03-23T13:24:42Z</time>
      </trkpt>
      <trkpt lat="48.53559" lon="-2.62677">
        <ele>36.8</ele>
        <time>2016-03-23T13:24:45Z</time>
      </trkpt>
      <trkpt lat="48.53551" lon="-2.62669">
        <ele>37.6</ele>
        <time>2016-03-23T13:24:48Z</time>
      </trkpt>
      <trkpt lat="48.53543" lon="-2.6266">
        <ele>38.3</ele>
        <time>2016-03-23T13:24:51Z</time>
      </trkpt>
      <trkpt lat="48.53536" lon="-2.62649">
        <ele>39.1</ele>
        <time>2016-03-23T13:24:54Z</time>
      </trkpt>
      <trkpt lat="48.53532" lon="-2.62635">
        <ele>39.8</ele>
        <time>2016-03-23T13:24:57Z</time>
      </trkpt>
      <trkpt lat="48.53529" lon="-2.62621">
        <ele>40.5</ele>
        <time>2016-03-23T13:25:00Z</time>
      </trkpt>
      <trkpt lat="48.53528" lon="-2.62607">
        <ele>41.3</ele>
        <time>2016-03-23T13:25:03Z</time>
      </trkpt>
      <trkpt lat="48.53527" lon="-2.62589">
        <ele>42.5</ele>
        <time>2016-03-23T13:25:07Z</time>
      </trkpt>
      <trkpt lat="48.53525" lon="-2.62571">
        <ele>43.5</ele>
        <time>2016-03-23T13:25:11Z</time>
      </trkpt>
      <trkpt lat="48.53522" lon="-2.62554">
        <ele>44.6</ele>
        <time>2016-03-23T13:25:15Z</time>
      </trkpt>
      <trkpt lat="48.53517" lon="-2.62539">
        <ele>45.7</ele>
        <time>2016-03-23T13:25:19Z</time>
      </trkpt>
      <trkpt lat="48.5351" lon="-2.62526">
        <ele>46.8</ele>
        <time>2016-03-23T13:25:23Z</time>
      </trkpt>
      <trkpt lat="48.53505" lon="-2.62515">
        <ele>49</ele>
        <time>2016-03-23T13:25:31Z</time>
      </trkpt>
      <trkpt lat="48.53514" lon="-2.62507">
        <ele>51.4</ele>
        <time>2016-03-23T13:25:46Z</time>
      </trkpt>
      <trkpt lat="48.53523" lon="-2.62497">
        <ele>51.7</ele>
        <time>2016-03-23T13:25:50Z</time>
      </trkpt>
      <trkpt lat="48.53531" lon="-2.62489">
        <ele>52</ele>
        <time>2016-03-23T13:25:53Z</time>
      </trkpt>
      <trkpt lat="48.5354" lon="-2.62482">
        <ele>52.3</ele>
        <time>2016-03-23T13:25:56Z</time>
      </trkpt>
      <trkpt lat="48.53551" lon="-2.62478">
        <ele>52.8</ele>
        <time>2016-03-23T13:26:00Z</time>
      </trkpt>
      <trkpt lat="48.53561" lon="-2.62477">
        <ele>53.2</ele>
        <time>2016-03-23T13:26:03Z</time>
      </trkpt>
      <trkpt lat="48.5357" lon="-2.62476">
        <ele>53.5</ele>
        <time>2016-03-23T13:26:06Z</time>
      </trkpt>
      <trkpt lat="48.53579" lon="-2.62475">
        <ele>53.9</ele>
        <time>2016-03-23T13:26:09Z</time>
      </trkpt>
      <trkpt lat="48.5359" lon="-2.62475">
        <ele>54.3</ele>
        <time>2016-03-23T13:26:12Z</time>
      </trkpt>
      <trkpt lat="48.536" lon="-2.62475">
        <ele>54.7</ele>
        <time>2016-03-23T13:26:15Z</time>
      </trkpt>
      <trkpt lat="48.5361" lon="-2.62475">
        <ele>55.1</ele>
        <time>2016-03-23T13:26:18Z</time>
      </trkpt>
      <trkpt lat="48.53622" lon="-2.62477">
        <ele>55.5</ele>
        <time>2016-03-23T13:26:21Z</time>
      </trkpt>
      <trkpt lat="48.53634" lon="-2.62477">
        <ele>55.8</ele>
        <time>2016-03-23T13:26:24Z</time>
      </trkpt>
      <trkpt lat="48.53646" lon="-2.62477">
        <ele>56</ele>
        <time>2016-03-23T13:26:27Z</time>
      </trkpt>
      <trkpt lat="48.53659" lon="-2.62475">
        <ele>56.3</ele>
        <time>2016-03-23T13:26:30Z</time>
      </trkpt>
      <trkpt lat="48.53672" lon="-2.62474">
        <ele>56.7</ele>
        <time>2016-03-23T13:26:33Z</time>
      </trkpt>
      <trkpt lat="48.53681" lon="-2.62474">
        <ele>56.8</ele>
        <time>2016-03-23T13:26:35Z</time>
      </trkpt>
      <trkpt lat="48.53691" lon="-2.62473">
        <ele>57</ele>
        <time>2016-03-23T13:26:37Z</time>
      </trkpt>
      <trkpt lat="48.53702" lon="-2.62472">
        <ele>57</ele>
        <time>2016-03-23T13:26:39Z</time>
      </trkpt>
      <trkpt lat="48.53714" lon="-2.62471">
        <ele>56.9</ele>
        <time>2016-03-23T13:26:41Z</time>
      </trkpt>
      <trkpt lat="48.53726" lon="-2.6247">
        <ele>56.8</ele>
        <time>2016-03-23T13:26:43Z</time>
      </trkpt>
      <trkpt lat="48.53739" lon="-2.62467">
        <ele>56.5</ele>
        <time>2016-03-23T13:26:45Z</time>
      </trkpt>
      <trkpt lat="48.53751" lon="-2.62463">
        <ele>56.1</ele>
        <time>2016-03-23T13:26:47Z</time>
      </trkpt>
      <trkpt lat="48.53765" lon="-2.62459">
        <ele>55.7</ele>
        <time>2016-03-23T13:26:49Z</time>
      </trkpt>
      <trkpt lat="48.53777" lon="-2.62456">
        <ele>55.3</ele>
        <time>2016-03-23T13:26:51Z</time>
      </trkpt>
      <trkpt lat="48.5379" lon="-2.62451">
        <ele>54.9</ele>
        <time>2016-03-23T13:26:53Z</time>
      </trkpt>
      <trkpt lat="48.53803" lon="-2.62446">
        <ele>54.5</ele>
        <time>2016-03-23T13:26:55Z</time>
      </trkpt>
      <trkpt lat="48.53816" lon="-2.62441">
        <ele>54.1</ele>
        <time>2016-03-23T13:26:57Z</time>
      </trkpt>
      <trkpt lat="48.53826" lon="-2.62435">
        <ele>53.6</ele>
        <time>2016-03-23T13:26:59Z</time>
      </trkpt>
      <trkpt lat="48.53832" lon="-2.6242">
        <ele>53</ele>
        <time>2016-03-23T13:27:02Z</time>
      </trkpt>
      <trkpt lat="48.5383" lon="-2.62406">
        <ele>52.4</ele>
        <time>2016-03-23T13:27:05Z</time>
      </trkpt>
      <trkpt lat="48.53827" lon="-2.62392">
        <ele>52</ele>
        <time>2016-03-23T13:27:08Z</time>
      </trkpt>
      <trkpt lat="48.53825" lon="-2.62375">
        <ele>51.8</ele>
        <time>2016-03-23T13:27:12Z</time>
      </trkpt>
      <trkpt lat="48.53823" lon="-2.62362">
        <ele>51.7</ele>
        <time>2016-03-23T13:27:15Z</time>
      </trkpt>
      <trkpt lat="48.53821" lon="-2.62346">
        <ele>51.8</ele>
        <time>2016-03-23T13:27:18Z</time>
      </trkpt>
      <trkpt lat="48.53819" lon="-2.62331">
        <ele>51.9</ele>
        <time>2016-03-23T13:27:21Z</time>
      </trkpt>
      <trkpt lat="48.53817" lon="-2.62315">
        <ele>52.1</ele>
        <time>2016-03-23T13:27:24Z</time>
      </trkpt>
      <trkpt lat="48.53814" lon="-2.623">
        <ele>52.2</ele>
        <time>2016-03-23T13:27:27Z</time>
      </trkpt>
      <trkpt lat="48.53811" lon="-2.62285">
        <ele>52.3</ele>
        <time>2016-03-23T13:27:30Z</time>
      </trkpt>
      <trkpt lat="48.53808" lon="-2.62271">
        <ele>52.4</ele>
        <time>2016-03-23T13:27:33Z</time>
      </trkpt>
      <trkpt lat="48.53802" lon="-2.62256">
        <ele>52.6</ele>
        <time>2016-03-23T13:27:37Z</time>
      </trkpt>
      <trkpt lat="48.53796" lon="-2.62243">
        <ele>52.9</ele>
        <time>2016-03-23T13:27:42Z</time>
      </trkpt>
      <trkpt lat="48.53786" lon="-2.62244">
        <ele>53.4</ele>
        <time>2016-03-23T13:27:47Z</time>
      </trkpt>
      <trkpt lat="48.53776" lon="-2.62247">
        <ele>53.9</ele>
        <time>2016-03-23T13:27:52Z</time>
      </trkpt>
      <trkpt lat="48.53765" lon="-2.62252">
        <ele>54.4</ele>
        <time>2016-03-23T13:27:56Z</time>
      </trkpt>
      <trkpt lat="48.53754" lon="-2.62257">
        <ele>55</ele>
        <time>2016-03-23T13:28:00Z</time>
      </trkpt>
      <trkpt lat="48.53743" lon="-2.62262">
        <ele>55.5</ele>
        <time>2016-03-23T13:28:04Z</time>
      </trkpt>
      <trkpt lat="48.53733" lon="-2.62266">
        <ele>56</ele>
        <time>2016-03-23T13:28:08Z</time>
      </trkpt>
      <trkpt lat="48.53723" lon="-2.62268">
        <ele>56.5</ele>
        <time>2016-03-23T13:28:12Z</time>
      </trkpt>
      <trkpt lat="48.53715" lon="-2.62259">
        <ele>57.1</ele>
        <time>2016-03-23T13:28:16Z</time>
      </trkpt>
      <trkpt lat="48.53709" lon="-2.62248">
        <ele>57.7</ele>
        <time>2016-03-23T13:28:20Z</time>
      </trkpt>
      <trkpt lat="48.53703" lon="-2.62235">
        <ele>58.2</ele>
        <time>2016-03-23T13:28:24Z</time>
      </trkpt>
      <trkpt lat="48.53697" lon="-2.62223">
        <ele>58.8</ele>
        <time>2016-03-23T13:28:28Z</time>
      </trkpt>
      <trkpt lat="48.53692" lon="-2.62212">
        <ele>59.4</ele>
        <time>2016-03-23T13:28:32Z</time>
      </trkpt>
      <trkpt lat="48.53686" lon="-2.62198">
        <ele>60.1</ele>
        <time>2016-03-23T13:28:37Z</time>
      </trkpt>
      <trkpt lat="48.5368" lon="-2.62188">
        <ele>60.7</ele>
        <time>2016-03-23T13:28:42Z</time>
      </trkpt>
      <trkpt lat="48.53674" lon="-2.62176">
        <ele>61.3</ele>
        <time>2016-03-23T13:28:46Z</time>
      </trkpt>
      <trkpt lat="48.53666" lon="-2.62162">
        <ele>61.9</ele>
        <time>2016-03-23T13:28:50Z</time>
      </trkpt>
      <trkpt lat="48.53659" lon="-2.62152">
        <ele>62.3</ele>
        <time>2016-03-23T13:28:53Z</time>
      </trkpt>
      <trkpt lat="48.53654" lon="-2.62141">
        <ele>62.7</ele>
        <time>2016-03-23T13:28:56Z</time>
      </trkpt>
      <trkpt lat="48.53647" lon="-2.62127">
        <ele>63.4</ele>
        <time>2016-03-23T13:29:00Z</time>
      </trkpt>
      <trkpt lat="48.53642" lon="-2.62115">
        <ele>64.3</ele>
        <time>2016-03-23T13:29:04Z</time>
      </trkpt>
      <trkpt lat="48.53637" lon="-2.62101">
        <ele>65</ele>
        <time>2016-03-23T13:29:08Z</time>
      </trkpt>
      <trkpt lat="48.5363" lon="-2.62088">
        <ele>65.8</ele>
        <time>2016-03-23T13:29:12Z</time>
      </trkpt>
      <trkpt lat="48.53624" lon="-2.62076">
        <ele>66.7</ele>
        <time>2016-03-23T13:29:16Z</time>
      </trkpt>
      <trkpt lat="48.53618" lon="-2.62064">
        <ele>67.6</ele>
        <time>2016-03-23T13:29:20Z</time>
      </trkpt>
      <trkpt lat="48.53615" lon="-2.62051">
        <ele>68.6</ele>
        <time>2016-03-23T13:29:24Z</time>
      </trkpt>
      <trkpt lat="48.53613" lon="-2.62038">
        <ele>69.5</ele>
        <time>2016-03-23T13:29:28Z</time>
      </trkpt>
      <trkpt lat="48.53612" lon="-2.62022">
        <ele>70.2</ele>
        <time>2016-03-23T13:29:32Z</time>
      </trkpt>
      <trkpt lat="48.53611" lon="-2.62007">
        <ele>70.8</ele>
        <time>2016-03-23T13:29:36Z</time>
      </trkpt>
      <trkpt lat="48.5361" lon="-2.61993">
        <ele>71.4</ele>
        <time>2016-03-23T13:29:40Z</time>
      </trkpt>
      <trkpt lat="48.53606" lon="-2.61979">
        <ele>72</ele>
        <time>2016-03-23T13:29:45Z</time>
      </trkpt>
      <trkpt lat="48.536" lon="-2.61968">
        <ele>72.9</ele>
        <time>2016-03-23T13:29:52Z</time>
      </trkpt>
      <trkpt lat="48.53591" lon="-2.61961">
        <ele>73.9</ele>
        <time>2016-03-23T13:30:02Z</time>
      </trkpt>
      <trkpt lat="48.53582" lon="-2.61958">
        <ele>74.2</ele>
        <time>2016-03-23T13:30:06Z</time>
      </trkpt>
      <trkpt lat="48.53571" lon="-2.61954">
        <ele>74.6</ele>
        <time>2016-03-23T13:30:10Z</time>
      </trkpt>
      <trkpt lat="48.53561" lon="-2.61946">
        <ele>74.9</ele>
        <time>2016-03-23T13:30:14Z</time>
      </trkpt>
      <trkpt lat="48.53553" lon="-2.6194">
        <ele>75.2</ele>
        <time>2016-03-23T13:30:17Z</time>
      </trkpt>
      <trkpt lat="48.53546" lon="-2.6193">
        <ele>75.4</ele>
        <time>2016-03-23T13:30:20Z</time>
      </trkpt>
      <trkpt lat="48.53539" lon="-2.61921">
        <ele>75.6</ele>
        <time>2016-03-23T13:30:23Z</time>
      </trkpt>
      <trkpt lat="48.5353" lon="-2.6191">
        <ele>75.8</ele>
        <time>2016-03-23T13:30:26Z</time>
      </trkpt>
      <trkpt lat="48.53522" lon="-2.619">
        <ele>75.9</ele>
        <time>2016-03-23T13:30:29Z</time>
      </trkpt>
      <trkpt lat="48.53512" lon="-2.61888">
        <ele>76</ele>
        <time>2016-03-23T13:30:32Z</time>
      </trkpt>
      <trkpt lat="48.53502" lon="-2.61881">
        <ele>76.1</ele>
        <time>2016-03-23T13:30:35Z</time>
      </trkpt>
      <trkpt lat="48.5349" lon="-2.61872">
        <ele>76.2</ele>
        <time>2016-03-23T13:30:38Z</time>
      </trkpt>
      <trkpt lat="48.53479" lon="-2.61864">
        <ele>76.3</ele>
        <time>2016-03-23T13:30:41Z</time>
      </trkpt>
      <trkpt lat="48.53468" lon="-2.61856">
        <ele>76.4</ele>
        <time>2016-03-23T13:30:44Z</time>
      </trkpt>
      <trkpt lat="48.53458" lon="-2.61847">
        <ele>76.5</ele>
        <time>2016-03-23T13:30:47Z</time>
      </trkpt>
      <trkpt lat="48.53447" lon="-2.61839">
        <ele>76.6</ele>
        <time>2016-03-23T13:30:50Z</time>
      </trkpt>
      <trkpt lat="48.53436" lon="-2.61832">
        <ele>76.7</ele>
        <time>2016-03-23T13:30:53Z</time>
      </trkpt>
      <trkpt lat="48.53425" lon="-2.61825">
        <ele>77</ele>
        <time>2016-03-23T13:30:56Z</time>
      </trkpt>
      <trkpt lat="48.53415" lon="-2.61818">
        <ele>77.3</ele>
        <time>2016-03-23T13:30:59Z</time>
      </trkpt>
      <trkpt lat="48.53405" lon="-2.6181">
        <ele>77.6</ele>
        <time>2016-03-23T13:31:02Z</time>
      </trkpt>
      <trkpt lat="48.53395" lon="-2.61802">
        <ele>77.9</ele>
        <time>2016-03-23T13:31:05Z</time>
      </trkpt>
      <trkpt lat="48.53385" lon="-2.61794">
        <ele>78.3</ele>
        <time>2016-03-23T13:31:08Z</time>
      </trkpt>
      <trkpt lat="48.53376" lon="-2.61786">
        <ele>78.7</ele>
        <time>2016-03-23T13:31:11Z</time>
      </trkpt>
      <trkpt lat="48.53366" lon="-2.61777">
        <ele>79.1</ele>
        <time>2016-03-23T13:31:14Z</time>
      </trkpt>
      <trkpt lat="48.53357" lon="-2.61767">
        <ele>79.4</ele>
        <time>2016-03-23T13:31:17Z</time>
      </trkpt>
      <trkpt lat="48.53347" lon="-2.61758">
        <ele>79.8</ele>
        <time>2016-03-23T13:31:20Z</time>
      </trkpt>
      <trkpt lat="48.53337" lon="-2.61749">
        <ele>80.2</ele>
        <time>2016-03-23T13:31:23Z</time>
      </trkpt>
      <trkpt lat="48.53328" lon="-2.61741">
        <ele>80.7</ele>
        <time>2016-03-23T13:31:26Z</time>
      </trkpt>
      <trkpt lat="48.53318" lon="-2.61734">
        <ele>81.2</ele>
        <time>2016-03-23T13:31:29Z</time>
      </trkpt>
      <trkpt lat="48.53309" lon="-2.61726">
        <ele>81.7</ele>
        <time>2016-03-23T13:31:32Z</time>
      </trkpt>
      <trkpt lat="48.53299" lon="-2.61718">
        <ele>82.1</ele>
        <time>2016-03-23T13:31:35Z</time>
      </trkpt>
      <trkpt lat="48.53294" lon="-2.61706">
        <ele>82.4</ele>
        <time>2016-03-23T13:31:38Z</time>
      </trkpt>
      <trkpt lat="48.53295" lon="-2.6169">
        <ele>82.8</ele>
        <time>2016-03-23T13:31:41Z</time>
      </trkpt>
      <trkpt lat="48.53299" lon="-2.61675">
        <ele>83.2</ele>
        <time>2016-03-23T13:31:44Z</time>
      </trkpt>
      <trkpt lat="48.53302" lon="-2.6166">
        <ele>83.5</ele>
        <time>2016-03-23T13:31:47Z</time>
      </trkpt>
      <trkpt lat="48.53306" lon="-2.61644">
        <ele>83.8</ele>
        <time>2016-03-23T13:31:50Z</time>
      </trkpt>
      <trkpt lat="48.53309" lon="-2.61627">
        <ele>84</ele>
        <time>2016-03-23T13:31:53Z</time>
      </trkpt>
      <trkpt lat="48.53312" lon="-2.61612">
        <ele>84.2</ele>
        <time>2016-03-23T13:31:56Z</time>
      </trkpt>
      <trkpt lat="48.53317" lon="-2.61594">
        <ele>84.4</ele>
        <time>2016-03-23T13:31:59Z</time>
      </trkpt>
      <trkpt lat="48.53319" lon="-2.61576">
        <ele>84.6</ele>
        <time>2016-03-23T13:32:02Z</time>
      </trkpt>
      <trkpt lat="48.5332" lon="-2.61558">
        <ele>84.7</ele>
        <time>2016-03-23T13:32:05Z</time>
      </trkpt>
      <trkpt lat="48.5332" lon="-2.6154">
        <ele>85.3</ele>
        <time>2016-03-23T13:32:08Z</time>
      </trkpt>
      <trkpt lat="48.53323" lon="-2.61524">
        <ele>85.6</ele>
        <time>2016-03-23T13:32:11Z</time>
      </trkpt>
      <trkpt lat="48.53325" lon="-2.61507">
        <ele>85.9</ele>
        <time>2016-03-23T13:32:14Z</time>
      </trkpt>
      <trkpt lat="48.53327" lon="-2.61493">
        <ele>86</ele>
        <time>2016-03-23T13:32:17Z</time>
      </trkpt>
      <trkpt lat="48.53338" lon="-2.61491">
        <ele>86.2</ele>
        <time>2016-03-23T13:32:24Z</time>
      </trkpt>
      <trkpt lat="48.53348" lon="-2.61498">
        <ele>86.3</ele>
        <time>2016-03-23T13:32:28Z</time>
      </trkpt>
      <trkpt lat="48.53357" lon="-2.61503">
        <ele>86.4</ele>
        <time>2016-03-23T13:32:31Z</time>
      </trkpt>
      <trkpt lat="48.53368" lon="-2.61501">
        <ele>86.7</ele>
        <time>2016-03-23T13:32:36Z</time>
      </trkpt>
      <trkpt lat="48.5338" lon="-2.615">
        <ele>86.9</ele>
        <time>2016-03-23T13:32:41Z</time>
      </trkpt>
      <trkpt lat="48.53389" lon="-2.61498">
        <ele>87.1</ele>
        <time>2016-03-23T13:32:45Z</time>
      </trkpt>
      <trkpt lat="48.53398" lon="-2.61498">
        <ele>87.4</ele>
        <time>2016-03-23T13:32:52Z</time>
      </trkpt>
      <trkpt lat="48.53387" lon="-2.61495">
        <ele>87.9</ele>
        <time>2016-03-23T13:33:08Z</time>
      </trkpt>
      <trkpt lat="48.53377" lon="-2.61498">
        <ele>88</ele>
        <time>2016-03-23T13:33:12Z</time>
      </trkpt>
      <trkpt lat="48.53366" lon="-2.61498">
        <ele>88</ele>
        <time>2016-03-23T13:33:16Z</time>
      </trkpt>
      <trkpt lat="48.53356" lon="-2.61492">
        <ele>88.1</ele>
        <time>2016-03-23T13:33:19Z</time>
      </trkpt>
      <trkpt lat="48.53347" lon="-2.61484">
        <ele>88.1</ele>
        <time>2016-03-23T13:33:22Z</time>
      </trkpt>
      <trkpt lat="48.53334" lon="-2.61479">
        <ele>88</ele>
        <time>2016-03-23T13:33:25Z</time>
      </trkpt>
      <trkpt lat="48.53325" lon="-2.61481">
        <ele>87.8</ele>
        <time>2016-03-23T13:33:27Z</time>
      </trkpt>
      <trkpt lat="48.53313" lon="-2.61484">
        <ele>87.6</ele>
        <time>2016-03-23T13:33:30Z</time>
      </trkpt>
      <trkpt lat="48.53301" lon="-2.61487">
        <ele>87.5</ele>
        <time>2016-03-23T13:33:33Z</time>
      </trkpt>
      <trkpt lat="48.53292" lon="-2.61489">
        <ele>87.4</ele>
        <time>2016-03-23T13:33:35Z</time>
      </trkpt>
      <trkpt lat="48.53282" lon="-2.61492">
        <ele>87.2</ele>
        <time>2016-03-23T13:33:37Z</time>
      </trkpt>
      <trkpt lat="48.53269" lon="-2.61495">
        <ele>87</ele>
        <time>2016-03-23T13:33:40Z</time>
      </trkpt>
      <trkpt lat="48.53259" lon="-2.61488">
        <ele>86.9</ele>
        <time>2016-03-23T13:33:43Z</time>
      </trkpt>
      <trkpt lat="48.53257" lon="-2.61472">
        <ele>86.8</ele>
        <time>2016-03-23T13:33:46Z</time>
      </trkpt>
      <trkpt lat="48.53256" lon="-2.61454">
        <ele>86.8</ele>
        <time>2016-03-23T13:33:49Z</time>
      </trkpt>
      <trkpt lat="48.53255" lon="-2.6144">
        <ele>86.9</ele>
        <time>2016-03-23T13:33:52Z</time>
      </trkpt>
      <trkpt lat="48.53254" lon="-2.61425">
        <ele>87</ele>
        <time>2016-03-23T13:33:55Z</time>
      </trkpt>
      <trkpt lat="48.53253" lon="-2.61408">
        <ele>87.3</ele>
        <time>2016-03-23T13:33:59Z</time>
      </trkpt>
      <trkpt lat="48.53253" lon="-2.61392">
        <ele>87.6</ele>
        <time>2016-03-23T13:34:03Z</time>
      </trkpt>
      <trkpt lat="48.53254" lon="-2.61374">
        <ele>87.9</ele>
        <time>2016-03-23T13:34:07Z</time>
      </trkpt>
      <trkpt lat="48.53253" lon="-2.61358">
        <ele>88.2</ele>
        <time>2016-03-23T13:34:11Z</time>
      </trkpt>
      <trkpt lat="48.53253" lon="-2.61341">
        <ele>88.5</ele>
        <time>2016-03-23T13:34:15Z</time>
      </trkpt>
      <trkpt lat="48.53254" lon="-2.61325">
        <ele>88.9</ele>
        <time>2016-03-23T13:34:19Z</time>
      </trkpt>
      <trkpt lat="48.53253" lon="-2.6131">
        <ele>89.3</ele>
        <time>2016-03-23T13:34:22Z</time>
      </trkpt>
      <trkpt lat="48.53253" lon="-2.61295">
        <ele>89.7</ele>
        <time>2016-03-23T13:34:25Z</time>
      </trkpt>
      <trkpt lat="48.53253" lon="-2.61278">
        <ele>90.2</ele>
        <time>2016-03-23T13:34:29Z</time>
      </trkpt>
      <trkpt lat="48.53252" lon="-2.61264">
        <ele>90.6</ele>
        <time>2016-03-23T13:34:32Z</time>
      </trkpt>
      <trkpt lat="48.53252" lon="-2.6125">
        <ele>91</ele>
        <time>2016-03-23T13:34:35Z</time>
      </trkpt>
      <trkpt lat="48.53252" lon="-2.61234">
        <ele>91.5</ele>
        <time>2016-03-23T13:34:39Z</time>
      </trkpt>
      <trkpt lat="48.53251" lon="-2.61219">
        <ele>91.8</ele>
        <time>2016-03-23T13:34:42Z</time>
      </trkpt>
      <trkpt lat="48.5325" lon="-2.61202">
        <ele>92.2</ele>
        <time>2016-03-23T13:34:46Z</time>
      </trkpt>
      <trkpt lat="48.53247" lon="-2.61187">
        <ele>92.6</ele>
        <time>2016-03-23T13:34:51Z</time>
      </trkpt>
      <trkpt lat="48.53244" lon="-2.61173">
        <ele>93</ele>
        <time>2016-03-23T13:34:56Z</time>
      </trkpt>
      <trkpt lat="48.53243" lon="-2.61158">
        <ele>93.3</ele>
        <time>2016-03-23T13:35:01Z</time>
      </trkpt>
      <trkpt lat="48.53241" lon="-2.61144">
        <ele>93.5</ele>
        <time>2016-03-23T13:35:05Z</time>
      </trkpt>
      <trkpt lat="48.53241" lon="-2.6113">
        <ele>93.7</ele>
        <time>2016-03-23T13:35:09Z</time>
      </trkpt>
      <trkpt lat="48.53247" lon="-2.6112">
        <ele>93.9</ele>
        <time>2016-03-23T13:35:14Z</time>
      </trkpt>
      <trkpt lat="48.53256" lon="-2.61108">
        <ele>94.1</ele>
        <time>2016-03-23T13:35:18Z</time>
      </trkpt>
      <trkpt lat="48.53266" lon="-2.61099">
        <ele>94.2</ele>
        <time>2016-03-23T13:35:22Z</time>
      </trkpt>
      <trkpt lat="48.53276" lon="-2.61093">
        <ele>94.3</ele>
        <time>2016-03-23T13:35:26Z</time>
      </trkpt>
      <trkpt lat="48.53284" lon="-2.61085">
        <ele>94.3</ele>
        <time>2016-03-23T13:35:30Z</time>
      </trkpt>
      <trkpt lat="48.53293" lon="-2.61076">
        <ele>94.4</ele>
        <time>2016-03-23T13:35:34Z</time>
      </trkpt>
      <trkpt lat="48.53302" lon="-2.61064">
        <ele>94.4</ele>
        <time>2016-03-23T13:35:37Z</time>
      </trkpt>
      <trkpt lat="48.53308" lon="-2.61054">
        <ele>94.4</ele>
        <time>2016-03-23T13:35:39Z</time>
      </trkpt>
      <trkpt lat="48.53315" lon="-2.61042">
        <ele>94.5</ele>
        <time>2016-03-23T13:35:41Z</time>
      </trkpt>
      <trkpt lat="48.53322" lon="-2.61031">
        <ele>94.5</ele>
        <time>2016-03-23T13:35:43Z</time>
      </trkpt>
      <trkpt lat="48.53331" lon="-2.61015">
        <ele>94.5</ele>
        <time>2016-03-23T13:35:46Z</time>
      </trkpt>
      <trkpt lat="48.53338" lon="-2.61005">
        <ele>94.5</ele>
        <time>2016-03-23T13:35:48Z</time>
      </trkpt>
      <trkpt lat="48.53345" lon="-2.60995">
        <ele>94.4</ele>
        <time>2016-03-23T13:35:51Z</time>
      </trkpt>
      <trkpt lat="48.53353" lon="-2.60984">
        <ele>94.4</ele>
        <time>2016-03-23T13:35:54Z</time>
      </trkpt>
      <trkpt lat="48.53364" lon="-2.60974">
        <ele>94.3</ele>
        <time>2016-03-23T13:35:57Z</time>
      </trkpt>
      <trkpt lat="48.53376" lon="-2.60967">
        <ele>94.2</ele>
        <time>2016-03-23T13:36:00Z</time>
      </trkpt>
      <trkpt lat="48.53389" lon="-2.60962">
        <ele>94.1</ele>
        <time>2016-03-23T13:36:02Z</time>
      </trkpt>
      <trkpt lat="48.534" lon="-2.60958">
        <ele>94</ele>
        <time>2016-03-23T13:36:04Z</time>
      </trkpt>
      <trkpt lat="48.53411" lon="-2.60956">
        <ele>94</ele>
        <time>2016-03-23T13:36:06Z</time>
      </trkpt>
      <trkpt lat="48.5342" lon="-2.60954">
        <ele>93.9</ele>
        <time>2016-03-23T13:36:08Z</time>
      </trkpt>
      <trkpt lat="48.5343" lon="-2.60952">
        <ele>93.8</ele>
        <time>2016-03-23T13:36:10Z</time>
      </trkpt>
      <trkpt lat="48.53443" lon="-2.6095">
        <ele>93.8</ele>
        <time>2016-03-23T13:36:13Z</time>
      </trkpt>
      <trkpt lat="48.53448" lon="-2.60938">
        <ele>93.7</ele>
        <time>2016-03-23T13:36:16Z</time>
      </trkpt>
      <trkpt lat="48.53445" lon="-2.60922">
        <ele>93.7</ele>
        <time>2016-03-23T13:36:19Z</time>
      </trkpt>
      <trkpt lat="48.53442" lon="-2.60905">
        <ele>93.7</ele>
        <time>2016-03-23T13:36:22Z</time>
      </trkpt>
      <trkpt lat="48.53438" lon="-2.60889">
        <ele>93.6</ele>
        <time>2016-03-23T13:36:25Z</time>
      </trkpt>
      <trkpt lat="48.53428" lon="-2.60877">
        <ele>93.6</ele>
        <time>2016-03-23T13:36:28Z</time>
      </trkpt>
      <trkpt lat="48.53419" lon="-2.60872">
        <ele>93.6</ele>
        <time>2016-03-23T13:36:30Z</time>
      </trkpt>
      <trkpt lat="48.53407" lon="-2.60865">
        <ele>93.6</ele>
        <time>2016-03-23T13:36:33Z</time>
      </trkpt>
      <trkpt lat="48.53399" lon="-2.60857">
        <ele>93.5</ele>
        <time>2016-03-23T13:36:35Z</time>
      </trkpt>
      <trkpt lat="48.53389" lon="-2.60846">
        <ele>93.5</ele>
        <time>2016-03-23T13:36:38Z</time>
      </trkpt>
      <trkpt lat="48.53381" lon="-2.60837">
        <ele>93.5</ele>
        <time>2016-03-23T13:36:40Z</time>
      </trkpt>
      <trkpt lat="48.53373" lon="-2.60828">
        <ele>93.4</ele>
        <time>2016-03-23T13:36:42Z</time>
      </trkpt>
      <trkpt lat="48.53364" lon="-2.60814">
        <ele>93.5</ele>
        <time>2016-03-23T13:36:45Z</time>
      </trkpt>
      <trkpt lat="48.53355" lon="-2.60797">
        <ele>93.5</ele>
        <time>2016-03-23T13:36:48Z</time>
      </trkpt>
      <trkpt lat="48.53349" lon="-2.60786">
        <ele>93.6</ele>
        <time>2016-03-23T13:36:50Z</time>
      </trkpt>
      <trkpt lat="48.53343" lon="-2.60773">
        <ele>93.6</ele>
        <time>2016-03-23T13:36:52Z</time>
      </trkpt>
      <trkpt lat="48.53338" lon="-2.60761">
        <ele>93.7</ele>
        <time>2016-03-23T13:36:54Z</time>
      </trkpt>
      <trkpt lat="48.53335" lon="-2.60747">
        <ele>93.7</ele>
        <time>2016-03-23T13:36:56Z</time>
      </trkpt>
      <trkpt lat="48.53327" lon="-2.6073">
        <ele>93.7</ele>
        <time>2016-03-23T13:36:59Z</time>
      </trkpt>
      <trkpt lat="48.5332" lon="-2.60719">
        <ele>93.7</ele>
        <time>2016-03-23T13:37:01Z</time>
      </trkpt>
      <trkpt lat="48.53315" lon="-2.60707">
        <ele>93.8</ele>
        <time>2016-03-23T13:37:03Z</time>
      </trkpt>
      <trkpt lat="48.53309" lon="-2.60694">
        <ele>93.8</ele>
        <time>2016-03-23T13:37:05Z</time>
      </trkpt>
      <trkpt lat="48.53305" lon="-2.6068">
        <ele>93.8</ele>
        <time>2016-03-23T13:37:07Z</time>
      </trkpt>
      <trkpt lat="48.533" lon="-2.60666">
        <ele>93.8</ele>
        <time>2016-03-23T13:37:09Z</time>
      </trkpt>
      <trkpt lat="48.53295" lon="-2.60653">
        <ele>93.8</ele>
        <time>2016-03-23T13:37:11Z</time>
      </trkpt>
      <trkpt lat="48.53287" lon="-2.60637">
        <ele>93.8</ele>
        <time>2016-03-23T13:37:13Z</time>
      </trkpt>
      <trkpt lat="48.5328" lon="-2.60625">
        <ele>93.8</ele>
        <time>2016-03-23T13:37:15Z</time>
      </trkpt>
      <trkpt lat="48.53273" lon="-2.60613">
        <ele>93.8</ele>
        <time>2016-03-23T13:37:17Z</time>
      </trkpt>
      <trkpt lat="48.53265" lon="-2.606">
        <ele>93.8</ele>
        <time>2016-03-23T13:37:19Z</time>
      </trkpt>
      <trkpt lat="48.53256" lon="-2.60587">
        <ele>93.8</ele>
        <time>2016-03-23T13:37:21Z</time>
      </trkpt>
      <trkpt lat="48.53247" lon="-2.60576">
        <ele>93.8</ele>
        <time>2016-03-23T13:37:23Z</time>
      </trkpt>
      <trkpt lat="48.53238" lon="-2.60565">
        <ele>93.8</ele>
        <time>2016-03-23T13:37:25Z</time>
      </trkpt>
      <trkpt lat="48.53228" lon="-2.60554">
        <ele>93.8</ele>
        <time>2016-03-23T13:37:27Z</time>
      </trkpt>
      <trkpt lat="48.53218" lon="-2.60542">
        <ele>93.8</ele>
        <time>2016-03-23T13:37:29Z</time>
      </trkpt>
      <trkpt lat="48.53212" lon="-2.60528">
        <ele>93.8</ele>
        <time>2016-03-23T13:37:31Z</time>
      </trkpt>
      <trkpt lat="48.53208" lon="-2.60513">
        <ele>93.8</ele>
        <time>2016-03-23T13:37:33Z</time>
      </trkpt>
      <trkpt lat="48.53204" lon="-2.60497">
        <ele>93.8</ele>
        <time>2016-03-23T13:37:35Z</time>
      </trkpt>
      <trkpt lat="48.53199" lon="-2.60481">
        <ele>93.8</ele>
        <time>2016-03-23T13:37:37Z</time>
      </trkpt>
      <trkpt lat="48.53192" lon="-2.60467">
        <ele>93.8</ele>
        <time>2016-03-23T13:37:39Z</time>
      </trkpt>
      <trkpt lat="48.53182" lon="-2.60458">
        <ele>93.8</ele>
        <time>2016-03-23T13:37:41Z</time>
      </trkpt>
      <trkpt lat="48.53171" lon="-2.60454">
        <ele>93.7</ele>
        <time>2016-03-23T13:37:43Z</time>
      </trkpt>
      <trkpt lat="48.5316" lon="-2.60456">
        <ele>93.7</ele>
        <time>2016-03-23T13:37:45Z</time>
      </trkpt>
      <trkpt lat="48.53149" lon="-2.60461">
        <ele>93.7</ele>
        <time>2016-03-23T13:37:47Z</time>
      </trkpt>
      <trkpt lat="48.53139" lon="-2.60466">
        <ele>93.6</ele>
        <time>2016-03-23T13:37:49Z</time>
      </trkpt>
      <trkpt lat="48.53129" lon="-2.60471">
        <ele>93.6</ele>
        <time>2016-03-23T13:37:51Z</time>
      </trkpt>
      <trkpt lat="48.53119" lon="-2.60477">
        <ele>93.6</ele>
        <time>2016-03-23T13:37:53Z</time>
      </trkpt>
      <trkpt lat="48.53109" lon="-2.60484">
        <ele>93.6</ele>
        <time>2016-03-23T13:37:55Z</time>
      </trkpt>
      <trkpt lat="48.53099" lon="-2.6049">
        <ele>93.7</ele>
        <time>2016-03-23T13:37:57Z</time>
      </trkpt>
      <trkpt lat="48.53089" lon="-2.60496">
        <ele>93.8</ele>
        <time>2016-03-23T13:37:59Z</time>
      </trkpt>
      <trkpt lat="48.53078" lon="-2.60501">
        <ele>93.9</ele>
        <time>2016-03-23T13:38:01Z</time>
      </trkpt>
      <trkpt lat="48.53067" lon="-2.60507">
        <ele>94</ele>
        <time>2016-03-23T13:38:03Z</time>
      </trkpt>
      <trkpt lat="48.53056" lon="-2.60512">
        <ele>94</ele>
        <time>2016-03-23T13:38:05Z</time>
      </trkpt>
      <trkpt lat="48.53045" lon="-2.60517">
        <ele>94.1</ele>
        <time>2016-03-23T13:38:07Z</time>
      </trkpt>
      <trkpt lat="48.53033" lon="-2.60522">
        <ele>94.2</ele>
        <time>2016-03-23T13:38:09Z</time>
      </trkpt>
      <trkpt lat="48.53021" lon="-2.60527">
        <ele>94.2</ele>
        <time>2016-03-23T13:38:11Z</time>
      </trkpt>
      <trkpt lat="48.53008" lon="-2.60531">
        <ele>94.3</ele>
        <time>2016-03-23T13:38:13Z</time>
      </trkpt>
      <trkpt lat="48.52995" lon="-2.60536">
        <ele>94.3</ele>
        <time>2016-03-23T13:38:15Z</time>
      </trkpt>
      <trkpt lat="48.52982" lon="-2.6054">
        <ele>94.2</ele>
        <time>2016-03-23T13:38:17Z</time>
      </trkpt>
      <trkpt lat="48.52968" lon="-2.60544">
        <ele>94.1</ele>
        <time>2016-03-23T13:38:19Z</time>
      </trkpt>
      <trkpt lat="48.52955" lon="-2.60549">
        <ele>94</ele>
        <time>2016-03-23T13:38:21Z</time>
      </trkpt>
      <trkpt lat="48.52941" lon="-2.60553">
        <ele>93.8</ele>
        <time>2016-03-23T13:38:23Z</time>
      </trkpt>
      <trkpt lat="48.52927" lon="-2.60557">
        <ele>93.5</ele>
        <time>2016-03-23T13:38:25Z</time>
      </trkpt>
      <trkpt lat="48.52912" lon="-2.60562">
        <ele>93.2</ele>
        <time>2016-03-23T13:38:27Z</time>
      </trkpt>
      <trkpt lat="48.52897" lon="-2.60567">
        <ele>93</ele>
        <time>2016-03-23T13:38:29Z</time>
      </trkpt>
      <trkpt lat="48.52883" lon="-2.6057">
        <ele>92.7</ele>
        <time>2016-03-23T13:38:31Z</time>
      </trkpt>
      <trkpt lat="48.52872" lon="-2.60564">
        <ele>92.4</ele>
        <time>2016-03-23T13:38:33Z</time>
      </trkpt>
      <trkpt lat="48.52867" lon="-2.60547">
        <ele>92</ele>
        <time>2016-03-23T13:38:35Z</time>
      </trkpt>
      <trkpt lat="48.52865" lon="-2.60528">
        <ele>91.7</ele>
        <time>2016-03-23T13:38:37Z</time>
      </trkpt>
      <trkpt lat="48.52862" lon="-2.60509">
        <ele>91.4</ele>
        <time>2016-03-23T13:38:39Z</time>
      </trkpt>
      <trkpt lat="48.52859" lon="-2.6049">
        <ele>91.2</ele>
        <time>2016-03-23T13:38:41Z</time>
      </trkpt>
      <trkpt lat="48.52856" lon="-2.60472">
        <ele>91</ele>
        <time>2016-03-23T13:38:43Z</time>
      </trkpt>
      <trkpt lat="48.52854" lon="-2.60455">
        <ele>90.8</ele>
        <time>2016-03-23T13:38:45Z</time>
      </trkpt>
      <trkpt lat="48.52852" lon="-2.6044">
        <ele>90.6</ele>
        <time>2016-03-23T13:38:47Z</time>
      </trkpt>
      <trkpt lat="48.5285" lon="-2.60425">
        <ele>90.6</ele>
        <time>2016-03-23T13:38:49Z</time>
      </trkpt>
      <trkpt lat="48.52848" lon="-2.6041">
        <ele>90.5</ele>
        <time>2016-03-23T13:38:51Z</time>
      </trkpt>
      <trkpt lat="48.52848" lon="-2.60395">
        <ele>90.5</ele>
        <time>2016-03-23T13:38:53Z</time>
      </trkpt>
      <trkpt lat="48.52848" lon="-2.60381">
        <ele>90.6</ele>
        <time>2016-03-23T13:38:55Z</time>
      </trkpt>
      <trkpt lat="48.52849" lon="-2.60367">
        <ele>90.7</ele>
        <time>2016-03-23T13:38:57Z</time>
      </trkpt>
      <trkpt lat="48.52851" lon="-2.60353">
        <ele>90.8</ele>
        <time>2016-03-23T13:38:59Z</time>
      </trkpt>
      <trkpt lat="48.52853" lon="-2.60338">
        <ele>90.9</ele>
        <time>2016-03-23T13:39:01Z</time>
      </trkpt>
      <trkpt lat="48.52856" lon="-2.60325">
        <ele>91.1</ele>
        <time>2016-03-23T13:39:03Z</time>
      </trkpt>
      <trkpt lat="48.52858" lon="-2.6031">
        <ele>91.3</ele>
        <time>2016-03-23T13:39:05Z</time>
      </trkpt>
      <trkpt lat="48.5286" lon="-2.60296">
        <ele>91.4</ele>
        <time>2016-03-23T13:39:07Z</time>
      </trkpt>
      <trkpt lat="48.52862" lon="-2.60283">
        <ele>91.6</ele>
        <time>2016-03-23T13:39:09Z</time>
      </trkpt>
      <trkpt lat="48.52861" lon="-2.60267">
        <ele>91.8</ele>
        <time>2016-03-23T13:39:11Z</time>
      </trkpt>
      <trkpt lat="48.52859" lon="-2.60253">
        <ele>91.9</ele>
        <time>2016-03-23T13:39:13Z</time>
      </trkpt>
      <trkpt lat="48.52857" lon="-2.6024">
        <ele>92.1</ele>
        <time>2016-03-23T13:39:15Z</time>
      </trkpt>
      <trkpt lat="48.52855" lon="-2.60225">
        <ele>92.3</ele>
        <time>2016-03-23T13:39:17Z</time>
      </trkpt>
      <trkpt lat="48.52854" lon="-2.60211">
        <ele>92.5</ele>
        <time>2016-03-23T13:39:19Z</time>
      </trkpt>
      <trkpt lat="48.52851" lon="-2.60196">
        <ele>92.6</ele>
        <time>2016-03-23T13:39:21Z</time>
      </trkpt>
      <trkpt lat="48.52848" lon="-2.60181">
        <ele>92.8</ele>
        <time>2016-03-23T13:39:23Z</time>
      </trkpt>
      <trkpt lat="48.52845" lon="-2.60166">
        <ele>92.9</ele>
        <time>2016-03-23T13:39:25Z</time>
      </trkpt>
      <trkpt lat="48.52842" lon="-2.60151">
        <ele>93</ele>
        <time>2016-03-23T13:39:27Z</time>
      </trkpt>
      <trkpt lat="48.52837" lon="-2.60132">
        <ele>93.2</ele>
        <time>2016-03-23T13:39:30Z</time>
      </trkpt>
      <trkpt lat="48.52835" lon="-2.60118">
        <ele>93.3</ele>
        <time>2016-03-23T13:39:32Z</time>
      </trkpt>
      <trkpt lat="48.52833" lon="-2.60104">
        <ele>93.5</ele>
        <time>2016-03-23T13:39:34Z</time>
      </trkpt>
      <trkpt lat="48.52829" lon="-2.60089">
        <ele>93.6</ele>
        <time>2016-03-23T13:39:36Z</time>
      </trkpt>
      <trkpt lat="48.52827" lon="-2.60075">
        <ele>93.7</ele>
        <time>2016-03-23T13:39:38Z</time>
      </trkpt>
      <trkpt lat="48.52825" lon="-2.60057">
        <ele>93.9</ele>
        <time>2016-03-23T13:39:41Z</time>
      </trkpt>
      <trkpt lat="48.52825" lon="-2.6004">
        <ele>94</ele>
        <time>2016-03-23T13:39:45Z</time>
      </trkpt>
      <trkpt lat="48.5282" lon="-2.60028">
        <ele>94.1</ele>
        <time>2016-03-23T13:39:48Z</time>
      </trkpt>
      <trkpt lat="48.52812" lon="-2.60014">
        <ele>94.2</ele>
        <time>2016-03-23T13:39:51Z</time>
      </trkpt>
      <trkpt lat="48.52806" lon="-2.60004">
        <ele>94.3</ele>
        <time>2016-03-23T13:39:53Z</time>
      </trkpt>
      <trkpt lat="48.52799" lon="-2.59994">
        <ele>94.4</ele>
        <time>2016-03-23T13:39:55Z</time>
      </trkpt>
      <trkpt lat="48.52791" lon="-2.59984">
        <ele>94.4</ele>
        <time>2016-03-23T13:39:57Z</time>
      </trkpt>
      <trkpt lat="48.52784" lon="-2.59975">
        <ele>94.5</ele>
        <time>2016-03-23T13:39:59Z</time>
      </trkpt>
      <trkpt lat="48.52776" lon="-2.59968">
        <ele>94.5</ele>
        <time>2016-03-23T13:40:01Z</time>
      </trkpt>
      <trkpt lat="48.52764" lon="-2.59961">
        <ele>94.6</ele>
        <time>2016-03-23T13:40:04Z</time>
      </trkpt>
      <trkpt lat="48.52751" lon="-2.59954">
        <ele>94.6</ele>
        <time>2016-03-23T13:40:07Z</time>
      </trkpt>
      <trkpt lat="48.52742" lon="-2.59949">
        <ele>94.7</ele>
        <time>2016-03-23T13:40:09Z</time>
      </trkpt>
      <trkpt lat="48.52733" lon="-2.59944">
        <ele>94.7</ele>
        <time>2016-03-23T13:40:11Z</time>
      </trkpt>
      <trkpt lat="48.52723" lon="-2.59939">
        <ele>94.7</ele>
        <time>2016-03-23T13:40:13Z</time>
      </trkpt>
      <trkpt lat="48.52712" lon="-2.59934">
        <ele>94.7</ele>
        <time>2016-03-23T13:40:15Z</time>
      </trkpt>
      <trkpt lat="48.52703" lon="-2.59928">
        <ele>94.7</ele>
        <time>2016-03-23T13:40:17Z</time>
      </trkpt>
      <trkpt lat="48.52693" lon="-2.59923">
        <ele>94.6</ele>
        <time>2016-03-23T13:40:19Z</time>
      </trkpt>
      <trkpt lat="48.52683" lon="-2.59918">
        <ele>94.6</ele>
        <time>2016-03-23T13:40:21Z</time>
      </trkpt>
      <trkpt lat="48.52674" lon="-2.59913">
        <ele>94.6</ele>
        <time>2016-03-23T13:40:23Z</time>
      </trkpt>
      <trkpt lat="48.52665" lon="-2.59908">
        <ele>94.5</ele>
        <time>2016-03-23T13:40:25Z</time>
      </trkpt>
      <trkpt lat="48.52657" lon="-2.59902">
        <ele>94.5</ele>
        <time>2016-03-23T13:40:27Z</time>
      </trkpt>
      <trkpt lat="48.52648" lon="-2.59898">
        <ele>94.5</ele>
        <time>2016-03-23T13:40:29Z</time>
      </trkpt>
      <trkpt lat="48.52638" lon="-2.59895">
        <ele>94.5</ele>
        <time>2016-03-23T13:40:31Z</time>
      </trkpt>
      <trkpt lat="48.52629" lon="-2.59891">
        <ele>94.4</ele>
        <time>2016-03-23T13:40:33Z</time>
      </trkpt>
      <trkpt lat="48.52619" lon="-2.59885">
        <ele>94.4</ele>
        <time>2016-03-23T13:40:35Z</time>
      </trkpt>
      <trkpt lat="48.52609" lon="-2.59879">
        <ele>94.3</ele>
        <time>2016-03-23T13:40:37Z</time>
      </trkpt>
      <trkpt lat="48.52598" lon="-2.59873">
        <ele>94.3</ele>
        <time>2016-03-23T13:40:39Z</time>
      </trkpt>
      <trkpt lat="48.52587" lon="-2.59868">
        <ele>94.2</ele>
        <time>2016-03-23T13:40:41Z</time>
      </trkpt>
      <trkpt lat="48.52575" lon="-2.59864">
        <ele>94.1</ele>
        <time>2016-03-23T13:40:43Z</time>
      </trkpt>
      <trkpt lat="48.52563" lon="-2.59859">
        <ele>94</ele>
        <time>2016-03-23T13:40:45Z</time>
      </trkpt>
      <trkpt lat="48.52551" lon="-2.59855">
        <ele>93.9</ele>
        <time>2016-03-23T13:40:47Z</time>
      </trkpt>
      <trkpt lat="48.52539" lon="-2.59856">
        <ele>93.8</ele>
        <time>2016-03-23T13:40:49Z</time>
      </trkpt>
      <trkpt lat="48.52528" lon="-2.59865">
        <ele>93.8</ele>
        <time>2016-03-23T13:40:51Z</time>
      </trkpt>
      <trkpt lat="48.52518" lon="-2.59876">
        <ele>93.7</ele>
        <time>2016-03-23T13:40:53Z</time>
      </trkpt>
      <trkpt lat="48.52509" lon="-2.59887">
        <ele>93.6</ele>
        <time>2016-03-23T13:40:55Z</time>
      </trkpt>
      <trkpt lat="48.52498" lon="-2.599">
        <ele>93.5</ele>
        <time>2016-03-23T13:40:57Z</time>
      </trkpt>
      <trkpt lat="48.52488" lon="-2.59915">
        <ele>93.4</ele>
        <time>2016-03-23T13:40:59Z</time>
      </trkpt>
      <trkpt lat="48.52478" lon="-2.59929">
        <ele>93.3</ele>
        <time>2016-03-23T13:41:01Z</time>
      </trkpt>
      <trkpt lat="48.52467" lon="-2.59941">
        <ele>93.2</ele>
        <time>2016-03-23T13:41:03Z</time>
      </trkpt>
      <trkpt lat="48.52457" lon="-2.59952">
        <ele>93.1</ele>
        <time>2016-03-23T13:41:05Z</time>
      </trkpt>
      <trkpt lat="48.52447" lon="-2.59962">
        <ele>93</ele>
        <time>2016-03-23T13:41:07Z</time>
      </trkpt>
      <trkpt lat="48.52438" lon="-2.59973">
        <ele>93</ele>
        <time>2016-03-23T13:41:09Z</time>
      </trkpt>
      <trkpt lat="48.52429" lon="-2.59984">
        <ele>92.9</ele>
        <time>2016-03-23T13:41:11Z</time>
      </trkpt>
      <trkpt lat="48.5242" lon="-2.59994">
        <ele>92.9</ele>
        <time>2016-03-23T13:41:13Z</time>
      </trkpt>
      <trkpt lat="48.52411" lon="-2.60002">
        <ele>92.9</ele>
        <time>2016-03-23T13:41:15Z</time>
      </trkpt>
      <trkpt lat="48.52402" lon="-2.6">
        <ele>92.9</ele>
        <time>2016-03-23T13:41:17Z</time>
      </trkpt>
      <trkpt lat="48.52396" lon="-2.59988">
        <ele>92.9</ele>
        <time>2016-03-23T13:41:19Z</time>
      </trkpt>
      <trkpt lat="48.52391" lon="-2.59975">
        <ele>92.9</ele>
        <time>2016-03-23T13:41:21Z</time>
      </trkpt>
      <trkpt lat="48.52386" lon="-2.59962">
        <ele>92.9</ele>
        <time>2016-03-23T13:41:23Z</time>
      </trkpt>
      <trkpt lat="48.5238" lon="-2.59949">
        <ele>92.9</ele>
        <time>2016-03-23T13:41:25Z</time>
      </trkpt>
      <trkpt lat="48.52373" lon="-2.59938">
        <ele>92.9</ele>
        <time>2016-03-23T13:41:27Z</time>
      </trkpt>
      <trkpt lat="48.52366" lon="-2.59926">
        <ele>92.9</ele>
        <time>2016-03-23T13:41:29Z</time>
      </trkpt>
      <trkpt lat="48.52359" lon="-2.59915">
        <ele>92.9</ele>
        <time>2016-03-23T13:41:31Z</time>
      </trkpt>
      <trkpt lat="48.52352" lon="-2.59903">
        <ele>92.8</ele>
        <time>2016-03-23T13:41:33Z</time>
      </trkpt>
      <trkpt lat="48.52345" lon="-2.5989">
        <ele>92.6</ele>
        <time>2016-03-23T13:41:35Z</time>
      </trkpt>
      <trkpt lat="48.52338" lon="-2.59878">
        <ele>92.5</ele>
        <time>2016-03-23T13:41:37Z</time>
      </trkpt>
      <trkpt lat="48.52331" lon="-2.59865">
        <ele>92.4</ele>
        <time>2016-03-23T13:41:39Z</time>
      </trkpt>
      <trkpt lat="48.52324" lon="-2.59853">
        <ele>92.3</ele>
        <time>2016-03-23T13:41:41Z</time>
      </trkpt>
      <trkpt lat="48.52317" lon="-2.59841">
        <ele>92.2</ele>
        <time>2016-03-23T13:41:43Z</time>
      </trkpt>
      <trkpt lat="48.52309" lon="-2.59829">
        <ele>92.1</ele>
        <time>2016-03-23T13:41:45Z</time>
      </trkpt>
      <trkpt lat="48.52302" lon="-2.59817">
        <ele>92</ele>
        <time>2016-03-23T13:41:47Z</time>
      </trkpt>
      <trkpt lat="48.52294" lon="-2.59805">
        <ele>91.8</ele>
        <time>2016-03-23T13:41:49Z</time>
      </trkpt>
      <trkpt lat="48.52285" lon="-2.59794">
        <ele>91.6</ele>
        <time>2016-03-23T13:41:51Z</time>
      </trkpt>
      <trkpt lat="48.52277" lon="-2.59782">
        <ele>91.4</ele>
        <time>2016-03-23T13:41:53Z</time>
      </trkpt>
      <trkpt lat="48.52268" lon="-2.59773">
        <ele>91.3</ele>
        <time>2016-03-23T13:41:55Z</time>
      </trkpt>
      <trkpt lat="48.52261" lon="-2.59763">
        <ele>91.1</ele>
        <time>2016-03-23T13:41:57Z</time>
      </trkpt>
      <trkpt lat="48.52254" lon="-2.59753">
        <ele>90.8</ele>
        <time>2016-03-23T13:41:59Z</time>
      </trkpt>
      <trkpt lat="48.52248" lon="-2.59742">
        <ele>90.5</ele>
        <time>2016-03-23T13:42:01Z</time>
      </trkpt>
      <trkpt lat="48.52242" lon="-2.5973">
        <ele>90.1</ele>
        <time>2016-03-23T13:42:04Z</time>
      </trkpt>
      <trkpt lat="48.52236" lon="-2.59719">
        <ele>89.8</ele>
        <time>2016-03-23T13:42:07Z</time>
      </trkpt>
      <trkpt lat="48.5223" lon="-2.59707">
        <ele>89.4</ele>
        <time>2016-03-23T13:42:10Z</time>
      </trkpt>
      <trkpt lat="48.52224" lon="-2.59691">
        <ele>89.1</ele>
        <time>2016-03-23T13:42:13Z</time>
      </trkpt>
      <trkpt lat="48.52217" lon="-2.59675">
        <ele>88.7</ele>
        <time>2016-03-23T13:42:16Z</time>
      </trkpt>
      <trkpt lat="48.5221" lon="-2.5966">
        <ele>88.3</ele>
        <time>2016-03-23T13:42:19Z</time>
      </trkpt>
      <trkpt lat="48.52203" lon="-2.59643">
        <ele>87.8</ele>
        <time>2016-03-23T13:42:22Z</time>
      </trkpt>
      <trkpt lat="48.52197" lon="-2.59631">
        <ele>87.6</ele>
        <time>2016-03-23T13:42:24Z</time>
      </trkpt>
      <trkpt lat="48.52191" lon="-2.59617">
        <ele>87.4</ele>
        <time>2016-03-23T13:42:26Z</time>
      </trkpt>
      <trkpt lat="48.52185" lon="-2.59605">
        <ele>87.2</ele>
        <time>2016-03-23T13:42:28Z</time>
      </trkpt>
      <trkpt lat="48.52178" lon="-2.59592">
        <ele>87</ele>
        <time>2016-03-23T13:42:30Z</time>
      </trkpt>
      <trkpt lat="48.52171" lon="-2.59579">
        <ele>86.9</ele>
        <time>2016-03-23T13:42:32Z</time>
      </trkpt>
      <trkpt lat="48.52164" lon="-2.59565">
        <ele>86.7</ele>
        <time>2016-03-23T13:42:34Z</time>
      </trkpt>
      <trkpt lat="48.52157" lon="-2.59551">
        <ele>86.5</ele>
        <time>2016-03-23T13:42:36Z</time>
      </trkpt>
      <trkpt lat="48.5215" lon="-2.59536">
        <ele>86.4</ele>
        <time>2016-03-23T13:42:38Z</time>
      </trkpt>
      <trkpt lat="48.52143" lon="-2.59522">
        <ele>86.2</ele>
        <time>2016-03-23T13:42:40Z</time>
      </trkpt>
      <trkpt lat="48.52137" lon="-2.59509">
        <ele>85.9</ele>
        <time>2016-03-23T13:42:42Z</time>
      </trkpt>
      <trkpt lat="48.52131" lon="-2.59495">
        <ele>85.7</ele>
        <time>2016-03-23T13:42:44Z</time>
      </trkpt>
      <trkpt lat="48.52124" lon="-2.59481">
        <ele>85.5</ele>
        <time>2016-03-23T13:42:46Z</time>
      </trkpt>
      <trkpt lat="48.52117" lon="-2.59467">
        <ele>85.4</ele>
        <time>2016-03-23T13:42:48Z</time>
      </trkpt>
      <trkpt lat="48.5211" lon="-2.59453">
        <ele>85.2</ele>
        <time>2016-03-23T13:42:50Z</time>
      </trkpt>
      <trkpt lat="48.52103" lon="-2.59438">
        <ele>85</ele>
        <time>2016-03-23T13:42:52Z</time>
      </trkpt>
      <trkpt lat="48.52096" lon="-2.59424">
        <ele>84.8</ele>
        <time>2016-03-23T13:42:54Z</time>
      </trkpt>
      <trkpt lat="48.5209" lon="-2.5941">
        <ele>84.6</ele>
        <time>2016-03-23T13:42:56Z</time>
      </trkpt>
      <trkpt lat="48.52083" lon="-2.59395">
        <ele>84.4</ele>
        <time>2016-03-23T13:42:58Z</time>
      </trkpt>
      <trkpt lat="48.52076" lon="-2.59381">
        <ele>84.3</ele>
        <time>2016-03-23T13:43:00Z</time>
      </trkpt>
      <trkpt lat="48.5207" lon="-2.59366">
        <ele>84.1</ele>
        <time>2016-03-23T13:43:02Z</time>
      </trkpt>
      <trkpt lat="48.52064" lon="-2.59352">
        <ele>83.9</ele>
        <time>2016-03-23T13:43:04Z</time>
      </trkpt>
      <trkpt lat="48.52059" lon="-2.59339">
        <ele>83.7</ele>
        <time>2016-03-23T13:43:06Z</time>
      </trkpt>
      <trkpt lat="48.52067" lon="-2.5933">
        <ele>83.3</ele>
        <time>2016-03-23T13:43:09Z</time>
      </trkpt>
      <trkpt lat="48.52078" lon="-2.59333">
        <ele>82.9</ele>
        <time>2016-03-23T13:43:12Z</time>
      </trkpt>
      <trkpt lat="48.52088" lon="-2.59333">
        <ele>82.7</ele>
        <time>2016-03-23T13:43:15Z</time>
      </trkpt>
      <trkpt lat="48.52101" lon="-2.5933">
        <ele>82.6</ele>
        <time>2016-03-23T13:43:18Z</time>
      </trkpt>
      <trkpt lat="48.5211" lon="-2.59329">
        <ele>82.5</ele>
        <time>2016-03-23T13:43:20Z</time>
      </trkpt>
      <trkpt lat="48.52122" lon="-2.59328">
        <ele>82.3</ele>
        <time>2016-03-23T13:43:23Z</time>
      </trkpt>
      <trkpt lat="48.52132" lon="-2.59329">
        <ele>82.3</ele>
        <time>2016-03-23T13:43:25Z</time>
      </trkpt>
      <trkpt lat="48.52145" lon="-2.59328">
        <ele>82.2</ele>
        <time>2016-03-23T13:43:28Z</time>
      </trkpt>
      <trkpt lat="48.52154" lon="-2.59326">
        <ele>82.1</ele>
        <time>2016-03-23T13:43:30Z</time>
      </trkpt>
      <trkpt lat="48.52165" lon="-2.59325">
        <ele>82.1</ele>
        <time>2016-03-23T13:43:32Z</time>
      </trkpt>
      <trkpt lat="48.52175" lon="-2.59324">
        <ele>82</ele>
        <time>2016-03-23T13:43:34Z</time>
      </trkpt>
      <trkpt lat="48.52186" lon="-2.59322">
        <ele>82</ele>
        <time>2016-03-23T13:43:36Z</time>
      </trkpt>
      <trkpt lat="48.52196" lon="-2.59322">
        <ele>82</ele>
        <time>2016-03-23T13:43:38Z</time>
      </trkpt>
      <trkpt lat="48.52206" lon="-2.59322">
        <ele>82</ele>
        <time>2016-03-23T13:43:40Z</time>
      </trkpt>
      <trkpt lat="48.52216" lon="-2.59321">
        <ele>81.9</ele>
        <time>2016-03-23T13:43:42Z</time>
      </trkpt>
      <trkpt lat="48.52225" lon="-2.59319">
        <ele>81.9</ele>
        <time>2016-03-23T13:43:44Z</time>
      </trkpt>
      <trkpt lat="48.52235" lon="-2.59317">
        <ele>81.9</ele>
        <time>2016-03-23T13:43:46Z</time>
      </trkpt>
      <trkpt lat="48.52246" lon="-2.59317">
        <ele>82</ele>
        <time>2016-03-23T13:43:49Z</time>
      </trkpt>
      <trkpt lat="48.52259" lon="-2.59313">
        <ele>82</ele>
        <time>2016-03-23T13:43:52Z</time>
      </trkpt>
      <trkpt lat="48.52269" lon="-2.59305">
        <ele>82.1</ele>
        <time>2016-03-23T13:43:55Z</time>
      </trkpt>
      <trkpt lat="48.52271" lon="-2.59291">
        <ele>82.1</ele>
        <time>2016-03-23T13:43:58Z</time>
      </trkpt>
      <trkpt lat="48.5227" lon="-2.59276">
        <ele>82.1</ele>
        <time>2016-03-23T13:44:01Z</time>
      </trkpt>
      <trkpt lat="48.52269" lon="-2.59262">
        <ele>82.2</ele>
        <time>2016-03-23T13:44:04Z</time>
      </trkpt>
      <trkpt lat="48.52267" lon="-2.59248">
        <ele>82.2</ele>
        <time>2016-03-23T13:44:07Z</time>
      </trkpt>
      <trkpt lat="48.52264" lon="-2.59231">
        <ele>82.2</ele>
        <time>2016-03-23T13:44:10Z</time>
      </trkpt>
      <trkpt lat="48.52261" lon="-2.59213">
        <ele>82.2</ele>
        <time>2016-03-23T13:44:13Z</time>
      </trkpt>
      <trkpt lat="48.52259" lon="-2.59199">
        <ele>82.2</ele>
        <time>2016-03-23T13:44:15Z</time>
      </trkpt>
      <trkpt lat="48.52257" lon="-2.59185">
        <ele>82.2</ele>
        <time>2016-03-23T13:44:17Z</time>
      </trkpt>
      <trkpt lat="48.52254" lon="-2.59171">
        <ele>82.2</ele>
        <time>2016-03-23T13:44:19Z</time>
      </trkpt>
      <trkpt lat="48.52252" lon="-2.59157">
        <ele>82.1</ele>
        <time>2016-03-23T13:44:21Z</time>
      </trkpt>
      <trkpt lat="48.52249" lon="-2.59143">
        <ele>82</ele>
        <time>2016-03-23T13:44:23Z</time>
      </trkpt>
      <trkpt lat="48.52246" lon="-2.59128">
        <ele>81.9</ele>
        <time>2016-03-23T13:44:25Z</time>
      </trkpt>
      <trkpt lat="48.52243" lon="-2.59112">
        <ele>81.8</ele>
        <time>2016-03-23T13:44:27Z</time>
      </trkpt>
      <trkpt lat="48.5224" lon="-2.59097">
        <ele>81.6</ele>
        <time>2016-03-23T13:44:29Z</time>
      </trkpt>
      <trkpt lat="48.52237" lon="-2.5908">
        <ele>81.5</ele>
        <time>2016-03-23T13:44:31Z</time>
      </trkpt>
      <trkpt lat="48.52234" lon="-2.59063">
        <ele>81.3</ele>
        <time>2016-03-23T13:44:33Z</time>
      </trkpt>
      <trkpt lat="48.52231" lon="-2.59047">
        <ele>81.1</ele>
        <time>2016-03-23T13:44:35Z</time>
      </trkpt>
      <trkpt lat="48.52226" lon="-2.59032">
        <ele>80.9</ele>
        <time>2016-03-23T13:44:37Z</time>
      </trkpt>
      <trkpt lat="48.5222" lon="-2.5902">
        <ele>80.7</ele>
        <time>2016-03-23T13:44:40Z</time>
      </trkpt>
      <trkpt lat="48.52213" lon="-2.59011">
        <ele>80.5</ele>
        <time>2016-03-23T13:44:43Z</time>
      </trkpt>
      <trkpt lat="48.52205" lon="-2.58997">
        <ele>80.3</ele>
        <time>2016-03-23T13:44:46Z</time>
      </trkpt>
      <trkpt lat="48.52199" lon="-2.58986">
        <ele>80.2</ele>
        <time>2016-03-23T13:44:48Z</time>
      </trkpt>
      <trkpt lat="48.52192" lon="-2.58974">
        <ele>80.1</ele>
        <time>2016-03-23T13:44:50Z</time>
      </trkpt>
      <trkpt lat="48.52185" lon="-2.58961">
        <ele>79.9</ele>
        <time>2016-03-23T13:44:52Z</time>
      </trkpt>
      <trkpt lat="48.52178" lon="-2.58948">
        <ele>79.6</ele>
        <time>2016-03-23T13:44:54Z</time>
      </trkpt>
      <trkpt lat="48.52171" lon="-2.58933">
        <ele>79.4</ele>
        <time>2016-03-23T13:44:56Z</time>
      </trkpt>
      <trkpt lat="48.52165" lon="-2.58917">
        <ele>79.2</ele>
        <time>2016-03-23T13:44:58Z</time>
      </trkpt>
      <trkpt lat="48.5216" lon="-2.589">
        <ele>79</ele>
        <time>2016-03-23T13:45:00Z</time>
      </trkpt>
      <trkpt lat="48.52156" lon="-2.58883">
        <ele>78.8</ele>
        <time>2016-03-23T13:45:02Z</time>
      </trkpt>
      <trkpt lat="48.52151" lon="-2.58866">
        <ele>78.6</ele>
        <time>2016-03-23T13:45:04Z</time>
      </trkpt>
      <trkpt lat="48.52147" lon="-2.58849">
        <ele>78.4</ele>
        <time>2016-03-23T13:45:06Z</time>
      </trkpt>
      <trkpt lat="48.52142" lon="-2.58832">
        <ele>78.2</ele>
        <time>2016-03-23T13:45:08Z</time>
      </trkpt>
      <trkpt lat="48.52138" lon="-2.58815">
        <ele>78.1</ele>
        <time>2016-03-23T13:45:10Z</time>
      </trkpt>
      <trkpt lat="48.52134" lon="-2.58798">
        <ele>77.8</ele>
        <time>2016-03-23T13:45:12Z</time>
      </trkpt>
      <trkpt lat="48.52129" lon="-2.58781">
        <ele>77.6</ele>
        <time>2016-03-23T13:45:14Z</time>
      </trkpt>
      <trkpt lat="48.52126" lon="-2.58765">
        <ele>77.4</ele>
        <time>2016-03-23T13:45:16Z</time>
      </trkpt>
      <trkpt lat="48.52122" lon="-2.58748">
        <ele>77.2</ele>
        <time>2016-03-23T13:45:18Z</time>
      </trkpt>
      <trkpt lat="48.52119" lon="-2.58732">
        <ele>77.1</ele>
        <time>2016-03-23T13:45:20Z</time>
      </trkpt>
      <trkpt lat="48.52116" lon="-2.58716">
        <ele>76.9</ele>
        <time>2016-03-23T13:45:22Z</time>
      </trkpt>
      <trkpt lat="48.52112" lon="-2.58699">
        <ele>76.8</ele>
        <time>2016-03-23T13:45:24Z</time>
      </trkpt>
      <trkpt lat="48.5211" lon="-2.58682">
        <ele>76.7</ele>
        <time>2016-03-23T13:45:26Z</time>
      </trkpt>
      <trkpt lat="48.52106" lon="-2.58665">
        <ele>76.6</ele>
        <time>2016-03-23T13:45:28Z</time>
      </trkpt>
      <trkpt lat="48.52103" lon="-2.58648">
        <ele>76.6</ele>
        <time>2016-03-23T13:45:30Z</time>
      </trkpt>
      <trkpt lat="48.521" lon="-2.58631">
        <ele>76.5</ele>
        <time>2016-03-23T13:45:32Z</time>
      </trkpt>
      <trkpt lat="48.52097" lon="-2.58613">
        <ele>76.4</ele>
        <time>2016-03-23T13:45:34Z</time>
      </trkpt>
      <trkpt lat="48.52095" lon="-2.58595">
        <ele>76.4</ele>
        <time>2016-03-23T13:45:36Z</time>
      </trkpt>
      <trkpt lat="48.52093" lon="-2.58577">
        <ele>76.3</ele>
        <time>2016-03-23T13:45:38Z</time>
      </trkpt>
      <trkpt lat="48.5209" lon="-2.5856">
        <ele>76.3</ele>
        <time>2016-03-23T13:45:40Z</time>
      </trkpt>
      <trkpt lat="48.52087" lon="-2.58543">
        <ele>76.2</ele>
        <time>2016-03-23T13:45:42Z</time>
      </trkpt>
      <trkpt lat="48.52084" lon="-2.58525">
        <ele>76.1</ele>
        <time>2016-03-23T13:45:44Z</time>
      </trkpt>
      <trkpt lat="48.52082" lon="-2.58508">
        <ele>76.1</ele>
        <time>2016-03-23T13:45:46Z</time>
      </trkpt>
      <trkpt lat="48.5208" lon="-2.5849">
        <ele>76</ele>
        <time>2016-03-23T13:45:48Z</time>
      </trkpt>
      <trkpt lat="48.52078" lon="-2.5847">
        <ele>75.9</ele>
        <time>2016-03-23T13:45:50Z</time>
      </trkpt>
      <trkpt lat="48.52077" lon="-2.5845">
        <ele>75.6</ele>
        <time>2016-03-23T13:45:52Z</time>
      </trkpt>
      <trkpt lat="48.52076" lon="-2.5843">
        <ele>75.4</ele>
        <time>2016-03-23T13:45:54Z</time>
      </trkpt>
      <trkpt lat="48.52074" lon="-2.5841">
        <ele>75.1</ele>
        <time>2016-03-23T13:45:56Z</time>
      </trkpt>
      <trkpt lat="48.52071" lon="-2.5839">
        <ele>74.9</ele>
        <time>2016-03-23T13:45:58Z</time>
      </trkpt>
      <trkpt lat="48.52068" lon="-2.5837">
        <ele>74.8</ele>
        <time>2016-03-23T13:46:00Z</time>
      </trkpt>
      <trkpt lat="48.52064" lon="-2.5835">
        <ele>74.6</ele>
        <time>2016-03-23T13:46:02Z</time>
      </trkpt>
      <trkpt lat="48.5206" lon="-2.5833">
        <ele>74.4</ele>
        <time>2016-03-23T13:46:04Z</time>
      </trkpt>
      <trkpt lat="48.52056" lon="-2.58311">
        <ele>74.1</ele>
        <time>2016-03-23T13:46:06Z</time>
      </trkpt>
      <trkpt lat="48.52052" lon="-2.58291">
        <ele>73.8</ele>
        <time>2016-03-23T13:46:08Z</time>
      </trkpt>
      <trkpt lat="48.52046" lon="-2.58271">
        <ele>73.6</ele>
        <time>2016-03-23T13:46:10Z</time>
      </trkpt>
      <trkpt lat="48.52041" lon="-2.58252">
        <ele>73.3</ele>
        <time>2016-03-23T13:46:12Z</time>
      </trkpt>
      <trkpt lat="48.52035" lon="-2.58235">
        <ele>73.1</ele>
        <time>2016-03-23T13:46:14Z</time>
      </trkpt>
      <trkpt lat="48.5203" lon="-2.58218">
        <ele>72.8</ele>
        <time>2016-03-23T13:46:16Z</time>
      </trkpt>
      <trkpt lat="48.52026" lon="-2.58206">
        <ele>72.6</ele>
        <time>2016-03-23T13:46:18Z</time>
      </trkpt>
      <trkpt lat="48.52019" lon="-2.58195">
        <ele>70.7</ele>
        <time>2016-03-23T13:46:56Z</time>
      </trkpt>
      <trkpt lat="48.52008" lon="-2.58198">
        <ele>70.7</ele>
        <time>2016-03-23T13:47:01Z</time>
      </trkpt>
      <trkpt lat="48.51997" lon="-2.58204">
        <ele>70.8</ele>
        <time>2016-03-23T13:47:04Z</time>
      </trkpt>
      <trkpt lat="48.51984" lon="-2.58209">
        <ele>70.8</ele>
        <time>2016-03-23T13:47:07Z</time>
      </trkpt>
      <trkpt lat="48.51974" lon="-2.58212">
        <ele>70.8</ele>
        <time>2016-03-23T13:47:09Z</time>
      </trkpt>
      <trkpt lat="48.51965" lon="-2.58216">
        <ele>70.8</ele>
        <time>2016-03-23T13:47:11Z</time>
      </trkpt>
      <trkpt lat="48.51955" lon="-2.5822">
        <ele>70.9</ele>
        <time>2016-03-23T13:47:13Z</time>
      </trkpt>
      <trkpt lat="48.51947" lon="-2.58227">
        <ele>70.9</ele>
        <time>2016-03-23T13:47:15Z</time>
      </trkpt>
      <trkpt lat="48.51938" lon="-2.5824">
        <ele>70.9</ele>
        <time>2016-03-23T13:47:18Z</time>
      </trkpt>
      <trkpt lat="48.51933" lon="-2.58259">
        <ele>71</ele>
        <time>2016-03-23T13:47:21Z</time>
      </trkpt>
      <trkpt lat="48.5193" lon="-2.58279">
        <ele>71.1</ele>
        <time>2016-03-23T13:47:24Z</time>
      </trkpt>
      <trkpt lat="48.51924" lon="-2.58297">
        <ele>71.3</ele>
        <time>2016-03-23T13:47:27Z</time>
      </trkpt>
      <trkpt lat="48.51917" lon="-2.58306">
        <ele>71.4</ele>
        <time>2016-03-23T13:47:29Z</time>
      </trkpt>
      <trkpt lat="48.51908" lon="-2.58313">
        <ele>71.5</ele>
        <time>2016-03-23T13:47:31Z</time>
      </trkpt>
      <trkpt lat="48.519" lon="-2.5832">
        <ele>71.7</ele>
        <time>2016-03-23T13:47:33Z</time>
      </trkpt>
      <trkpt lat="48.51891" lon="-2.58328">
        <ele>71.8</ele>
        <time>2016-03-23T13:47:35Z</time>
      </trkpt>
      <trkpt lat="48.51882" lon="-2.58336">
        <ele>72</ele>
        <time>2016-03-23T13:47:37Z</time>
      </trkpt>
      <trkpt lat="48.51874" lon="-2.58345">
        <ele>72.1</ele>
        <time>2016-03-23T13:47:39Z</time>
      </trkpt>
      <trkpt lat="48.51866" lon="-2.58354">
        <ele>72.2</ele>
        <time>2016-03-23T13:47:41Z</time>
      </trkpt>
      <trkpt lat="48.51858" lon="-2.58363">
        <ele>72.2</ele>
        <time>2016-03-23T13:47:43Z</time>
      </trkpt>
      <trkpt lat="48.5185" lon="-2.58373">
        <ele>72.3</ele>
        <time>2016-03-23T13:47:45Z</time>
      </trkpt>
      <trkpt lat="48.51842" lon="-2.58382">
        <ele>72.4</ele>
        <time>2016-03-23T13:47:47Z</time>
      </trkpt>
      <trkpt lat="48.51834" lon="-2.58391">
        <ele>72.4</ele>
        <time>2016-03-23T13:47:49Z</time>
      </trkpt>
      <trkpt lat="48.51826" lon="-2.58399">
        <ele>72.5</ele>
        <time>2016-03-23T13:47:51Z</time>
      </trkpt>
      <trkpt lat="48.51817" lon="-2.58406">
        <ele>72.6</ele>
        <time>2016-03-23T13:47:53Z</time>
      </trkpt>
      <trkpt lat="48.51808" lon="-2.58412">
        <ele>72.7</ele>
        <time>2016-03-23T13:47:55Z</time>
      </trkpt>
      <trkpt lat="48.51799" lon="-2.58418">
        <ele>72.8</ele>
        <time>2016-03-23T13:47:57Z</time>
      </trkpt>
      <trkpt lat="48.5179" lon="-2.58425">
        <ele>72.8</ele>
        <time>2016-03-23T13:47:59Z</time>
      </trkpt>
      <trkpt lat="48.51783" lon="-2.58435">
        <ele>72.9</ele>
        <time>2016-03-23T13:48:01Z</time>
      </trkpt>
      <trkpt lat="48.51775" lon="-2.58445">
        <ele>72.9</ele>
        <time>2016-03-23T13:48:03Z</time>
      </trkpt>
      <trkpt lat="48.51768" lon="-2.58455">
        <ele>73</ele>
        <time>2016-03-23T13:48:05Z</time>
      </trkpt>
      <trkpt lat="48.51761" lon="-2.58465">
        <ele>73.1</ele>
        <time>2016-03-23T13:48:07Z</time>
      </trkpt>
      <trkpt lat="48.51754" lon="-2.58475">
        <ele>73.1</ele>
        <time>2016-03-23T13:48:09Z</time>
      </trkpt>
      <trkpt lat="48.51746" lon="-2.58485">
        <ele>73.2</ele>
        <time>2016-03-23T13:48:11Z</time>
      </trkpt>
      <trkpt lat="48.51739" lon="-2.58495">
        <ele>73.3</ele>
        <time>2016-03-23T13:48:13Z</time>
      </trkpt>
      <trkpt lat="48.51731" lon="-2.58504">
        <ele>73.4</ele>
        <time>2016-03-23T13:48:15Z</time>
      </trkpt>
      <trkpt lat="48.51723" lon="-2.58513">
        <ele>73.5</ele>
        <time>2016-03-23T13:48:17Z</time>
      </trkpt>
      <trkpt lat="48.51715" lon="-2.58521">
        <ele>73.7</ele>
        <time>2016-03-23T13:48:19Z</time>
      </trkpt>
      <trkpt lat="48.51706" lon="-2.58529">
        <ele>73.8</ele>
        <time>2016-03-23T13:48:21Z</time>
      </trkpt>
      <trkpt lat="48.51698" lon="-2.58537">
        <ele>73.9</ele>
        <time>2016-03-23T13:48:23Z</time>
      </trkpt>
      <trkpt lat="48.5169" lon="-2.58546">
        <ele>74.1</ele>
        <time>2016-03-23T13:48:25Z</time>
      </trkpt>
      <trkpt lat="48.51681" lon="-2.58556">
        <ele>74.2</ele>
        <time>2016-03-23T13:48:27Z</time>
      </trkpt>
      <trkpt lat="48.51673" lon="-2.58567">
        <ele>74.3</ele>
        <time>2016-03-23T13:48:29Z</time>
      </trkpt>
      <trkpt lat="48.51665" lon="-2.58578">
        <ele>74.4</ele>
        <time>2016-03-23T13:48:31Z</time>
      </trkpt>
      <trkpt lat="48.51657" lon="-2.58589">
        <ele>74.4</ele>
        <time>2016-03-23T13:48:33Z</time>
      </trkpt>
      <trkpt lat="48.5165" lon="-2.58601">
        <ele>74.5</ele>
        <time>2016-03-23T13:48:35Z</time>
      </trkpt>
      <trkpt lat="48.51643" lon="-2.58612">
        <ele>74.6</ele>
        <time>2016-03-23T13:48:37Z</time>
      </trkpt>
      <trkpt lat="48.51636" lon="-2.58624">
        <ele>74.6</ele>
        <time>2016-03-23T13:48:39Z</time>
      </trkpt>
      <trkpt lat="48.51629" lon="-2.58636">
        <ele>74.7</ele>
        <time>2016-03-23T13:48:41Z</time>
      </trkpt>
      <trkpt lat="48.51622" lon="-2.58647">
        <ele>74.8</ele>
        <time>2016-03-23T13:48:43Z</time>
      </trkpt>
      <trkpt lat="48.51615" lon="-2.58658">
        <ele>74.9</ele>
        <time>2016-03-23T13:48:45Z</time>
      </trkpt>
      <trkpt lat="48.51608" lon="-2.58669">
        <ele>75.1</ele>
        <time>2016-03-23T13:48:47Z</time>
      </trkpt>
      <trkpt lat="48.516" lon="-2.58679">
        <ele>75.2</ele>
        <time>2016-03-23T13:48:49Z</time>
      </trkpt>
      <trkpt lat="48.51591" lon="-2.58688">
        <ele>75.4</ele>
        <time>2016-03-23T13:48:51Z</time>
      </trkpt>
      <trkpt lat="48.51582" lon="-2.58696">
        <ele>75.5</ele>
        <time>2016-03-23T13:48:53Z</time>
      </trkpt>
      <trkpt lat="48.51573" lon="-2.58704">
        <ele>75.7</ele>
        <time>2016-03-23T13:48:55Z</time>
      </trkpt>
      <trkpt lat="48.51564" lon="-2.58712">
        <ele>75.9</ele>
        <time>2016-03-23T13:48:57Z</time>
      </trkpt>
      <trkpt lat="48.51555" lon="-2.58719">
        <ele>76.1</ele>
        <time>2016-03-23T13:48:59Z</time>
      </trkpt>
      <trkpt lat="48.51545" lon="-2.58727">
        <ele>76.2</ele>
        <time>2016-03-23T13:49:01Z</time>
      </trkpt>
      <trkpt lat="48.51533" lon="-2.58738">
        <ele>76.4</ele>
        <time>2016-03-23T13:49:03Z</time>
      </trkpt>
      <trkpt lat="48.51522" lon="-2.58748">
        <ele>76.6</ele>
        <time>2016-03-23T13:49:05Z</time>
      </trkpt>
      <trkpt lat="48.51511" lon="-2.58759">
        <ele>76.7</ele>
        <time>2016-03-23T13:49:07Z</time>
      </trkpt>
      <trkpt lat="48.51501" lon="-2.58769">
        <ele>76.8</ele>
        <time>2016-03-23T13:49:09Z</time>
      </trkpt>
      <trkpt lat="48.51492" lon="-2.5878">
        <ele>76.9</ele>
        <time>2016-03-23T13:49:11Z</time>
      </trkpt>
      <trkpt lat="48.51483" lon="-2.58791">
        <ele>77</ele>
        <time>2016-03-23T13:49:13Z</time>
      </trkpt>
      <trkpt lat="48.51475" lon="-2.58802">
        <ele>77.1</ele>
        <time>2016-03-23T13:49:15Z</time>
      </trkpt>
      <trkpt lat="48.51466" lon="-2.58814">
        <ele>77.2</ele>
        <time>2016-03-23T13:49:17Z</time>
      </trkpt>
      <trkpt lat="48.51457" lon="-2.58825">
        <ele>77.3</ele>
        <time>2016-03-23T13:49:19Z</time>
      </trkpt>
      <trkpt lat="48.51449" lon="-2.58838">
        <ele>77.4</ele>
        <time>2016-03-23T13:49:21Z</time>
      </trkpt>
      <trkpt lat="48.51444" lon="-2.58851">
        <ele>77.4</ele>
        <time>2016-03-23T13:49:23Z</time>
      </trkpt>
      <trkpt lat="48.51441" lon="-2.58865">
        <ele>77.5</ele>
        <time>2016-03-23T13:49:25Z</time>
      </trkpt>
      <trkpt lat="48.51438" lon="-2.58879">
        <ele>77.6</ele>
        <time>2016-03-23T13:49:27Z</time>
      </trkpt>
      <trkpt lat="48.51436" lon="-2.58894">
        <ele>77.7</ele>
        <time>2016-03-23T13:49:29Z</time>
      </trkpt>
      <trkpt lat="48.51435" lon="-2.58909">
        <ele>77.7</ele>
        <time>2016-03-23T13:49:31Z</time>
      </trkpt>
      <trkpt lat="48.51433" lon="-2.58925">
        <ele>77.8</ele>
        <time>2016-03-23T13:49:33Z</time>
      </trkpt>
      <trkpt lat="48.51432" lon="-2.58941">
        <ele>77.8</ele>
        <time>2016-03-23T13:49:35Z</time>
      </trkpt>
      <trkpt lat="48.51431" lon="-2.58958">
        <ele>77.8</ele>
        <time>2016-03-23T13:49:37Z</time>
      </trkpt>
      <trkpt lat="48.51429" lon="-2.58974">
        <ele>77.8</ele>
        <time>2016-03-23T13:49:39Z</time>
      </trkpt>
      <trkpt lat="48.51428" lon="-2.5899">
        <ele>77.7</ele>
        <time>2016-03-23T13:49:41Z</time>
      </trkpt>
      <trkpt lat="48.51427" lon="-2.59006">
        <ele>77.6</ele>
        <time>2016-03-23T13:49:43Z</time>
      </trkpt>
      <trkpt lat="48.51425" lon="-2.59023">
        <ele>77.6</ele>
        <time>2016-03-23T13:49:45Z</time>
      </trkpt>
      <trkpt lat="48.51423" lon="-2.5904">
        <ele>77.5</ele>
        <time>2016-03-23T13:49:47Z</time>
      </trkpt>
      <trkpt lat="48.5142" lon="-2.59056">
        <ele>77.5</ele>
        <time>2016-03-23T13:49:49Z</time>
      </trkpt>
      <trkpt lat="48.51416" lon="-2.59072">
        <ele>77.4</ele>
        <time>2016-03-23T13:49:51Z</time>
      </trkpt>
      <trkpt lat="48.51411" lon="-2.59087">
        <ele>77.4</ele>
        <time>2016-03-23T13:49:53Z</time>
      </trkpt>
      <trkpt lat="48.51405" lon="-2.59102">
        <ele>77.3</ele>
        <time>2016-03-23T13:49:55Z</time>
      </trkpt>
      <trkpt lat="48.51398" lon="-2.59117">
        <ele>77.2</ele>
        <time>2016-03-23T13:49:57Z</time>
      </trkpt>
      <trkpt lat="48.51391" lon="-2.59132">
        <ele>77.1</ele>
        <time>2016-03-23T13:49:59Z</time>
      </trkpt>
      <trkpt lat="48.51384" lon="-2.59147">
        <ele>76.9</ele>
        <time>2016-03-23T13:50:01Z</time>
      </trkpt>
      <trkpt lat="48.51377" lon="-2.59163">
        <ele>76.7</ele>
        <time>2016-03-23T13:50:03Z</time>
      </trkpt>
      <trkpt lat="48.51372" lon="-2.59182">
        <ele>76.5</ele>
        <time>2016-03-23T13:50:05Z</time>
      </trkpt>
      <trkpt lat="48.5137" lon="-2.592">
        <ele>76.2</ele>
        <time>2016-03-23T13:50:07Z</time>
      </trkpt>
      <trkpt lat="48.51366" lon="-2.59219">
        <ele>75.9</ele>
        <time>2016-03-23T13:50:09Z</time>
      </trkpt>
      <trkpt lat="48.51363" lon="-2.59236">
        <ele>75.7</ele>
        <time>2016-03-23T13:50:11Z</time>
      </trkpt>
      <trkpt lat="48.51358" lon="-2.59253">
        <ele>75.5</ele>
        <time>2016-03-23T13:50:13Z</time>
      </trkpt>
      <trkpt lat="48.51352" lon="-2.59268">
        <ele>75.2</ele>
        <time>2016-03-23T13:50:15Z</time>
      </trkpt>
      <trkpt lat="48.51345" lon="-2.59282">
        <ele>75</ele>
        <time>2016-03-23T13:50:17Z</time>
      </trkpt>
      <trkpt lat="48.51339" lon="-2.59293">
        <ele>74.9</ele>
        <time>2016-03-23T13:50:19Z</time>
      </trkpt>
      <trkpt lat="48.51333" lon="-2.59305">
        <ele>74.8</ele>
        <time>2016-03-23T13:50:21Z</time>
      </trkpt>
      <trkpt lat="48.51327" lon="-2.59317">
        <ele>74.7</ele>
        <time>2016-03-23T13:50:23Z</time>
      </trkpt>
      <trkpt lat="48.5132" lon="-2.59332">
        <ele>74.6</ele>
        <time>2016-03-23T13:50:25Z</time>
      </trkpt>
      <trkpt lat="48.51314" lon="-2.59348">
        <ele>74.6</ele>
        <time>2016-03-23T13:50:27Z</time>
      </trkpt>
      <trkpt lat="48.51307" lon="-2.59361">
        <ele>74.6</ele>
        <time>2016-03-23T13:50:29Z</time>
      </trkpt>
      <trkpt lat="48.51299" lon="-2.59373">
        <ele>74.5</ele>
        <time>2016-03-23T13:50:31Z</time>
      </trkpt>
      <trkpt lat="48.51291" lon="-2.59388">
        <ele>74.5</ele>
        <time>2016-03-23T13:50:33Z</time>
      </trkpt>
      <trkpt lat="48.51283" lon="-2.59402">
        <ele>74.5</ele>
        <time>2016-03-23T13:50:35Z</time>
      </trkpt>
      <trkpt lat="48.51275" lon="-2.59417">
        <ele>74.5</ele>
        <time>2016-03-23T13:50:37Z</time>
      </trkpt>
      <trkpt lat="48.51267" lon="-2.59433">
        <ele>74.5</ele>
        <time>2016-03-23T13:50:39Z</time>
      </trkpt>
      <trkpt lat="48.5126" lon="-2.59449">
        <ele>74.5</ele>
        <time>2016-03-23T13:50:41Z</time>
      </trkpt>
      <trkpt lat="48.51253" lon="-2.59464">
        <ele>74.3</ele>
        <time>2016-03-23T13:50:43Z</time>
      </trkpt>
      <trkpt lat="48.51247" lon="-2.59481">
        <ele>74.2</ele>
        <time>2016-03-23T13:50:45Z</time>
      </trkpt>
      <trkpt lat="48.51242" lon="-2.59498">
        <ele>74</ele>
        <time>2016-03-23T13:50:47Z</time>
      </trkpt>
      <trkpt lat="48.51239" lon="-2.59516">
        <ele>73.8</ele>
        <time>2016-03-23T13:50:49Z</time>
      </trkpt>
      <trkpt lat="48.51237" lon="-2.59533">
        <ele>73.5</ele>
        <time>2016-03-23T13:50:51Z</time>
      </trkpt>
      <trkpt lat="48.51234" lon="-2.5955">
        <ele>73.3</ele>
        <time>2016-03-23T13:50:53Z</time>
      </trkpt>
      <trkpt lat="48.5123" lon="-2.59562">
        <ele>73</ele>
        <time>2016-03-23T13:50:55Z</time>
      </trkpt>
      <trkpt lat="48.51221" lon="-2.59568">
        <ele>72.8</ele>
        <time>2016-03-23T13:50:57Z</time>
      </trkpt>
      <trkpt lat="48.5121" lon="-2.59569">
        <ele>72.5</ele>
        <time>2016-03-23T13:50:59Z</time>
      </trkpt>
      <trkpt lat="48.51199" lon="-2.5957">
        <ele>72.2</ele>
        <time>2016-03-23T13:51:01Z</time>
      </trkpt>
      <trkpt lat="48.51188" lon="-2.59571">
        <ele>71.9</ele>
        <time>2016-03-23T13:51:03Z</time>
      </trkpt>
      <trkpt lat="48.51175" lon="-2.59576">
        <ele>71.5</ele>
        <time>2016-03-23T13:51:05Z</time>
      </trkpt>
      <trkpt lat="48.51163" lon="-2.59585">
        <ele>71.1</ele>
        <time>2016-03-23T13:51:07Z</time>
      </trkpt>
      <trkpt lat="48.5115" lon="-2.59595">
        <ele>70.7</ele>
        <time>2016-03-23T13:51:09Z</time>
      </trkpt>
      <trkpt lat="48.51138" lon="-2.59606">
        <ele>70.1</ele>
        <time>2016-03-23T13:51:11Z</time>
      </trkpt>
      <trkpt lat="48.51127" lon="-2.5962">
        <ele>69.5</ele>
        <time>2016-03-23T13:51:13Z</time>
      </trkpt>
      <trkpt lat="48.51117" lon="-2.59635">
        <ele>68.9</ele>
        <time>2016-03-23T13:51:15Z</time>
      </trkpt>
      <trkpt lat="48.51107" lon="-2.59651">
        <ele>68.1</ele>
        <time>2016-03-23T13:51:17Z</time>
      </trkpt>
      <trkpt lat="48.51096" lon="-2.59666">
        <ele>67.4</ele>
        <time>2016-03-23T13:51:19Z</time>
      </trkpt>
      <trkpt lat="48.51086" lon="-2.59677">
        <ele>66.6</ele>
        <time>2016-03-23T13:51:21Z</time>
      </trkpt>
      <trkpt lat="48.51076" lon="-2.59685">
        <ele>65.5</ele>
        <time>2016-03-23T13:51:24Z</time>
      </trkpt>
      <trkpt lat="48.51065" lon="-2.59682">
        <ele>64.6</ele>
        <time>2016-03-23T13:51:27Z</time>
      </trkpt>
      <trkpt lat="48.51054" lon="-2.59676">
        <ele>63.7</ele>
        <time>2016-03-23T13:51:30Z</time>
      </trkpt>
      <trkpt lat="48.51049" lon="-2.59687">
        <ele>63</ele>
        <time>2016-03-23T13:51:33Z</time>
      </trkpt>
      <trkpt lat="48.51051" lon="-2.59701">
        <ele>62.4</ele>
        <time>2016-03-23T13:51:36Z</time>
      </trkpt>
      <trkpt lat="48.51051" lon="-2.5972">
        <ele>61.9</ele>
        <time>2016-03-23T13:51:39Z</time>
      </trkpt>
      <trkpt lat="48.51046" lon="-2.59736">
        <ele>61.6</ele>
        <time>2016-03-23T13:51:42Z</time>
      </trkpt>
      <trkpt lat="48.51038" lon="-2.59744">
        <ele>61.6</ele>
        <time>2016-03-23T13:51:45Z</time>
      </trkpt>
      <trkpt lat="48.51029" lon="-2.59749">
        <ele>61.6</ele>
        <time>2016-03-23T13:51:48Z</time>
      </trkpt>
      <trkpt lat="48.51017" lon="-2.59757">
        <ele>61.5</ele>
        <time>2016-03-23T13:51:51Z</time>
      </trkpt>
      <trkpt lat="48.51008" lon="-2.5976">
        <ele>61.5</ele>
        <time>2016-03-23T13:51:53Z</time>
      </trkpt>
      <trkpt lat="48.50999" lon="-2.59768">
        <ele>61.5</ele>
        <time>2016-03-23T13:52:06Z</time>
      </trkpt>
      <trkpt lat="48.50989" lon="-2.59776">
        <ele>61.5</ele>
        <time>2016-03-23T13:52:09Z</time>
      </trkpt>
      <trkpt lat="48.50978" lon="-2.59787">
        <ele>61.5</ele>
        <time>2016-03-23T13:52:12Z</time>
      </trkpt>
      <trkpt lat="48.50969" lon="-2.59794">
        <ele>61.5</ele>
        <time>2016-03-23T13:52:14Z</time>
      </trkpt>
      <trkpt lat="48.50961" lon="-2.59803">
        <ele>61.5</ele>
        <time>2016-03-23T13:52:16Z</time>
      </trkpt>
      <trkpt lat="48.50952" lon="-2.59811">
        <ele>61.5</ele>
        <time>2016-03-23T13:52:18Z</time>
      </trkpt>
      <trkpt lat="48.50942" lon="-2.59819">
        <ele>61.5</ele>
        <time>2016-03-23T13:52:20Z</time>
      </trkpt>
      <trkpt lat="48.50932" lon="-2.59828">
        <ele>61.5</ele>
        <time>2016-03-23T13:52:22Z</time>
      </trkpt>
      <trkpt lat="48.50922" lon="-2.59837">
        <ele>61.5</ele>
        <time>2016-03-23T13:52:24Z</time>
      </trkpt>
      <trkpt lat="48.50913" lon="-2.59846">
        <ele>61.4</ele>
        <time>2016-03-23T13:52:26Z</time>
      </trkpt>
      <trkpt lat="48.50904" lon="-2.59855">
        <ele>61.4</ele>
        <time>2016-03-23T13:52:28Z</time>
      </trkpt>
      <trkpt lat="48.50896" lon="-2.59865">
        <ele>61.3</ele>
        <time>2016-03-23T13:52:30Z</time>
      </trkpt>
      <trkpt lat="48.50888" lon="-2.59874">
        <ele>61.2</ele>
        <time>2016-03-23T13:52:32Z</time>
      </trkpt>
      <trkpt lat="48.50881" lon="-2.59883">
        <ele>61.1</ele>
        <time>2016-03-23T13:52:34Z</time>
      </trkpt>
      <trkpt lat="48.50873" lon="-2.59896">
        <ele>61</ele>
        <time>2016-03-23T13:52:37Z</time>
      </trkpt>
      <trkpt lat="48.50868" lon="-2.59909">
        <ele>61</ele>
        <time>2016-03-23T13:52:40Z</time>
      </trkpt>
      <trkpt lat="48.50867" lon="-2.59925">
        <ele>60.9</ele>
        <time>2016-03-23T13:52:44Z</time>
      </trkpt>
      <trkpt lat="48.50868" lon="-2.59941">
        <ele>61</ele>
        <time>2016-03-23T13:52:48Z</time>
      </trkpt>
      <trkpt lat="48.5087" lon="-2.59958">
        <ele>61.1</ele>
        <time>2016-03-23T13:52:52Z</time>
      </trkpt>
      <trkpt lat="48.50871" lon="-2.59972">
        <ele>61.7</ele>
        <time>2016-03-23T13:53:02Z</time>
      </trkpt>
      <trkpt lat="48.50867" lon="-2.59985">
        <ele>62.8</ele>
        <time>2016-03-23T13:53:44Z</time>
      </trkpt>
      <trkpt lat="48.50859" lon="-2.59995">
        <ele>62.9</ele>
        <time>2016-03-23T13:53:48Z</time>
      </trkpt>
      <trkpt lat="48.50851" lon="-2.60004">
        <ele>62.8</ele>
        <time>2016-03-23T13:53:51Z</time>
      </trkpt>
      <trkpt lat="48.50841" lon="-2.60016">
        <ele>62.7</ele>
        <time>2016-03-23T13:53:54Z</time>
      </trkpt>
      <trkpt lat="48.5083" lon="-2.60029">
        <ele>62.5</ele>
        <time>2016-03-23T13:53:57Z</time>
      </trkpt>
      <trkpt lat="48.50822" lon="-2.60039">
        <ele>62.4</ele>
        <time>2016-03-23T13:53:59Z</time>
      </trkpt>
      <trkpt lat="48.50814" lon="-2.60051">
        <ele>62.1</ele>
        <time>2016-03-23T13:54:01Z</time>
      </trkpt>
      <trkpt lat="48.50807" lon="-2.60064">
        <ele>61.8</ele>
        <time>2016-03-23T13:54:03Z</time>
      </trkpt>
      <trkpt lat="48.508" lon="-2.60076">
        <ele>61.4</ele>
        <time>2016-03-23T13:54:05Z</time>
      </trkpt>
      <trkpt lat="48.50794" lon="-2.60088">
        <ele>61</ele>
        <time>2016-03-23T13:54:07Z</time>
      </trkpt>
      <trkpt lat="48.50788" lon="-2.60103">
        <ele>60.6</ele>
        <time>2016-03-23T13:54:09Z</time>
      </trkpt>
      <trkpt lat="48.50782" lon="-2.60118">
        <ele>60.2</ele>
        <time>2016-03-23T13:54:11Z</time>
      </trkpt>
      <trkpt lat="48.50782" lon="-2.60132">
        <ele>59.9</ele>
        <time>2016-03-23T13:54:13Z</time>
      </trkpt>
      <trkpt lat="48.50788" lon="-2.60149">
        <ele>59.4</ele>
        <time>2016-03-23T13:54:16Z</time>
      </trkpt>
      <trkpt lat="48.50795" lon="-2.60164">
        <ele>58.9</ele>
        <time>2016-03-23T13:54:19Z</time>
      </trkpt>
      <trkpt lat="48.508" lon="-2.6018">
        <ele>58.5</ele>
        <time>2016-03-23T13:54:22Z</time>
      </trkpt>
      <trkpt lat="48.50799" lon="-2.60194">
        <ele>58.1</ele>
        <time>2016-03-23T13:54:24Z</time>
      </trkpt>
      <trkpt lat="48.50795" lon="-2.60209">
        <ele>57.7</ele>
        <time>2016-03-23T13:54:26Z</time>
      </trkpt>
      <trkpt lat="48.50789" lon="-2.60227">
        <ele>57.4</ele>
        <time>2016-03-23T13:54:28Z</time>
      </trkpt>
      <trkpt lat="48.50784" lon="-2.60243">
        <ele>56.9</ele>
        <time>2016-03-23T13:54:30Z</time>
      </trkpt>
      <trkpt lat="48.5078" lon="-2.60259">
        <ele>56.4</ele>
        <time>2016-03-23T13:54:32Z</time>
      </trkpt>
      <trkpt lat="48.50775" lon="-2.60275">
        <ele>56</ele>
        <time>2016-03-23T13:54:34Z</time>
      </trkpt>
      <trkpt lat="48.50771" lon="-2.60291">
        <ele>55.5</ele>
        <time>2016-03-23T13:54:36Z</time>
      </trkpt>
      <trkpt lat="48.50768" lon="-2.6031">
        <ele>55.1</ele>
        <time>2016-03-23T13:54:38Z</time>
      </trkpt>
      <trkpt lat="48.50765" lon="-2.60327">
        <ele>54.6</ele>
        <time>2016-03-23T13:54:40Z</time>
      </trkpt>
      <trkpt lat="48.50764" lon="-2.60343">
        <ele>54.2</ele>
        <time>2016-03-23T13:54:42Z</time>
      </trkpt>
      <trkpt lat="48.50763" lon="-2.60359">
        <ele>53.8</ele>
        <time>2016-03-23T13:54:44Z</time>
      </trkpt>
      <trkpt lat="48.50763" lon="-2.60376">
        <ele>53.5</ele>
        <time>2016-03-23T13:54:46Z</time>
      </trkpt>
      <trkpt lat="48.50761" lon="-2.60392">
        <ele>53.2</ele>
        <time>2016-03-23T13:54:48Z</time>
      </trkpt>
      <trkpt lat="48.50757" lon="-2.60411">
        <ele>52.8</ele>
        <time>2016-03-23T13:54:51Z</time>
      </trkpt>
      <trkpt lat="48.50752" lon="-2.60424">
        <ele>52.5</ele>
        <time>2016-03-23T13:54:54Z</time>
      </trkpt>
      <trkpt lat="48.50744" lon="-2.60436">
        <ele>51.6</ele>
        <time>2016-03-23T13:55:15Z</time>
      </trkpt>
      <trkpt lat="48.50734" lon="-2.60438">
        <ele>51.6</ele>
        <time>2016-03-23T13:55:18Z</time>
      </trkpt>
      <trkpt lat="48.50722" lon="-2.60438">
        <ele>51.6</ele>
        <time>2016-03-23T13:55:21Z</time>
      </trkpt>
      <trkpt lat="48.5071" lon="-2.60446">
        <ele>51.5</ele>
        <time>2016-03-23T13:55:24Z</time>
      </trkpt>
      <trkpt lat="48.50703" lon="-2.60458">
        <ele>51.4</ele>
        <time>2016-03-23T13:55:26Z</time>
      </trkpt>
      <trkpt lat="48.50699" lon="-2.60471">
        <ele>51.2</ele>
        <time>2016-03-23T13:55:28Z</time>
      </trkpt>
      <trkpt lat="48.50694" lon="-2.60484">
        <ele>51</ele>
        <time>2016-03-23T13:55:30Z</time>
      </trkpt>
      <trkpt lat="48.50689" lon="-2.60495">
        <ele>50.9</ele>
        <time>2016-03-23T13:55:32Z</time>
      </trkpt>
      <trkpt lat="48.50683" lon="-2.60507">
        <ele>50.8</ele>
        <time>2016-03-23T13:55:34Z</time>
      </trkpt>
      <trkpt lat="48.50671" lon="-2.60514">
        <ele>50.6</ele>
        <time>2016-03-23T13:55:37Z</time>
      </trkpt>
      <trkpt lat="48.50662" lon="-2.60501">
        <ele>50.2</ele>
        <time>2016-03-23T13:55:40Z</time>
      </trkpt>
      <trkpt lat="48.50659" lon="-2.60487">
        <ele>50</ele>
        <time>2016-03-23T13:55:42Z</time>
      </trkpt>
      <trkpt lat="48.50655" lon="-2.60473">
        <ele>49.8</ele>
        <time>2016-03-23T13:55:44Z</time>
      </trkpt>
      <trkpt lat="48.5065" lon="-2.60458">
        <ele>49.6</ele>
        <time>2016-03-23T13:55:46Z</time>
      </trkpt>
      <trkpt lat="48.50646" lon="-2.60443">
        <ele>49.3</ele>
        <time>2016-03-23T13:55:48Z</time>
      </trkpt>
      <trkpt lat="48.50641" lon="-2.60428">
        <ele>49</ele>
        <time>2016-03-23T13:55:50Z</time>
      </trkpt>
      <trkpt lat="48.50637" lon="-2.60412">
        <ele>48.6</ele>
        <time>2016-03-23T13:55:52Z</time>
      </trkpt>
      <trkpt lat="48.50633" lon="-2.60396">
        <ele>48.2</ele>
        <time>2016-03-23T13:55:54Z</time>
      </trkpt>
      <trkpt lat="48.5063" lon="-2.60379">
        <ele>47.9</ele>
        <time>2016-03-23T13:55:56Z</time>
      </trkpt>
      <trkpt lat="48.50626" lon="-2.6036">
        <ele>47.4</ele>
        <time>2016-03-23T13:55:58Z</time>
      </trkpt>
      <trkpt lat="48.50623" lon="-2.6034">
        <ele>46.9</ele>
        <time>2016-03-23T13:56:00Z</time>
      </trkpt>
      <trkpt lat="48.50622" lon="-2.60318">
        <ele>46.5</ele>
        <time>2016-03-23T13:56:02Z</time>
      </trkpt>
      <trkpt lat="48.50621" lon="-2.60294">
        <ele>45.9</ele>
        <time>2016-03-23T13:56:04Z</time>
      </trkpt>
      <trkpt lat="48.50622" lon="-2.6027">
        <ele>45.4</ele>
        <time>2016-03-23T13:56:06Z</time>
      </trkpt>
      <trkpt lat="48.50623" lon="-2.60245">
        <ele>44.8</ele>
        <time>2016-03-23T13:56:08Z</time>
      </trkpt>
      <trkpt lat="48.50624" lon="-2.6022">
        <ele>44.1</ele>
        <time>2016-03-23T13:56:10Z</time>
      </trkpt>
      <trkpt lat="48.50625" lon="-2.60195">
        <ele>43.4</ele>
        <time>2016-03-23T13:56:12Z</time>
      </trkpt>
      <trkpt lat="48.50627" lon="-2.60169">
        <ele>42.7</ele>
        <time>2016-03-23T13:56:14Z</time>
      </trkpt>
      <trkpt lat="48.5063" lon="-2.60145">
        <ele>42</ele>
        <time>2016-03-23T13:56:16Z</time>
      </trkpt>
      <trkpt lat="48.50629" lon="-2.60122">
        <ele>41.4</ele>
        <time>2016-03-23T13:56:18Z</time>
      </trkpt>
      <trkpt lat="48.50618" lon="-2.60109">
        <ele>40.8</ele>
        <time>2016-03-23T13:56:20Z</time>
      </trkpt>
      <trkpt lat="48.50606" lon="-2.60104">
        <ele>40.3</ele>
        <time>2016-03-23T13:56:22Z</time>
      </trkpt>
      <trkpt lat="48.50594" lon="-2.60099">
        <ele>39.8</ele>
        <time>2016-03-23T13:56:24Z</time>
      </trkpt>
      <trkpt lat="48.50583" lon="-2.60094">
        <ele>39.4</ele>
        <time>2016-03-23T13:56:26Z</time>
      </trkpt>
      <trkpt lat="48.50595" lon="-2.60101">
        <ele>37.7</ele>
        <time>2016-03-23T13:56:37Z</time>
      </trkpt>
      <trkpt lat="48.50606" lon="-2.60104">
        <ele>37.4</ele>
        <time>2016-03-23T13:56:40Z</time>
      </trkpt>
      <trkpt lat="48.50603" lon="-2.6009">
        <ele>36.9</ele>
        <time>2016-03-23T13:56:46Z</time>
      </trkpt>
      <trkpt lat="48.50593" lon="-2.60084">
        <ele>36.7</ele>
        <time>2016-03-23T13:56:50Z</time>
      </trkpt>
      <trkpt lat="48.50583" lon="-2.60077">
        <ele>36.6</ele>
        <time>2016-03-23T13:56:54Z</time>
      </trkpt>
      <trkpt lat="48.50572" lon="-2.60073">
        <ele>36.5</ele>
        <time>2016-03-23T13:56:57Z</time>
      </trkpt>
      <trkpt lat="48.50561" lon="-2.6007">
        <ele>36.7</ele>
        <time>2016-03-23T13:57:00Z</time>
      </trkpt>
      <trkpt lat="48.50551" lon="-2.60073">
        <ele>36.8</ele>
        <time>2016-03-23T13:57:03Z</time>
      </trkpt>
      <trkpt lat="48.50541" lon="-2.60079">
        <ele>37</ele>
        <time>2016-03-23T13:57:06Z</time>
      </trkpt>
      <trkpt lat="48.50532" lon="-2.60084">
        <ele>37.1</ele>
        <time>2016-03-23T13:57:09Z</time>
      </trkpt>
      <trkpt lat="48.50522" lon="-2.60083">
        <ele>37.3</ele>
        <time>2016-03-23T13:57:13Z</time>
      </trkpt>
      <trkpt lat="48.50513" lon="-2.60079">
        <ele>38.2</ele>
        <time>2016-03-23T13:57:18Z</time>
      </trkpt>
      <trkpt lat="48.50503" lon="-2.60076">
        <ele>39.1</ele>
        <time>2016-03-23T13:57:22Z</time>
      </trkpt>
      <trkpt lat="48.50493" lon="-2.60073">
        <ele>39.6</ele>
        <time>2016-03-23T13:57:25Z</time>
      </trkpt>
      <trkpt lat="48.50482" lon="-2.60072">
        <ele>39.8</ele>
        <time>2016-03-23T13:57:27Z</time>
      </trkpt>
      <trkpt lat="48.50472" lon="-2.6007">
        <ele>39.9</ele>
        <time>2016-03-23T13:57:29Z</time>
      </trkpt>
      <trkpt lat="48.50461" lon="-2.60061">
        <ele>40.1</ele>
        <time>2016-03-23T13:57:32Z</time>
      </trkpt>
      <trkpt lat="48.50451" lon="-2.6006">
        <ele>40.7</ele>
        <time>2016-03-23T13:57:36Z</time>
      </trkpt>
      <trkpt lat="48.50444" lon="-2.60073">
        <ele>41.4</ele>
        <time>2016-03-23T13:57:41Z</time>
      </trkpt>
      <trkpt lat="48.50433" lon="-2.60077">
        <ele>41.8</ele>
        <time>2016-03-23T13:57:45Z</time>
      </trkpt>
      <trkpt lat="48.50421" lon="-2.60083">
        <ele>42.2</ele>
        <time>2016-03-23T13:57:49Z</time>
      </trkpt>
      <trkpt lat="48.50409" lon="-2.6009">
        <ele>42.4</ele>
        <time>2016-03-23T13:57:52Z</time>
      </trkpt>
      <trkpt lat="48.504" lon="-2.60094">
        <ele>42.5</ele>
        <time>2016-03-23T13:57:55Z</time>
      </trkpt>
      <trkpt lat="48.5039" lon="-2.60101">
        <ele>42.6</ele>
        <time>2016-03-23T13:57:58Z</time>
      </trkpt>
      <trkpt lat="48.5038" lon="-2.60101">
        <ele>42.8</ele>
        <time>2016-03-23T13:58:01Z</time>
      </trkpt>
      <trkpt lat="48.50369" lon="-2.60099">
        <ele>42.8</ele>
        <time>2016-03-23T13:58:04Z</time>
      </trkpt>
      <trkpt lat="48.50355" lon="-2.60099">
        <ele>42.9</ele>
        <time>2016-03-23T13:58:07Z</time>
      </trkpt>
      <trkpt lat="48.50345" lon="-2.60099">
        <ele>42.9</ele>
        <time>2016-03-23T13:58:09Z</time>
      </trkpt>
      <trkpt lat="48.50334" lon="-2.60099">
        <ele>42.6</ele>
        <time>2016-03-23T13:58:12Z</time>
      </trkpt>
      <trkpt lat="48.50325" lon="-2.60099">
        <ele>42</ele>
        <time>2016-03-23T13:58:16Z</time>
      </trkpt>
      <trkpt lat="48.50315" lon="-2.60107">
        <ele>41</ele>
        <time>2016-03-23T13:58:21Z</time>
      </trkpt>
      <trkpt lat="48.50306" lon="-2.60113">
        <ele>39.7</ele>
        <time>2016-03-23T13:58:25Z</time>
      </trkpt>
      <trkpt lat="48.50303" lon="-2.60127">
        <ele>38.7</ele>
        <time>2016-03-23T13:58:29Z</time>
      </trkpt>
      <trkpt lat="48.50309" lon="-2.60142">
        <ele>37.9</ele>
        <time>2016-03-23T13:58:33Z</time>
      </trkpt>
      <trkpt lat="48.50316" lon="-2.60153">
        <ele>37.4</ele>
        <time>2016-03-23T13:58:36Z</time>
      </trkpt>
      <trkpt lat="48.50323" lon="-2.60165">
        <ele>36.9</ele>
        <time>2016-03-23T13:58:39Z</time>
      </trkpt>
      <trkpt lat="48.50329" lon="-2.60178">
        <ele>36.6</ele>
        <time>2016-03-23T13:58:42Z</time>
      </trkpt>
      <trkpt lat="48.50334" lon="-2.60193">
        <ele>36.3</ele>
        <time>2016-03-23T13:58:45Z</time>
      </trkpt>
      <trkpt lat="48.50341" lon="-2.60205">
        <ele>36</ele>
        <time>2016-03-23T13:58:48Z</time>
      </trkpt>
      <trkpt lat="48.50346" lon="-2.60218">
        <ele>35.8</ele>
        <time>2016-03-23T13:58:51Z</time>
      </trkpt>
      <trkpt lat="48.50352" lon="-2.60229">
        <ele>35.7</ele>
        <time>2016-03-23T13:58:54Z</time>
      </trkpt>
      <trkpt lat="48.50353" lon="-2.60244">
        <ele>35.4</ele>
        <time>2016-03-23T13:58:59Z</time>
      </trkpt>
      <trkpt lat="48.50349" lon="-2.60257">
        <ele>35.3</ele>
        <time>2016-03-23T13:59:03Z</time>
      </trkpt>
      <trkpt lat="48.50345" lon="-2.60273">
        <ele>35.2</ele>
        <time>2016-03-23T13:59:07Z</time>
      </trkpt>
      <trkpt lat="48.50342" lon="-2.60288">
        <ele>35.1</ele>
        <time>2016-03-23T13:59:10Z</time>
      </trkpt>
      <trkpt lat="48.5034" lon="-2.60302">
        <ele>35.1</ele>
        <time>2016-03-23T13:59:13Z</time>
      </trkpt>
      <trkpt lat="48.50333" lon="-2.60314">
        <ele>35</ele>
        <time>2016-03-23T13:59:16Z</time>
      </trkpt>
      <trkpt lat="48.50327" lon="-2.60329">
        <ele>35</ele>
        <time>2016-03-23T13:59:19Z</time>
      </trkpt>
      <trkpt lat="48.50319" lon="-2.60343">
        <ele>35</ele>
        <time>2016-03-23T13:59:22Z</time>
      </trkpt>
      <trkpt lat="48.50313" lon="-2.60352">
        <ele>34.9</ele>
        <time>2016-03-23T13:59:26Z</time>
      </trkpt>
      <trkpt lat="48.50308" lon="-2.60364">
        <ele>35.3</ele>
        <time>2016-03-23T13:59:55Z</time>
      </trkpt>
      <trkpt lat="48.50303" lon="-2.60375">
        <ele>35.5</ele>
        <time>2016-03-23T14:00:07Z</time>
      </trkpt>
      <trkpt lat="48.50296" lon="-2.60387">
        <ele>35.6</ele>
        <time>2016-03-23T14:00:12Z</time>
      </trkpt>
      <trkpt lat="48.50295" lon="-2.60405">
        <ele>35.8</ele>
        <time>2016-03-23T14:00:17Z</time>
      </trkpt>
      <trkpt lat="48.50296" lon="-2.60419">
        <ele>36</ele>
        <time>2016-03-23T14:00:20Z</time>
      </trkpt>
      <trkpt lat="48.50298" lon="-2.60434">
        <ele>36.1</ele>
        <time>2016-03-23T14:00:23Z</time>
      </trkpt>
      <trkpt lat="48.50299" lon="-2.60449">
        <ele>36.3</ele>
        <time>2016-03-23T14:00:27Z</time>
      </trkpt>
      <trkpt lat="48.503" lon="-2.60463">
        <ele>36.4</ele>
        <time>2016-03-23T14:00:31Z</time>
      </trkpt>
      <trkpt lat="48.50301" lon="-2.60477">
        <ele>36.7</ele>
        <time>2016-03-23T14:00:35Z</time>
      </trkpt>
      <trkpt lat="48.50301" lon="-2.60492">
        <ele>37.3</ele>
        <time>2016-03-23T14:00:39Z</time>
      </trkpt>
      <trkpt lat="48.50303" lon="-2.60506">
        <ele>38</ele>
        <time>2016-03-23T14:00:43Z</time>
      </trkpt>
      <trkpt lat="48.50304" lon="-2.60522">
        <ele>39</ele>
        <time>2016-03-23T14:00:47Z</time>
      </trkpt>
      <trkpt lat="48.50308" lon="-2.60537">
        <ele>40.7</ele>
        <time>2016-03-23T14:00:52Z</time>
      </trkpt>
      <trkpt lat="48.50311" lon="-2.6055">
        <ele>42.1</ele>
        <time>2016-03-23T14:00:56Z</time>
      </trkpt>
      <trkpt lat="48.50316" lon="-2.60564">
        <ele>43.5</ele>
        <time>2016-03-23T14:01:00Z</time>
      </trkpt>
      <trkpt lat="48.50318" lon="-2.60577">
        <ele>44.5</ele>
        <time>2016-03-23T14:01:03Z</time>
      </trkpt>
      <trkpt lat="48.5032" lon="-2.60591">
        <ele>45.4</ele>
        <time>2016-03-23T14:01:06Z</time>
      </trkpt>
      <trkpt lat="48.5032" lon="-2.60608">
        <ele>46.5</ele>
        <time>2016-03-23T14:01:10Z</time>
      </trkpt>
      <trkpt lat="48.50317" lon="-2.60623">
        <ele>47.5</ele>
        <time>2016-03-23T14:01:14Z</time>
      </trkpt>
      <trkpt lat="48.50318" lon="-2.60637">
        <ele>48.5</ele>
        <time>2016-03-23T14:01:19Z</time>
      </trkpt>
      <trkpt lat="48.50328" lon="-2.60644">
        <ele>49.2</ele>
        <time>2016-03-23T14:01:23Z</time>
      </trkpt>
      <trkpt lat="48.50338" lon="-2.60649">
        <ele>49.5</ele>
        <time>2016-03-23T14:01:26Z</time>
      </trkpt>
      <trkpt lat="48.50348" lon="-2.60654">
        <ele>49.8</ele>
        <time>2016-03-23T14:01:29Z</time>
      </trkpt>
      <trkpt lat="48.5036" lon="-2.6066">
        <ele>49.9</ele>
        <time>2016-03-23T14:01:32Z</time>
      </trkpt>
      <trkpt lat="48.50369" lon="-2.60665">
        <ele>50</ele>
        <time>2016-03-23T14:01:34Z</time>
      </trkpt>
      <trkpt lat="48.50379" lon="-2.60669">
        <ele>50</ele>
        <time>2016-03-23T14:01:36Z</time>
      </trkpt>
      <trkpt lat="48.50388" lon="-2.60674">
        <ele>49.9</ele>
        <time>2016-03-23T14:01:38Z</time>
      </trkpt>
      <trkpt lat="48.50397" lon="-2.60678">
        <ele>49.7</ele>
        <time>2016-03-23T14:01:40Z</time>
      </trkpt>
      <trkpt lat="48.50407" lon="-2.60683">
        <ele>49.4</ele>
        <time>2016-03-23T14:01:42Z</time>
      </trkpt>
      <trkpt lat="48.50417" lon="-2.60689">
        <ele>49.1</ele>
        <time>2016-03-23T14:01:44Z</time>
      </trkpt>
      <trkpt lat="48.50428" lon="-2.60696">
        <ele>48.9</ele>
        <time>2016-03-23T14:01:46Z</time>
      </trkpt>
      <trkpt lat="48.50437" lon="-2.60704">
        <ele>48.6</ele>
        <time>2016-03-23T14:01:48Z</time>
      </trkpt>
      <trkpt lat="48.50445" lon="-2.60713">
        <ele>48</ele>
        <time>2016-03-23T14:01:50Z</time>
      </trkpt>
      <trkpt lat="48.50454" lon="-2.60728">
        <ele>47.5</ele>
        <time>2016-03-23T14:01:52Z</time>
      </trkpt>
      <trkpt lat="48.50462" lon="-2.60746">
        <ele>47</ele>
        <time>2016-03-23T14:01:54Z</time>
      </trkpt>
      <trkpt lat="48.50472" lon="-2.60762">
        <ele>46.4</ele>
        <time>2016-03-23T14:01:56Z</time>
      </trkpt>
      <trkpt lat="48.50481" lon="-2.60778">
        <ele>45.8</ele>
        <time>2016-03-23T14:01:58Z</time>
      </trkpt>
      <trkpt lat="48.50489" lon="-2.60793">
        <ele>45.3</ele>
        <time>2016-03-23T14:02:00Z</time>
      </trkpt>
      <trkpt lat="48.50496" lon="-2.60807">
        <ele>44.7</ele>
        <time>2016-03-23T14:02:02Z</time>
      </trkpt>
      <trkpt lat="48.50501" lon="-2.6082">
        <ele>44.3</ele>
        <time>2016-03-23T14:02:04Z</time>
      </trkpt>
      <trkpt lat="48.50505" lon="-2.60833">
        <ele>43.8</ele>
        <time>2016-03-23T14:02:06Z</time>
      </trkpt>
      <trkpt lat="48.50505" lon="-2.60851">
        <ele>43.3</ele>
        <time>2016-03-23T14:02:08Z</time>
      </trkpt>
      <trkpt lat="48.50501" lon="-2.60866">
        <ele>43</ele>
        <time>2016-03-23T14:02:10Z</time>
      </trkpt>
      <trkpt lat="48.50498" lon="-2.60882">
        <ele>42.6</ele>
        <time>2016-03-23T14:02:12Z</time>
      </trkpt>
      <trkpt lat="48.50495" lon="-2.60899">
        <ele>42.4</ele>
        <time>2016-03-23T14:02:14Z</time>
      </trkpt>
      <trkpt lat="48.50492" lon="-2.60916">
        <ele>42.2</ele>
        <time>2016-03-23T14:02:16Z</time>
      </trkpt>
      <trkpt lat="48.5049" lon="-2.6093">
        <ele>42.1</ele>
        <time>2016-03-23T14:02:18Z</time>
      </trkpt>
      <trkpt lat="48.50487" lon="-2.60943">
        <ele>42.1</ele>
        <time>2016-03-23T14:02:20Z</time>
      </trkpt>
      <trkpt lat="48.50483" lon="-2.60962">
        <ele>42.2</ele>
        <time>2016-03-23T14:02:23Z</time>
      </trkpt>
      <trkpt lat="48.50481" lon="-2.60978">
        <ele>42.2</ele>
        <time>2016-03-23T14:02:25Z</time>
      </trkpt>
      <trkpt lat="48.50479" lon="-2.60993">
        <ele>42.4</ele>
        <time>2016-03-23T14:02:27Z</time>
      </trkpt>
      <trkpt lat="48.50478" lon="-2.61009">
        <ele>42.5</ele>
        <time>2016-03-23T14:02:29Z</time>
      </trkpt>
      <trkpt lat="48.50477" lon="-2.61024">
        <ele>42.6</ele>
        <time>2016-03-23T14:02:31Z</time>
      </trkpt>
      <trkpt lat="48.50476" lon="-2.6104">
        <ele>42.7</ele>
        <time>2016-03-23T14:02:33Z</time>
      </trkpt>
      <trkpt lat="48.50474" lon="-2.61056">
        <ele>42.8</ele>
        <time>2016-03-23T14:02:35Z</time>
      </trkpt>
      <trkpt lat="48.50473" lon="-2.61072">
        <ele>42.9</ele>
        <time>2016-03-23T14:02:37Z</time>
      </trkpt>
      <trkpt lat="48.50472" lon="-2.61088">
        <ele>43</ele>
        <time>2016-03-23T14:02:39Z</time>
      </trkpt>
      <trkpt lat="48.50472" lon="-2.61104">
        <ele>43.1</ele>
        <time>2016-03-23T14:02:41Z</time>
      </trkpt>
      <trkpt lat="48.50472" lon="-2.6112">
        <ele>43.2</ele>
        <time>2016-03-23T14:02:43Z</time>
      </trkpt>
      <trkpt lat="48.50472" lon="-2.61136">
        <ele>43.2</ele>
        <time>2016-03-23T14:02:45Z</time>
      </trkpt>
      <trkpt lat="48.50472" lon="-2.61152">
        <ele>43.2</ele>
        <time>2016-03-23T14:02:47Z</time>
      </trkpt>
      <trkpt lat="48.50472" lon="-2.61167">
        <ele>43.2</ele>
        <time>2016-03-23T14:02:49Z</time>
      </trkpt>
      <trkpt lat="48.50472" lon="-2.61183">
        <ele>43.2</ele>
        <time>2016-03-23T14:02:51Z</time>
      </trkpt>
      <trkpt lat="48.50472" lon="-2.61198">
        <ele>43.2</ele>
        <time>2016-03-23T14:02:53Z</time>
      </trkpt>
      <trkpt lat="48.50472" lon="-2.61213">
        <ele>43.1</ele>
        <time>2016-03-23T14:02:55Z</time>
      </trkpt>
      <trkpt lat="48.50472" lon="-2.61229">
        <ele>43</ele>
        <time>2016-03-23T14:02:57Z</time>
      </trkpt>
      <trkpt lat="48.50472" lon="-2.61245">
        <ele>42.9</ele>
        <time>2016-03-23T14:02:59Z</time>
      </trkpt>
      <trkpt lat="48.50469" lon="-2.6126">
        <ele>42.6</ele>
        <time>2016-03-23T14:03:01Z</time>
      </trkpt>
      <trkpt lat="48.50465" lon="-2.61275">
        <ele>42.4</ele>
        <time>2016-03-23T14:03:03Z</time>
      </trkpt>
      <trkpt lat="48.50459" lon="-2.6129">
        <ele>42.2</ele>
        <time>2016-03-23T14:03:05Z</time>
      </trkpt>
      <trkpt lat="48.50451" lon="-2.61304">
        <ele>41.9</ele>
        <time>2016-03-23T14:03:07Z</time>
      </trkpt>
      <trkpt lat="48.50438" lon="-2.61314">
        <ele>41.6</ele>
        <time>2016-03-23T14:03:09Z</time>
      </trkpt>
      <trkpt lat="48.50424" lon="-2.61317">
        <ele>41.1</ele>
        <time>2016-03-23T14:03:11Z</time>
      </trkpt>
      <trkpt lat="48.50411" lon="-2.61314">
        <ele>40.6</ele>
        <time>2016-03-23T14:03:13Z</time>
      </trkpt>
      <trkpt lat="48.50399" lon="-2.61304">
        <ele>40.2</ele>
        <time>2016-03-23T14:03:15Z</time>
      </trkpt>
      <trkpt lat="48.50389" lon="-2.61291">
        <ele>39.9</ele>
        <time>2016-03-23T14:03:17Z</time>
      </trkpt>
      <trkpt lat="48.5038" lon="-2.61276">
        <ele>39.6</ele>
        <time>2016-03-23T14:03:19Z</time>
      </trkpt>
      <trkpt lat="48.5037" lon="-2.61262">
        <ele>39.3</ele>
        <time>2016-03-23T14:03:21Z</time>
      </trkpt>
      <trkpt lat="48.5036" lon="-2.61247">
        <ele>39.3</ele>
        <time>2016-03-23T14:03:23Z</time>
      </trkpt>
      <trkpt lat="48.50351" lon="-2.61233">
        <ele>39.3</ele>
        <time>2016-03-23T14:03:25Z</time>
      </trkpt>
      <trkpt lat="48.50342" lon="-2.6122">
        <ele>39.7</ele>
        <time>2016-03-23T14:03:27Z</time>
      </trkpt>
      <trkpt lat="48.50332" lon="-2.61208">
        <ele>40</ele>
        <time>2016-03-23T14:03:29Z</time>
      </trkpt>
      <trkpt lat="48.50323" lon="-2.61198">
        <ele>40.3</ele>
        <time>2016-03-23T14:03:31Z</time>
      </trkpt>
      <trkpt lat="48.50312" lon="-2.61192">
        <ele>40.6</ele>
        <time>2016-03-23T14:03:33Z</time>
      </trkpt>
      <trkpt lat="48.50301" lon="-2.61189">
        <ele>41</ele>
        <time>2016-03-23T14:03:35Z</time>
      </trkpt>
      <trkpt lat="48.50291" lon="-2.61188">
        <ele>41.4</ele>
        <time>2016-03-23T14:03:37Z</time>
      </trkpt>
      <trkpt lat="48.50281" lon="-2.61187">
        <ele>41.8</ele>
        <time>2016-03-23T14:03:39Z</time>
      </trkpt>
      <trkpt lat="48.50272" lon="-2.61188">
        <ele>42.2</ele>
        <time>2016-03-23T14:03:41Z</time>
      </trkpt>
      <trkpt lat="48.50263" lon="-2.6119">
        <ele>42.5</ele>
        <time>2016-03-23T14:03:43Z</time>
      </trkpt>
      <trkpt lat="48.50253" lon="-2.61192">
        <ele>42.8</ele>
        <time>2016-03-23T14:03:45Z</time>
      </trkpt>
      <trkpt lat="48.50244" lon="-2.61194">
        <ele>43.1</ele>
        <time>2016-03-23T14:03:47Z</time>
      </trkpt>
      <trkpt lat="48.50234" lon="-2.61197">
        <ele>43.3</ele>
        <time>2016-03-23T14:03:49Z</time>
      </trkpt>
      <trkpt lat="48.50225" lon="-2.61201">
        <ele>43.4</ele>
        <time>2016-03-23T14:03:51Z</time>
      </trkpt>
      <trkpt lat="48.50215" lon="-2.61203">
        <ele>43.6</ele>
        <time>2016-03-23T14:03:53Z</time>
      </trkpt>
      <trkpt lat="48.50206" lon="-2.61205">
        <ele>43.6</ele>
        <time>2016-03-23T14:03:55Z</time>
      </trkpt>
      <trkpt lat="48.50197" lon="-2.61206">
        <ele>43.7</ele>
        <time>2016-03-23T14:03:57Z</time>
      </trkpt>
      <trkpt lat="48.50185" lon="-2.61209">
        <ele>43.7</ele>
        <time>2016-03-23T14:04:00Z</time>
      </trkpt>
      <trkpt lat="48.50174" lon="-2.61211">
        <ele>43.8</ele>
        <time>2016-03-23T14:04:03Z</time>
      </trkpt>
      <trkpt lat="48.50164" lon="-2.61214">
        <ele>43.8</ele>
        <time>2016-03-23T14:04:06Z</time>
      </trkpt>
      <trkpt lat="48.50152" lon="-2.61217">
        <ele>43.9</ele>
        <time>2016-03-23T14:04:09Z</time>
      </trkpt>
      <trkpt lat="48.50142" lon="-2.61219">
        <ele>44</ele>
        <time>2016-03-23T14:04:11Z</time>
      </trkpt>
      <trkpt lat="48.50131" lon="-2.61221">
        <ele>44.1</ele>
        <time>2016-03-23T14:04:13Z</time>
      </trkpt>
      <trkpt lat="48.50121" lon="-2.61224">
        <ele>44.2</ele>
        <time>2016-03-23T14:04:15Z</time>
      </trkpt>
      <trkpt lat="48.5011" lon="-2.61226">
        <ele>44.3</ele>
        <time>2016-03-23T14:04:17Z</time>
      </trkpt>
      <trkpt lat="48.501" lon="-2.61228">
        <ele>44.4</ele>
        <time>2016-03-23T14:04:19Z</time>
      </trkpt>
      <trkpt lat="48.50088" lon="-2.6123">
        <ele>44.4</ele>
        <time>2016-03-23T14:04:21Z</time>
      </trkpt>
      <trkpt lat="48.50077" lon="-2.61231">
        <ele>44.5</ele>
        <time>2016-03-23T14:04:23Z</time>
      </trkpt>
      <trkpt lat="48.50065" lon="-2.61232">
        <ele>44.6</ele>
        <time>2016-03-23T14:04:25Z</time>
      </trkpt>
      <trkpt lat="48.50054" lon="-2.61232">
        <ele>44.5</ele>
        <time>2016-03-23T14:04:27Z</time>
      </trkpt>
      <trkpt lat="48.50042" lon="-2.6123">
        <ele>44.5</ele>
        <time>2016-03-23T14:04:29Z</time>
      </trkpt>
      <trkpt lat="48.50029" lon="-2.61228">
        <ele>44.4</ele>
        <time>2016-03-23T14:04:31Z</time>
      </trkpt>
      <trkpt lat="48.50018" lon="-2.61227">
        <ele>44.4</ele>
        <time>2016-03-23T14:04:33Z</time>
      </trkpt>
      <trkpt lat="48.50006" lon="-2.61225">
        <ele>44.3</ele>
        <time>2016-03-23T14:04:35Z</time>
      </trkpt>
      <trkpt lat="48.49994" lon="-2.61222">
        <ele>44.2</ele>
        <time>2016-03-23T14:04:37Z</time>
      </trkpt>
      <trkpt lat="48.49982" lon="-2.61219">
        <ele>44</ele>
        <time>2016-03-23T14:04:39Z</time>
      </trkpt>
      <trkpt lat="48.49968" lon="-2.61215">
        <ele>43.8</ele>
        <time>2016-03-23T14:04:41Z</time>
      </trkpt>
      <trkpt lat="48.49953" lon="-2.6121">
        <ele>43.4</ele>
        <time>2016-03-23T14:04:43Z</time>
      </trkpt>
      <trkpt lat="48.49938" lon="-2.61205">
        <ele>42.8</ele>
        <time>2016-03-23T14:04:45Z</time>
      </trkpt>
      <trkpt lat="48.49926" lon="-2.61206">
        <ele>42.2</ele>
        <time>2016-03-23T14:04:47Z</time>
      </trkpt>
      <trkpt lat="48.49926" lon="-2.61222">
        <ele>40.9</ele>
        <time>2016-03-23T14:04:51Z</time>
      </trkpt>
      <trkpt lat="48.49935" lon="-2.61235">
        <ele>40.1</ele>
        <time>2016-03-23T14:04:54Z</time>
      </trkpt>
      <trkpt lat="48.49941" lon="-2.61244">
        <ele>39.6</ele>
        <time>2016-03-23T14:04:56Z</time>
      </trkpt>
      <trkpt lat="48.49948" lon="-2.61254">
        <ele>39.1</ele>
        <time>2016-03-23T14:04:58Z</time>
      </trkpt>
      <trkpt lat="48.49955" lon="-2.61264">
        <ele>38.7</ele>
        <time>2016-03-23T14:05:00Z</time>
      </trkpt>
      <trkpt lat="48.49963" lon="-2.61274">
        <ele>38.4</ele>
        <time>2016-03-23T14:05:02Z</time>
      </trkpt>
      <trkpt lat="48.4997" lon="-2.61284">
        <ele>38.1</ele>
        <time>2016-03-23T14:05:04Z</time>
      </trkpt>
      <trkpt lat="48.49977" lon="-2.61296">
        <ele>37.8</ele>
        <time>2016-03-23T14:05:06Z</time>
      </trkpt>
      <trkpt lat="48.49984" lon="-2.61306">
        <ele>37.5</ele>
        <time>2016-03-23T14:05:08Z</time>
      </trkpt>
      <trkpt lat="48.49991" lon="-2.61316">
        <ele>37.3</ele>
        <time>2016-03-23T14:05:10Z</time>
      </trkpt>
      <trkpt lat="48.49998" lon="-2.61326">
        <ele>37.1</ele>
        <time>2016-03-23T14:05:12Z</time>
      </trkpt>
      <trkpt lat="48.50005" lon="-2.61336">
        <ele>37</ele>
        <time>2016-03-23T14:05:14Z</time>
      </trkpt>
      <trkpt lat="48.50012" lon="-2.61346">
        <ele>36.8</ele>
        <time>2016-03-23T14:05:16Z</time>
      </trkpt>
      <trkpt lat="48.50019" lon="-2.61356">
        <ele>36.7</ele>
        <time>2016-03-23T14:05:18Z</time>
      </trkpt>
      <trkpt lat="48.50025" lon="-2.61365">
        <ele>36.7</ele>
        <time>2016-03-23T14:05:20Z</time>
      </trkpt>
      <trkpt lat="48.50035" lon="-2.61379">
        <ele>36.6</ele>
        <time>2016-03-23T14:05:23Z</time>
      </trkpt>
      <trkpt lat="48.50042" lon="-2.61391">
        <ele>36.6</ele>
        <time>2016-03-23T14:05:26Z</time>
      </trkpt>
      <trkpt lat="48.50048" lon="-2.61401">
        <ele>36.8</ele>
        <time>2016-03-23T14:05:31Z</time>
      </trkpt>
      <trkpt lat="48.50038" lon="-2.61405">
        <ele>37.1</ele>
        <time>2016-03-23T14:05:36Z</time>
      </trkpt>
      <trkpt lat="48.50026" lon="-2.61402">
        <ele>37.3</ele>
        <time>2016-03-23T14:05:39Z</time>
      </trkpt>
      <trkpt lat="48.50017" lon="-2.61398">
        <ele>37.4</ele>
        <time>2016-03-23T14:05:41Z</time>
      </trkpt>
      <trkpt lat="48.50008" lon="-2.61393">
        <ele>37.5</ele>
        <time>2016-03-23T14:05:43Z</time>
      </trkpt>
      <trkpt lat="48.49997" lon="-2.6139">
        <ele>37.5</ele>
        <time>2016-03-23T14:05:45Z</time>
      </trkpt>
      <trkpt lat="48.49987" lon="-2.61387">
        <ele>37.5</ele>
        <time>2016-03-23T14:05:47Z</time>
      </trkpt>
      <trkpt lat="48.49976" lon="-2.61385">
        <ele>37.5</ele>
        <time>2016-03-23T14:05:49Z</time>
      </trkpt>
      <trkpt lat="48.49966" lon="-2.61385">
        <ele>37.5</ele>
        <time>2016-03-23T14:05:51Z</time>
      </trkpt>
      <trkpt lat="48.49956" lon="-2.6139">
        <ele>37.4</ele>
        <time>2016-03-23T14:05:53Z</time>
      </trkpt>
      <trkpt lat="48.4995" lon="-2.61401">
        <ele>37.4</ele>
        <time>2016-03-23T14:05:55Z</time>
      </trkpt>
      <trkpt lat="48.49948" lon="-2.61419">
        <ele>37.4</ele>
        <time>2016-03-23T14:05:58Z</time>
      </trkpt>
      <trkpt lat="48.49946" lon="-2.61433">
        <ele>37.4</ele>
        <time>2016-03-23T14:06:01Z</time>
      </trkpt>
      <trkpt lat="48.49945" lon="-2.61448">
        <ele>37.5</ele>
        <time>2016-03-23T14:06:04Z</time>
      </trkpt>
      <trkpt lat="48.49944" lon="-2.61463">
        <ele>37.7</ele>
        <time>2016-03-23T14:06:08Z</time>
      </trkpt>
      <trkpt lat="48.49944" lon="-2.61479">
        <ele>38</ele>
        <time>2016-03-23T14:06:11Z</time>
      </trkpt>
      <trkpt lat="48.49944" lon="-2.61494">
        <ele>38.4</ele>
        <time>2016-03-23T14:06:14Z</time>
      </trkpt>
      <trkpt lat="48.49945" lon="-2.6151">
        <ele>38.9</ele>
        <time>2016-03-23T14:06:17Z</time>
      </trkpt>
      <trkpt lat="48.49946" lon="-2.61528">
        <ele>39.7</ele>
        <time>2016-03-23T14:06:20Z</time>
      </trkpt>
      <trkpt lat="48.49948" lon="-2.61543">
        <ele>40.6</ele>
        <time>2016-03-23T14:06:23Z</time>
      </trkpt>
      <trkpt lat="48.49948" lon="-2.6156">
        <ele>41.9</ele>
        <time>2016-03-23T14:06:27Z</time>
      </trkpt>
      <trkpt lat="48.49949" lon="-2.61576">
        <ele>43</ele>
        <time>2016-03-23T14:06:31Z</time>
      </trkpt>
      <trkpt lat="48.49949" lon="-2.61593">
        <ele>44.2</ele>
        <time>2016-03-23T14:06:36Z</time>
      </trkpt>
      <trkpt lat="48.49949" lon="-2.61609">
        <ele>45.3</ele>
        <time>2016-03-23T14:06:41Z</time>
      </trkpt>
      <trkpt lat="48.49948" lon="-2.61625">
        <ele>46.2</ele>
        <time>2016-03-23T14:06:46Z</time>
      </trkpt>
      <trkpt lat="48.49948" lon="-2.61641">
        <ele>47</ele>
        <time>2016-03-23T14:06:51Z</time>
      </trkpt>
      <trkpt lat="48.49947" lon="-2.61658">
        <ele>48.2</ele>
        <time>2016-03-23T14:06:56Z</time>
      </trkpt>
      <trkpt lat="48.49946" lon="-2.61673">
        <ele>48.9</ele>
        <time>2016-03-23T14:07:00Z</time>
      </trkpt>
      <trkpt lat="48.49944" lon="-2.61688">
        <ele>49.5</ele>
        <time>2016-03-23T14:07:04Z</time>
      </trkpt>
      <trkpt lat="48.49942" lon="-2.61705">
        <ele>50</ele>
        <time>2016-03-23T14:07:08Z</time>
      </trkpt>
      <trkpt lat="48.49941" lon="-2.61722">
        <ele>50.6</ele>
        <time>2016-03-23T14:07:12Z</time>
      </trkpt>
      <trkpt lat="48.4994" lon="-2.61739">
        <ele>51.1</ele>
        <time>2016-03-23T14:07:16Z</time>
      </trkpt>
      <trkpt lat="48.49939" lon="-2.61753">
        <ele>51.6</ele>
        <time>2016-03-23T14:07:19Z</time>
      </trkpt>
      <trkpt lat="48.49937" lon="-2.6177">
        <ele>52.4</ele>
        <time>2016-03-23T14:07:23Z</time>
      </trkpt>
      <trkpt lat="48.49935" lon="-2.61788">
        <ele>53.3</ele>
        <time>2016-03-23T14:07:27Z</time>
      </trkpt>
      <trkpt lat="48.49934" lon="-2.61805">
        <ele>53.9</ele>
        <time>2016-03-23T14:07:31Z</time>
      </trkpt>
      <trkpt lat="48.49933" lon="-2.61821">
        <ele>54.4</ele>
        <time>2016-03-23T14:07:35Z</time>
      </trkpt>
      <trkpt lat="48.49933" lon="-2.61836">
        <ele>55</ele>
        <time>2016-03-23T14:07:39Z</time>
      </trkpt>
      <trkpt lat="48.49934" lon="-2.61853">
        <ele>55.5</ele>
        <time>2016-03-23T14:07:43Z</time>
      </trkpt>
      <trkpt lat="48.49935" lon="-2.6187">
        <ele>56.1</ele>
        <time>2016-03-23T14:07:47Z</time>
      </trkpt>
      <trkpt lat="48.49937" lon="-2.61883">
        <ele>56.5</ele>
        <time>2016-03-23T14:07:50Z</time>
      </trkpt>
      <trkpt lat="48.49941" lon="-2.619">
        <ele>57</ele>
        <time>2016-03-23T14:07:54Z</time>
      </trkpt>
      <trkpt lat="48.49946" lon="-2.61916">
        <ele>57.5</ele>
        <time>2016-03-23T14:07:58Z</time>
      </trkpt>
      <trkpt lat="48.49951" lon="-2.61931">
        <ele>58</ele>
        <time>2016-03-23T14:08:02Z</time>
      </trkpt>
      <trkpt lat="48.49956" lon="-2.61943">
        <ele>58.6</ele>
        <time>2016-03-23T14:08:06Z</time>
      </trkpt>
      <trkpt lat="48.49961" lon="-2.61958">
        <ele>59.4</ele>
        <time>2016-03-23T14:08:11Z</time>
      </trkpt>
      <trkpt lat="48.49968" lon="-2.61971">
        <ele>59.8</ele>
        <time>2016-03-23T14:08:14Z</time>
      </trkpt>
      <trkpt lat="48.49974" lon="-2.61985">
        <ele>60.2</ele>
        <time>2016-03-23T14:08:17Z</time>
      </trkpt>
      <trkpt lat="48.49979" lon="-2.62">
        <ele>60.8</ele>
        <time>2016-03-23T14:08:21Z</time>
      </trkpt>
      <trkpt lat="48.49982" lon="-2.62013">
        <ele>61.1</ele>
        <time>2016-03-23T14:08:24Z</time>
      </trkpt>
      <trkpt lat="48.49983" lon="-2.62028">
        <ele>61.5</ele>
        <time>2016-03-23T14:08:27Z</time>
      </trkpt>
      <trkpt lat="48.49984" lon="-2.62042">
        <ele>61.9</ele>
        <time>2016-03-23T14:08:30Z</time>
      </trkpt>
      <trkpt lat="48.49985" lon="-2.62057">
        <ele>62.6</ele>
        <time>2016-03-23T14:08:34Z</time>
      </trkpt>
      <trkpt lat="48.49985" lon="-2.62074">
        <ele>63.5</ele>
        <time>2016-03-23T14:08:38Z</time>
      </trkpt>
      <trkpt lat="48.49985" lon="-2.62088">
        <ele>64.1</ele>
        <time>2016-03-23T14:08:41Z</time>
      </trkpt>
      <trkpt lat="48.49985" lon="-2.62101">
        <ele>64.7</ele>
        <time>2016-03-23T14:08:44Z</time>
      </trkpt>
      <trkpt lat="48.49986" lon="-2.6212">
        <ele>65.4</ele>
        <time>2016-03-23T14:08:48Z</time>
      </trkpt>
      <trkpt lat="48.49988" lon="-2.62135">
        <ele>66.1</ele>
        <time>2016-03-23T14:08:52Z</time>
      </trkpt>
      <trkpt lat="48.49988" lon="-2.62151">
        <ele>67</ele>
        <time>2016-03-23T14:08:57Z</time>
      </trkpt>
      <trkpt lat="48.49993" lon="-2.62165">
        <ele>68.1</ele>
        <time>2016-03-23T14:09:06Z</time>
      </trkpt>
      <trkpt lat="48.49985" lon="-2.62176">
        <ele>68.5</ele>
        <time>2016-03-23T14:09:10Z</time>
      </trkpt>
      <trkpt lat="48.49989" lon="-2.62192">
        <ele>68.9</ele>
        <time>2016-03-23T14:09:14Z</time>
      </trkpt>
      <trkpt lat="48.49992" lon="-2.62207">
        <ele>69.1</ele>
        <time>2016-03-23T14:09:17Z</time>
      </trkpt>
      <trkpt lat="48.49995" lon="-2.62221">
        <ele>69.3</ele>
        <time>2016-03-23T14:09:20Z</time>
      </trkpt>
      <trkpt lat="48.49998" lon="-2.62238">
        <ele>69.5</ele>
        <time>2016-03-23T14:09:23Z</time>
      </trkpt>
      <trkpt lat="48.49999" lon="-2.62254">
        <ele>69.7</ele>
        <time>2016-03-23T14:09:26Z</time>
      </trkpt>
      <trkpt lat="48.5" lon="-2.62269">
        <ele>69.9</ele>
        <time>2016-03-23T14:09:29Z</time>
      </trkpt>
      <trkpt lat="48.50001" lon="-2.62284">
        <ele>70.3</ele>
        <time>2016-03-23T14:09:32Z</time>
      </trkpt>
      <trkpt lat="48.50002" lon="-2.62298">
        <ele>70.6</ele>
        <time>2016-03-23T14:09:35Z</time>
      </trkpt>
      <trkpt lat="48.50004" lon="-2.62314">
        <ele>70.9</ele>
        <time>2016-03-23T14:09:39Z</time>
      </trkpt>
      <trkpt lat="48.50003" lon="-2.62331">
        <ele>71.2</ele>
        <time>2016-03-23T14:09:42Z</time>
      </trkpt>
      <trkpt lat="48.50002" lon="-2.62348">
        <ele>71.5</ele>
        <time>2016-03-23T14:09:45Z</time>
      </trkpt>
      <trkpt lat="48.50001" lon="-2.62366">
        <ele>71.7</ele>
        <time>2016-03-23T14:09:48Z</time>
      </trkpt>
      <trkpt lat="48.50006" lon="-2.62384">
        <ele>71.9</ele>
        <time>2016-03-23T14:09:51Z</time>
      </trkpt>
      <trkpt lat="48.50015" lon="-2.62395">
        <ele>72.1</ele>
        <time>2016-03-23T14:09:54Z</time>
      </trkpt>
      <trkpt lat="48.50027" lon="-2.62403">
        <ele>72.3</ele>
        <time>2016-03-23T14:09:57Z</time>
      </trkpt>
      <trkpt lat="48.50036" lon="-2.62409">
        <ele>72.4</ele>
        <time>2016-03-23T14:09:59Z</time>
      </trkpt>
      <trkpt lat="48.50048" lon="-2.62417">
        <ele>72.6</ele>
        <time>2016-03-23T14:10:02Z</time>
      </trkpt>
      <trkpt lat="48.5006" lon="-2.62426">
        <ele>72.7</ele>
        <time>2016-03-23T14:10:05Z</time>
      </trkpt>
      <trkpt lat="48.50072" lon="-2.62435">
        <ele>73</ele>
        <time>2016-03-23T14:10:08Z</time>
      </trkpt>
      <trkpt lat="48.50084" lon="-2.62444">
        <ele>73.2</ele>
        <time>2016-03-23T14:10:11Z</time>
      </trkpt>
      <trkpt lat="48.50096" lon="-2.62451">
        <ele>73.4</ele>
        <time>2016-03-23T14:10:14Z</time>
      </trkpt>
      <trkpt lat="48.50108" lon="-2.62458">
        <ele>73.6</ele>
        <time>2016-03-23T14:10:17Z</time>
      </trkpt>
      <trkpt lat="48.5012" lon="-2.62466">
        <ele>73.9</ele>
        <time>2016-03-23T14:10:20Z</time>
      </trkpt>
      <trkpt lat="48.50131" lon="-2.62475">
        <ele>74.1</ele>
        <time>2016-03-23T14:10:23Z</time>
      </trkpt>
      <trkpt lat="48.50142" lon="-2.62482">
        <ele>74.4</ele>
        <time>2016-03-23T14:10:26Z</time>
      </trkpt>
      <trkpt lat="48.50153" lon="-2.62488">
        <ele>74.6</ele>
        <time>2016-03-23T14:10:29Z</time>
      </trkpt>
      <trkpt lat="48.50164" lon="-2.62496">
        <ele>74.8</ele>
        <time>2016-03-23T14:10:32Z</time>
      </trkpt>
      <trkpt lat="48.50172" lon="-2.62502">
        <ele>74.9</ele>
        <time>2016-03-23T14:10:34Z</time>
      </trkpt>
      <trkpt lat="48.50181" lon="-2.62508">
        <ele>75.1</ele>
        <time>2016-03-23T14:10:36Z</time>
      </trkpt>
      <trkpt lat="48.50189" lon="-2.62514">
        <ele>75.3</ele>
        <time>2016-03-23T14:10:38Z</time>
      </trkpt>
      <trkpt lat="48.502" lon="-2.62524">
        <ele>75.5</ele>
        <time>2016-03-23T14:10:41Z</time>
      </trkpt>
      <trkpt lat="48.50212" lon="-2.62534">
        <ele>75.8</ele>
        <time>2016-03-23T14:10:44Z</time>
      </trkpt>
      <trkpt lat="48.5022" lon="-2.62541">
        <ele>76</ele>
        <time>2016-03-23T14:10:46Z</time>
      </trkpt>
      <trkpt lat="48.50227" lon="-2.62548">
        <ele>76.2</ele>
        <time>2016-03-23T14:10:48Z</time>
      </trkpt>
      <trkpt lat="48.50238" lon="-2.6256">
        <ele>76.5</ele>
        <time>2016-03-23T14:10:51Z</time>
      </trkpt>
      <trkpt lat="48.50249" lon="-2.62572">
        <ele>77</ele>
        <time>2016-03-23T14:10:54Z</time>
      </trkpt>
      <trkpt lat="48.50259" lon="-2.62585">
        <ele>77.2</ele>
        <time>2016-03-23T14:10:57Z</time>
      </trkpt>
      <trkpt lat="48.50269" lon="-2.62598">
        <ele>77.5</ele>
        <time>2016-03-23T14:11:00Z</time>
      </trkpt>
      <trkpt lat="48.50278" lon="-2.62613">
        <ele>77.7</ele>
        <time>2016-03-23T14:11:03Z</time>
      </trkpt>
      <trkpt lat="48.50285" lon="-2.6263">
        <ele>77.9</ele>
        <time>2016-03-23T14:11:06Z</time>
      </trkpt>
      <trkpt lat="48.50289" lon="-2.62649">
        <ele>78.1</ele>
        <time>2016-03-23T14:11:09Z</time>
      </trkpt>
      <trkpt lat="48.5029" lon="-2.62669">
        <ele>78.4</ele>
        <time>2016-03-23T14:11:12Z</time>
      </trkpt>
      <trkpt lat="48.50289" lon="-2.62689">
        <ele>78.7</ele>
        <time>2016-03-23T14:11:15Z</time>
      </trkpt>
      <trkpt lat="48.50289" lon="-2.62709">
        <ele>78.9</ele>
        <time>2016-03-23T14:11:18Z</time>
      </trkpt>
      <trkpt lat="48.50288" lon="-2.62729">
        <ele>79.1</ele>
        <time>2016-03-23T14:11:21Z</time>
      </trkpt>
      <trkpt lat="48.50288" lon="-2.62743">
        <ele>79.2</ele>
        <time>2016-03-23T14:11:23Z</time>
      </trkpt>
      <trkpt lat="48.50289" lon="-2.62756">
        <ele>79.4</ele>
        <time>2016-03-23T14:11:25Z</time>
      </trkpt>
      <trkpt lat="48.50291" lon="-2.62776">
        <ele>79.7</ele>
        <time>2016-03-23T14:11:28Z</time>
      </trkpt>
      <trkpt lat="48.50296" lon="-2.62794">
        <ele>80</ele>
        <time>2016-03-23T14:11:31Z</time>
      </trkpt>
      <trkpt lat="48.50302" lon="-2.62805">
        <ele>80.2</ele>
        <time>2016-03-23T14:11:33Z</time>
      </trkpt>
      <trkpt lat="48.50309" lon="-2.62814">
        <ele>80.3</ele>
        <time>2016-03-23T14:11:35Z</time>
      </trkpt>
      <trkpt lat="48.50318" lon="-2.62821">
        <ele>80.5</ele>
        <time>2016-03-23T14:11:37Z</time>
      </trkpt>
      <trkpt lat="48.50327" lon="-2.62828">
        <ele>80.6</ele>
        <time>2016-03-23T14:11:39Z</time>
      </trkpt>
      <trkpt lat="48.50335" lon="-2.62835">
        <ele>80.7</ele>
        <time>2016-03-23T14:11:41Z</time>
      </trkpt>
      <trkpt lat="48.50344" lon="-2.62841">
        <ele>80.8</ele>
        <time>2016-03-23T14:11:43Z</time>
      </trkpt>
      <trkpt lat="48.50353" lon="-2.62849">
        <ele>80.9</ele>
        <time>2016-03-23T14:11:45Z</time>
      </trkpt>
      <trkpt lat="48.50361" lon="-2.62856">
        <ele>80.9</ele>
        <time>2016-03-23T14:11:47Z</time>
      </trkpt>
      <trkpt lat="48.5037" lon="-2.62863">
        <ele>81</ele>
        <time>2016-03-23T14:11:49Z</time>
      </trkpt>
      <trkpt lat="48.50379" lon="-2.6287">
        <ele>81</ele>
        <time>2016-03-23T14:11:51Z</time>
      </trkpt>
      <trkpt lat="48.50387" lon="-2.62877">
        <ele>81.1</ele>
        <time>2016-03-23T14:11:53Z</time>
      </trkpt>
      <trkpt lat="48.50395" lon="-2.62884">
        <ele>81.1</ele>
        <time>2016-03-23T14:11:55Z</time>
      </trkpt>
      <trkpt lat="48.50404" lon="-2.6289">
        <ele>81.1</ele>
        <time>2016-03-23T14:11:57Z</time>
      </trkpt>
      <trkpt lat="48.50413" lon="-2.62893">
        <ele>81.1</ele>
        <time>2016-03-23T14:11:59Z</time>
      </trkpt>
      <trkpt lat="48.50425" lon="-2.62884">
        <ele>81.1</ele>
        <time>2016-03-23T14:12:02Z</time>
      </trkpt>
      <trkpt lat="48.50434" lon="-2.62871">
        <ele>81</ele>
        <time>2016-03-23T14:12:05Z</time>
      </trkpt>
      <trkpt lat="48.50442" lon="-2.62859">
        <ele>80.9</ele>
        <time>2016-03-23T14:12:08Z</time>
      </trkpt>
      <trkpt lat="48.50452" lon="-2.6285">
        <ele>80.8</ele>
        <time>2016-03-23T14:12:11Z</time>
      </trkpt>
      <trkpt lat="48.50463" lon="-2.6285">
        <ele>80.8</ele>
        <time>2016-03-23T14:12:14Z</time>
      </trkpt>
      <trkpt lat="48.50474" lon="-2.62859">
        <ele>80.5</ele>
        <time>2016-03-23T14:12:17Z</time>
      </trkpt>
      <trkpt lat="48.50482" lon="-2.62868">
        <ele>80.3</ele>
        <time>2016-03-23T14:12:19Z</time>
      </trkpt>
      <trkpt lat="48.5049" lon="-2.62877">
        <ele>80.2</ele>
        <time>2016-03-23T14:12:21Z</time>
      </trkpt>
      <trkpt lat="48.50499" lon="-2.62886">
        <ele>80</ele>
        <time>2016-03-23T14:12:23Z</time>
      </trkpt>
      <trkpt lat="48.50508" lon="-2.62897">
        <ele>79.6</ele>
        <time>2016-03-23T14:12:25Z</time>
      </trkpt>
      <trkpt lat="48.50518" lon="-2.62908">
        <ele>79.3</ele>
        <time>2016-03-23T14:12:27Z</time>
      </trkpt>
      <trkpt lat="48.50528" lon="-2.6292">
        <ele>78.9</ele>
        <time>2016-03-23T14:12:29Z</time>
      </trkpt>
      <trkpt lat="48.50537" lon="-2.62931">
        <ele>78.4</ele>
        <time>2016-03-23T14:12:31Z</time>
      </trkpt>
      <trkpt lat="48.5055" lon="-2.62931">
        <ele>77.6</ele>
        <time>2016-03-23T14:12:34Z</time>
      </trkpt>
      <trkpt lat="48.50556" lon="-2.6292">
        <ele>77.2</ele>
        <time>2016-03-23T14:12:36Z</time>
      </trkpt>
      <trkpt lat="48.50561" lon="-2.62908">
        <ele>76.7</ele>
        <time>2016-03-23T14:12:38Z</time>
      </trkpt>
      <trkpt lat="48.50566" lon="-2.62897">
        <ele>76.4</ele>
        <time>2016-03-23T14:12:40Z</time>
      </trkpt>
      <trkpt lat="48.50572" lon="-2.62886">
        <ele>76</ele>
        <time>2016-03-23T14:12:42Z</time>
      </trkpt>
      <trkpt lat="48.50578" lon="-2.62875">
        <ele>75.7</ele>
        <time>2016-03-23T14:12:44Z</time>
      </trkpt>
      <trkpt lat="48.50585" lon="-2.62865">
        <ele>75.4</ele>
        <time>2016-03-23T14:12:46Z</time>
      </trkpt>
      <trkpt lat="48.50592" lon="-2.62854">
        <ele>75.2</ele>
        <time>2016-03-23T14:12:48Z</time>
      </trkpt>
      <trkpt lat="48.50598" lon="-2.62844">
        <ele>75</ele>
        <time>2016-03-23T14:12:50Z</time>
      </trkpt>
      <trkpt lat="48.50605" lon="-2.62832">
        <ele>74.8</ele>
        <time>2016-03-23T14:12:52Z</time>
      </trkpt>
      <trkpt lat="48.5061" lon="-2.62819">
        <ele>74.6</ele>
        <time>2016-03-23T14:12:54Z</time>
      </trkpt>
      <trkpt lat="48.50616" lon="-2.62807">
        <ele>74.4</ele>
        <time>2016-03-23T14:12:56Z</time>
      </trkpt>
      <trkpt lat="48.50621" lon="-2.62793">
        <ele>74.2</ele>
        <time>2016-03-23T14:12:58Z</time>
      </trkpt>
      <trkpt lat="48.50626" lon="-2.6278">
        <ele>74.1</ele>
        <time>2016-03-23T14:13:00Z</time>
      </trkpt>
      <trkpt lat="48.5063" lon="-2.62766">
        <ele>74</ele>
        <time>2016-03-23T14:13:02Z</time>
      </trkpt>
      <trkpt lat="48.50635" lon="-2.62753">
        <ele>73.9</ele>
        <time>2016-03-23T14:13:04Z</time>
      </trkpt>
      <trkpt lat="48.5064" lon="-2.6274">
        <ele>73.8</ele>
        <time>2016-03-23T14:13:06Z</time>
      </trkpt>
      <trkpt lat="48.50646" lon="-2.62728">
        <ele>73.7</ele>
        <time>2016-03-23T14:13:08Z</time>
      </trkpt>
      <trkpt lat="48.50652" lon="-2.62717">
        <ele>73.6</ele>
        <time>2016-03-23T14:13:10Z</time>
      </trkpt>
      <trkpt lat="48.50659" lon="-2.62705">
        <ele>73.5</ele>
        <time>2016-03-23T14:13:12Z</time>
      </trkpt>
      <trkpt lat="48.50667" lon="-2.62694">
        <ele>73.4</ele>
        <time>2016-03-23T14:13:14Z</time>
      </trkpt>
      <trkpt lat="48.50674" lon="-2.62683">
        <ele>73.4</ele>
        <time>2016-03-23T14:13:16Z</time>
      </trkpt>
      <trkpt lat="48.50681" lon="-2.62672">
        <ele>73.3</ele>
        <time>2016-03-23T14:13:18Z</time>
      </trkpt>
      <trkpt lat="48.50688" lon="-2.62662">
        <ele>73.3</ele>
        <time>2016-03-23T14:13:20Z</time>
      </trkpt>
      <trkpt lat="48.50695" lon="-2.62651">
        <ele>73.2</ele>
        <time>2016-03-23T14:13:22Z</time>
      </trkpt>
      <trkpt lat="48.50701" lon="-2.62641">
        <ele>73.2</ele>
        <time>2016-03-23T14:13:24Z</time>
      </trkpt>
      <trkpt lat="48.50709" lon="-2.62626">
        <ele>73.1</ele>
        <time>2016-03-23T14:13:27Z</time>
      </trkpt>
      <trkpt lat="48.50717" lon="-2.62615">
        <ele>73.1</ele>
        <time>2016-03-23T14:13:30Z</time>
      </trkpt>
      <trkpt lat="48.50725" lon="-2.6262">
        <ele>73.1</ele>
        <time>2016-03-23T14:13:33Z</time>
      </trkpt>
      <trkpt lat="48.50733" lon="-2.62636">
        <ele>73</ele>
        <time>2016-03-23T14:13:36Z</time>
      </trkpt>
      <trkpt lat="48.50737" lon="-2.62648">
        <ele>72.9</ele>
        <time>2016-03-23T14:13:38Z</time>
      </trkpt>
      <trkpt lat="48.50742" lon="-2.62663">
        <ele>72.7</ele>
        <time>2016-03-23T14:13:40Z</time>
      </trkpt>
      <trkpt lat="48.50747" lon="-2.6268">
        <ele>72.4</ele>
        <time>2016-03-23T14:13:42Z</time>
      </trkpt>
      <trkpt lat="48.50752" lon="-2.62699">
        <ele>72</ele>
        <time>2016-03-23T14:13:44Z</time>
      </trkpt>
      <trkpt lat="48.50757" lon="-2.62719">
        <ele>71.6</ele>
        <time>2016-03-23T14:13:46Z</time>
      </trkpt>
      <trkpt lat="48.50763" lon="-2.62741">
        <ele>71.1</ele>
        <time>2016-03-23T14:13:48Z</time>
      </trkpt>
      <trkpt lat="48.50768" lon="-2.62764">
        <ele>70.4</ele>
        <time>2016-03-23T14:13:50Z</time>
      </trkpt>
      <trkpt lat="48.50774" lon="-2.62788">
        <ele>69.7</ele>
        <time>2016-03-23T14:13:52Z</time>
      </trkpt>
      <trkpt lat="48.5078" lon="-2.62814">
        <ele>68.9</ele>
        <time>2016-03-23T14:13:54Z</time>
      </trkpt>
      <trkpt lat="48.50786" lon="-2.62839">
        <ele>67.9</ele>
        <time>2016-03-23T14:13:56Z</time>
      </trkpt>
      <trkpt lat="48.50792" lon="-2.62864">
        <ele>66.9</ele>
        <time>2016-03-23T14:13:58Z</time>
      </trkpt>
      <trkpt lat="48.50798" lon="-2.62889">
        <ele>65.9</ele>
        <time>2016-03-23T14:14:00Z</time>
      </trkpt>
      <trkpt lat="48.50804" lon="-2.62913">
        <ele>64.8</ele>
        <time>2016-03-23T14:14:02Z</time>
      </trkpt>
      <trkpt lat="48.5081" lon="-2.62937">
        <ele>63.7</ele>
        <time>2016-03-23T14:14:04Z</time>
      </trkpt>
      <trkpt lat="48.50814" lon="-2.62956">
        <ele>62.7</ele>
        <time>2016-03-23T14:14:06Z</time>
      </trkpt>
      <trkpt lat="48.50821" lon="-2.6297">
        <ele>61.5</ele>
        <time>2016-03-23T14:14:09Z</time>
      </trkpt>
      <trkpt lat="48.50827" lon="-2.62955">
        <ele>59.5</ele>
        <time>2016-03-23T14:14:15Z</time>
      </trkpt>
      <trkpt lat="48.5083" lon="-2.6294">
        <ele>58.8</ele>
        <time>2016-03-23T14:14:18Z</time>
      </trkpt>
      <trkpt lat="48.50833" lon="-2.62924">
        <ele>58.2</ele>
        <time>2016-03-23T14:14:21Z</time>
      </trkpt>
      <trkpt lat="48.50838" lon="-2.62907">
        <ele>57.7</ele>
        <time>2016-03-23T14:14:24Z</time>
      </trkpt>
      <trkpt lat="48.50844" lon="-2.62892">
        <ele>57.5</ele>
        <time>2016-03-23T14:14:27Z</time>
      </trkpt>
      <trkpt lat="48.50851" lon="-2.62877">
        <ele>57.3</ele>
        <time>2016-03-23T14:14:30Z</time>
      </trkpt>
      <trkpt lat="48.50858" lon="-2.62863">
        <ele>57.4</ele>
        <time>2016-03-23T14:14:33Z</time>
      </trkpt>
      <trkpt lat="48.50866" lon="-2.62854">
        <ele>57.5</ele>
        <time>2016-03-23T14:14:35Z</time>
      </trkpt>
      <trkpt lat="48.50873" lon="-2.62845">
        <ele>57.6</ele>
        <time>2016-03-23T14:14:37Z</time>
      </trkpt>
      <trkpt lat="48.50881" lon="-2.62836">
        <ele>57.6</ele>
        <time>2016-03-23T14:14:39Z</time>
      </trkpt>
      <trkpt lat="48.50892" lon="-2.62826">
        <ele>57.8</ele>
        <time>2016-03-23T14:14:42Z</time>
      </trkpt>
      <trkpt lat="48.50904" lon="-2.62816">
        <ele>57.9</ele>
        <time>2016-03-23T14:14:45Z</time>
      </trkpt>
      <trkpt lat="48.50912" lon="-2.62809">
        <ele>58.1</ele>
        <time>2016-03-23T14:14:47Z</time>
      </trkpt>
      <trkpt lat="48.50923" lon="-2.62799">
        <ele>58.4</ele>
        <time>2016-03-23T14:14:50Z</time>
      </trkpt>
      <trkpt lat="48.50935" lon="-2.6279">
        <ele>58.8</ele>
        <time>2016-03-23T14:14:53Z</time>
      </trkpt>
      <trkpt lat="48.50945" lon="-2.62781">
        <ele>59.2</ele>
        <time>2016-03-23T14:14:56Z</time>
      </trkpt>
      <trkpt lat="48.50956" lon="-2.62772">
        <ele>59.6</ele>
        <time>2016-03-23T14:14:59Z</time>
      </trkpt>
      <trkpt lat="48.50968" lon="-2.62763">
        <ele>60</ele>
        <time>2016-03-23T14:15:02Z</time>
      </trkpt>
      <trkpt lat="48.50977" lon="-2.62756">
        <ele>60.3</ele>
        <time>2016-03-23T14:15:04Z</time>
      </trkpt>
      <trkpt lat="48.50985" lon="-2.6275">
        <ele>60.7</ele>
        <time>2016-03-23T14:15:06Z</time>
      </trkpt>
      <trkpt lat="48.50993" lon="-2.62742">
        <ele>61</ele>
        <time>2016-03-23T14:15:08Z</time>
      </trkpt>
      <trkpt lat="48.51004" lon="-2.62731">
        <ele>61.5</ele>
        <time>2016-03-23T14:15:11Z</time>
      </trkpt>
      <trkpt lat="48.51014" lon="-2.62719">
        <ele>61.9</ele>
        <time>2016-03-23T14:15:14Z</time>
      </trkpt>
      <trkpt lat="48.51022" lon="-2.62706">
        <ele>62.3</ele>
        <time>2016-03-23T14:15:17Z</time>
      </trkpt>
      <trkpt lat="48.5103" lon="-2.62692">
        <ele>62.7</ele>
        <time>2016-03-23T14:15:20Z</time>
      </trkpt>
      <trkpt lat="48.51037" lon="-2.62677">
        <ele>63.1</ele>
        <time>2016-03-23T14:15:23Z</time>
      </trkpt>
      <trkpt lat="48.51044" lon="-2.62662">
        <ele>63.5</ele>
        <time>2016-03-23T14:15:26Z</time>
      </trkpt>
      <trkpt lat="48.51049" lon="-2.62647">
        <ele>63.9</ele>
        <time>2016-03-23T14:15:29Z</time>
      </trkpt>
      <trkpt lat="48.51054" lon="-2.62631">
        <ele>64.3</ele>
        <time>2016-03-23T14:15:32Z</time>
      </trkpt>
      <trkpt lat="48.51058" lon="-2.62614">
        <ele>64.6</ele>
        <time>2016-03-23T14:15:35Z</time>
      </trkpt>
      <trkpt lat="48.51061" lon="-2.62598">
        <ele>65</ele>
        <time>2016-03-23T14:15:38Z</time>
      </trkpt>
      <trkpt lat="48.51063" lon="-2.62581">
        <ele>65.5</ele>
        <time>2016-03-23T14:15:41Z</time>
      </trkpt>
      <trkpt lat="48.51064" lon="-2.62566">
        <ele>65.9</ele>
        <time>2016-03-23T14:15:44Z</time>
      </trkpt>
      <trkpt lat="48.51065" lon="-2.62551">
        <ele>66.4</ele>
        <time>2016-03-23T14:15:48Z</time>
      </trkpt>
      <trkpt lat="48.51056" lon="-2.62541">
        <ele>67.2</ele>
        <time>2016-03-23T14:15:53Z</time>
      </trkpt>
      <trkpt lat="48.51045" lon="-2.62536">
        <ele>67.6</ele>
        <time>2016-03-23T14:15:56Z</time>
      </trkpt>
      <trkpt lat="48.51032" lon="-2.62534">
        <ele>68.2</ele>
        <time>2016-03-23T14:15:59Z</time>
      </trkpt>
      <trkpt lat="48.51021" lon="-2.62534">
        <ele>68.8</ele>
        <time>2016-03-23T14:16:02Z</time>
      </trkpt>
      <trkpt lat="48.51009" lon="-2.62534">
        <ele>69.5</ele>
        <time>2016-03-23T14:16:05Z</time>
      </trkpt>
      <trkpt lat="48.50997" lon="-2.62534">
        <ele>70.1</ele>
        <time>2016-03-23T14:16:08Z</time>
      </trkpt>
      <trkpt lat="48.50984" lon="-2.62534">
        <ele>70.7</ele>
        <time>2016-03-23T14:16:11Z</time>
      </trkpt>
      <trkpt lat="48.50972" lon="-2.62536">
        <ele>71.3</ele>
        <time>2016-03-23T14:16:14Z</time>
      </trkpt>
      <trkpt lat="48.50959" lon="-2.62537">
        <ele>71.8</ele>
        <time>2016-03-23T14:16:17Z</time>
      </trkpt>
      <trkpt lat="48.50946" lon="-2.6254">
        <ele>72.3</ele>
        <time>2016-03-23T14:16:20Z</time>
      </trkpt>
      <trkpt lat="48.50937" lon="-2.6254">
        <ele>72.5</ele>
        <time>2016-03-23T14:16:22Z</time>
      </trkpt>
      <trkpt lat="48.50927" lon="-2.62538">
        <ele>72.8</ele>
        <time>2016-03-23T14:16:24Z</time>
      </trkpt>
      <trkpt lat="48.50917" lon="-2.62533">
        <ele>73</ele>
        <time>2016-03-23T14:16:26Z</time>
      </trkpt>
      <trkpt lat="48.50906" lon="-2.62526">
        <ele>73.2</ele>
        <time>2016-03-23T14:16:28Z</time>
      </trkpt>
      <trkpt lat="48.50896" lon="-2.62518">
        <ele>73.4</ele>
        <time>2016-03-23T14:16:30Z</time>
      </trkpt>
      <trkpt lat="48.50886" lon="-2.62511">
        <ele>73.6</ele>
        <time>2016-03-23T14:16:32Z</time>
      </trkpt>
      <trkpt lat="48.50874" lon="-2.62504">
        <ele>73.7</ele>
        <time>2016-03-23T14:16:34Z</time>
      </trkpt>
      <trkpt lat="48.50863" lon="-2.62496">
        <ele>73.9</ele>
        <time>2016-03-23T14:16:36Z</time>
      </trkpt>
      <trkpt lat="48.50852" lon="-2.62488">
        <ele>74</ele>
        <time>2016-03-23T14:16:38Z</time>
      </trkpt>
      <trkpt lat="48.50841" lon="-2.62479">
        <ele>74</ele>
        <time>2016-03-23T14:16:40Z</time>
      </trkpt>
      <trkpt lat="48.50829" lon="-2.62471">
        <ele>74</ele>
        <time>2016-03-23T14:16:42Z</time>
      </trkpt>
      <trkpt lat="48.50817" lon="-2.62464">
        <ele>73.9</ele>
        <time>2016-03-23T14:16:44Z</time>
      </trkpt>
      <trkpt lat="48.50806" lon="-2.62457">
        <ele>73.9</ele>
        <time>2016-03-23T14:16:46Z</time>
      </trkpt>
      <trkpt lat="48.50794" lon="-2.6245">
        <ele>73.9</ele>
        <time>2016-03-23T14:16:48Z</time>
      </trkpt>
      <trkpt lat="48.50783" lon="-2.62442">
        <ele>73.9</ele>
        <time>2016-03-23T14:16:50Z</time>
      </trkpt>
      <trkpt lat="48.50772" lon="-2.62434">
        <ele>73.9</ele>
        <time>2016-03-23T14:16:52Z</time>
      </trkpt>
      <trkpt lat="48.50762" lon="-2.62425">
        <ele>73.9</ele>
        <time>2016-03-23T14:16:54Z</time>
      </trkpt>
      <trkpt lat="48.50751" lon="-2.62419">
        <ele>73.9</ele>
        <time>2016-03-23T14:16:56Z</time>
      </trkpt>
      <trkpt lat="48.5074" lon="-2.62414">
        <ele>73.9</ele>
        <time>2016-03-23T14:16:58Z</time>
      </trkpt>
      <trkpt lat="48.50729" lon="-2.6241">
        <ele>73.9</ele>
        <time>2016-03-23T14:17:00Z</time>
      </trkpt>
      <trkpt lat="48.50719" lon="-2.62407">
        <ele>74.1</ele>
        <time>2016-03-23T14:17:02Z</time>
      </trkpt>
      <trkpt lat="48.50709" lon="-2.62401">
        <ele>74.2</ele>
        <time>2016-03-23T14:17:04Z</time>
      </trkpt>
      <trkpt lat="48.507" lon="-2.62393">
        <ele>74.4</ele>
        <time>2016-03-23T14:17:06Z</time>
      </trkpt>
      <trkpt lat="48.5069" lon="-2.62384">
        <ele>74.5</ele>
        <time>2016-03-23T14:17:08Z</time>
      </trkpt>
      <trkpt lat="48.50681" lon="-2.62375">
        <ele>74.6</ele>
        <time>2016-03-23T14:17:10Z</time>
      </trkpt>
      <trkpt lat="48.50673" lon="-2.62366">
        <ele>74.7</ele>
        <time>2016-03-23T14:17:12Z</time>
      </trkpt>
      <trkpt lat="48.50668" lon="-2.62352">
        <ele>74.8</ele>
        <time>2016-03-23T14:17:14Z</time>
      </trkpt>
      <trkpt lat="48.50666" lon="-2.62337">
        <ele>74.9</ele>
        <time>2016-03-23T14:17:16Z</time>
      </trkpt>
      <trkpt lat="48.50666" lon="-2.62322">
        <ele>75</ele>
        <time>2016-03-23T14:17:18Z</time>
      </trkpt>
      <trkpt lat="48.50665" lon="-2.62308">
        <ele>75</ele>
        <time>2016-03-23T14:17:20Z</time>
      </trkpt>
      <trkpt lat="48.50665" lon="-2.62291">
        <ele>75</ele>
        <time>2016-03-23T14:17:22Z</time>
      </trkpt>
      <trkpt lat="48.50666" lon="-2.62274">
        <ele>75</ele>
        <time>2016-03-23T14:17:24Z</time>
      </trkpt>
      <trkpt lat="48.50668" lon="-2.62255">
        <ele>74.9</ele>
        <time>2016-03-23T14:17:26Z</time>
      </trkpt>
      <trkpt lat="48.5067" lon="-2.62235">
        <ele>74.8</ele>
        <time>2016-03-23T14:17:28Z</time>
      </trkpt>
      <trkpt lat="48.50672" lon="-2.62214">
        <ele>74.6</ele>
        <time>2016-03-23T14:17:30Z</time>
      </trkpt>
      <trkpt lat="48.50674" lon="-2.62193">
        <ele>74.4</ele>
        <time>2016-03-23T14:17:32Z</time>
      </trkpt>
      <trkpt lat="48.50676" lon="-2.62171">
        <ele>74.1</ele>
        <time>2016-03-23T14:17:34Z</time>
      </trkpt>
      <trkpt lat="48.50678" lon="-2.62151">
        <ele>73.7</ele>
        <time>2016-03-23T14:17:36Z</time>
      </trkpt>
      <trkpt lat="48.50681" lon="-2.6213">
        <ele>73.4</ele>
        <time>2016-03-23T14:17:38Z</time>
      </trkpt>
      <trkpt lat="48.50685" lon="-2.6211">
        <ele>73</ele>
        <time>2016-03-23T14:17:40Z</time>
      </trkpt>
      <trkpt lat="48.50688" lon="-2.62089">
        <ele>72.6</ele>
        <time>2016-03-23T14:17:42Z</time>
      </trkpt>
      <trkpt lat="48.50692" lon="-2.62068">
        <ele>72.1</ele>
        <time>2016-03-23T14:17:44Z</time>
      </trkpt>
      <trkpt lat="48.50696" lon="-2.62045">
        <ele>71.5</ele>
        <time>2016-03-23T14:17:46Z</time>
      </trkpt>
      <trkpt lat="48.50699" lon="-2.62022">
        <ele>70.7</ele>
        <time>2016-03-23T14:17:48Z</time>
      </trkpt>
      <trkpt lat="48.50701" lon="-2.62">
        <ele>70</ele>
        <time>2016-03-23T14:17:50Z</time>
      </trkpt>
      <trkpt lat="48.50702" lon="-2.61979">
        <ele>69.2</ele>
        <time>2016-03-23T14:17:52Z</time>
      </trkpt>
      <trkpt lat="48.50703" lon="-2.61959">
        <ele>68.5</ele>
        <time>2016-03-23T14:17:54Z</time>
      </trkpt>
      <trkpt lat="48.50703" lon="-2.61938">
        <ele>67.8</ele>
        <time>2016-03-23T14:17:56Z</time>
      </trkpt>
      <trkpt lat="48.50704" lon="-2.61918">
        <ele>67.2</ele>
        <time>2016-03-23T14:17:58Z</time>
      </trkpt>
      <trkpt lat="48.50706" lon="-2.61898">
        <ele>66.5</ele>
        <time>2016-03-23T14:18:00Z</time>
      </trkpt>
      <trkpt lat="48.50709" lon="-2.61878">
        <ele>65.8</ele>
        <time>2016-03-23T14:18:02Z</time>
      </trkpt>
      <trkpt lat="48.50709" lon="-2.61856">
        <ele>65</ele>
        <time>2016-03-23T14:18:04Z</time>
      </trkpt>
      <trkpt lat="48.50708" lon="-2.61836">
        <ele>64.2</ele>
        <time>2016-03-23T14:18:06Z</time>
      </trkpt>
      <trkpt lat="48.50709" lon="-2.61814">
        <ele>63.4</ele>
        <time>2016-03-23T14:18:08Z</time>
      </trkpt>
      <trkpt lat="48.50712" lon="-2.61791">
        <ele>62.6</ele>
        <time>2016-03-23T14:18:10Z</time>
      </trkpt>
      <trkpt lat="48.50712" lon="-2.61769">
        <ele>61.6</ele>
        <time>2016-03-23T14:18:12Z</time>
      </trkpt>
      <trkpt lat="48.50714" lon="-2.61747">
        <ele>60.8</ele>
        <time>2016-03-23T14:18:14Z</time>
      </trkpt>
      <trkpt lat="48.50716" lon="-2.61726">
        <ele>59.9</ele>
        <time>2016-03-23T14:18:16Z</time>
      </trkpt>
      <trkpt lat="48.50718" lon="-2.61703">
        <ele>59</ele>
        <time>2016-03-23T14:18:18Z</time>
      </trkpt>
      <trkpt lat="48.50721" lon="-2.61683">
        <ele>58.2</ele>
        <time>2016-03-23T14:18:20Z</time>
      </trkpt>
      <trkpt lat="48.50723" lon="-2.61665">
        <ele>57.5</ele>
        <time>2016-03-23T14:18:22Z</time>
      </trkpt>
      <trkpt lat="48.50724" lon="-2.61646">
        <ele>56.8</ele>
        <time>2016-03-23T14:18:24Z</time>
      </trkpt>
      <trkpt lat="48.50724" lon="-2.61628">
        <ele>56.1</ele>
        <time>2016-03-23T14:18:26Z</time>
      </trkpt>
      <trkpt lat="48.50724" lon="-2.61608">
        <ele>55.4</ele>
        <time>2016-03-23T14:18:28Z</time>
      </trkpt>
      <trkpt lat="48.50725" lon="-2.61585">
        <ele>54.8</ele>
        <time>2016-03-23T14:18:30Z</time>
      </trkpt>
      <trkpt lat="48.50726" lon="-2.61564">
        <ele>54.1</ele>
        <time>2016-03-23T14:18:32Z</time>
      </trkpt>
      <trkpt lat="48.50726" lon="-2.61551">
        <ele>53.4</ele>
        <time>2016-03-23T14:18:34Z</time>
      </trkpt>
      <trkpt lat="48.50725" lon="-2.61536">
        <ele>52.2</ele>
        <time>2016-03-23T14:18:38Z</time>
      </trkpt>
      <trkpt lat="48.50721" lon="-2.6152">
        <ele>51.2</ele>
        <time>2016-03-23T14:18:42Z</time>
      </trkpt>
      <trkpt lat="48.50716" lon="-2.61505">
        <ele>50.4</ele>
        <time>2016-03-23T14:18:45Z</time>
      </trkpt>
      <trkpt lat="48.50707" lon="-2.61494">
        <ele>49.4</ele>
        <time>2016-03-23T14:18:48Z</time>
      </trkpt>
      <trkpt lat="48.50703" lon="-2.61482">
        <ele>46.8</ele>
        <time>2016-03-23T14:18:58Z</time>
      </trkpt>
    </trkseg>
  </trk>
</gpx>